<?xml version="1.0" encoding="UTF-8"?>
<gpx version="1.1" creator="runtastic - makes sports funtastic, http://www.runtastic.com" xsi:schemaLocation="http://www.topografix.com/GPX/1/1
                              http://www.topografix.com/GPX/1/1/gpx.xsd
                              http://www.garmin.com/xmlschemas/GpxExtensions/v3
                              http://www.garmin.com/xmlschemas/GpxExtensionsv3.xsd
                              http://www.garmin.com/xmlschemas/TrackPointExtension/v1
                              http://www.garmin.com/xmlschemas/TrackPointExtensionv1.xsd" xmlns="http://www.topografix.com/GPX/1/1" xmlns:gpxtpx="http://www.garmin.com/xmlschemas/TrackPointExtension/v1" xmlns:gpxx="http://www.garmin.com/xmlschemas/GpxExtensions/v3" xmlns:xsi="http://www.w3.org/2001/XMLSchema-instance">
  <metadata>
    <copyright author="www.runtastic.com">
      <year>2012</year>
      <license>http://www.runtastic.com</license>
    </copyright>
    <link href="http://www.runtastic.com">
      <text>runtastic</text>
    </link>
    <time>2012-07-08T10:50:00.000Z</time>
  </metadata>
  <trk>
    <link href="http://www.runtastic.com/sport-sessions/18195427">
      <text>Visita este link para ver esta actividad en runtastic.com</text>
    </link>
    <trkseg>
      <trkpt lon="-2.9932317733764600" lat="43.2875099182128977">
        <ele>4.0</ele>
        <time>2012-07-08T10:50:00.000Z</time>
      </trkpt>
      <trkpt lon="-2.9932861328125000" lat="43.2873115539550994">
        <ele>4.0</ele>
        <time>2012-07-08T10:50:01.000Z</time>
      </trkpt>
      <trkpt lon="-2.9934043884277299" lat="43.2869834899901988">
        <ele>3.0</ele>
        <time>2012-07-08T10:50:06.000Z</time>
      </trkpt>
      <trkpt lon="-2.9936411380767800" lat="43.2863922119140980">
        <ele>3.0</ele>
        <time>2012-07-08T10:50:16.000Z</time>
      </trkpt>
      <trkpt lon="-2.9938702583313002" lat="43.2857742309570028">
        <ele>3.0</ele>
        <time>2012-07-08T10:50:28.000Z</time>
      </trkpt>
      <trkpt lon="-2.9938828945159899" lat="43.2856597900390980">
        <ele>4.0</ele>
        <time>2012-07-08T10:50:30.000Z</time>
      </trkpt>
      <trkpt lon="-2.9938676357269300" lat="43.2855186462401988">
        <ele>4.0</ele>
        <time>2012-07-08T10:50:33.000Z</time>
      </trkpt>
      <trkpt lon="-2.9937570095062300" lat="43.2853813171387003">
        <ele>5.0</ele>
        <time>2012-07-08T10:50:36.000Z</time>
      </trkpt>
      <trkpt lon="-2.9937400817871098" lat="43.2852783203125000">
        <ele>5.0</ele>
        <time>2012-07-08T10:50:39.000Z</time>
      </trkpt>
      <trkpt lon="-2.9938392639160201" lat="43.2851409912109020">
        <ele>5.0</ele>
        <time>2012-07-08T10:50:42.000Z</time>
      </trkpt>
      <trkpt lon="-2.9940502643585201" lat="43.2851181030273011">
        <ele>6.0</ele>
        <time>2012-07-08T10:50:45.000Z</time>
      </trkpt>
      <trkpt lon="-2.9942693710327100" lat="43.2851219177246023">
        <ele>6.0</ele>
        <time>2012-07-08T10:50:48.000Z</time>
      </trkpt>
      <trkpt lon="-2.9943518638610800" lat="43.2850227355957031">
        <ele>6.0</ele>
        <time>2012-07-08T10:50:51.000Z</time>
      </trkpt>
      <trkpt lon="-2.9944028854370099" lat="43.2849388122559020">
        <ele>6.0</ele>
        <time>2012-07-08T10:50:53.000Z</time>
      </trkpt>
      <trkpt lon="-2.9944655895233199" lat="43.2847976684570028">
        <ele>6.0</ele>
        <time>2012-07-08T10:50:57.000Z</time>
      </trkpt>
      <trkpt lon="-2.9945313930511501" lat="43.2847023010253977">
        <ele>6.0</ele>
        <time>2012-07-08T10:50:59.000Z</time>
      </trkpt>
      <trkpt lon="-2.9946076869964600" lat="43.2845573425292969">
        <ele>6.0</ele>
        <time>2012-07-08T10:51:03.000Z</time>
      </trkpt>
      <trkpt lon="-2.9946498870849600" lat="43.2844390869140980">
        <ele>6.0</ele>
        <time>2012-07-08T10:51:06.000Z</time>
      </trkpt>
      <trkpt lon="-2.9947195053100599" lat="43.2843132019042969">
        <ele>6.0</ele>
        <time>2012-07-08T10:51:09.000Z</time>
      </trkpt>
      <trkpt lon="-2.9946935176849401" lat="43.2842369079589986">
        <ele>7.0</ele>
        <time>2012-07-08T10:51:12.000Z</time>
      </trkpt>
      <trkpt lon="-2.9945480823516801" lat="43.2841682434082031">
        <ele>7.0</ele>
        <time>2012-07-08T10:51:15.000Z</time>
      </trkpt>
      <trkpt lon="-2.9943571090698202" lat="43.2839965820312003">
        <ele>7.0</ele>
        <time>2012-07-08T10:51:20.000Z</time>
      </trkpt>
      <trkpt lon="-2.9944307804107702" lat="43.2838172912598012">
        <ele>7.0</ele>
        <time>2012-07-08T10:51:23.000Z</time>
      </trkpt>
      <trkpt lon="-2.9944384098053001" lat="43.2837142944336009">
        <ele>7.0</ele>
        <time>2012-07-08T10:51:26.000Z</time>
      </trkpt>
      <trkpt lon="-2.9943633079528800" lat="43.2836799621582031">
        <ele>6.0</ele>
        <time>2012-07-08T10:51:28.000Z</time>
      </trkpt>
      <trkpt lon="-2.9942328929901101" lat="43.2835655212401988">
        <ele>6.0</ele>
        <time>2012-07-08T10:51:31.000Z</time>
      </trkpt>
      <trkpt lon="-2.9941985607147199" lat="43.2835083007812003">
        <ele>6.0</ele>
        <time>2012-07-08T10:51:34.000Z</time>
      </trkpt>
      <trkpt lon="-2.9942531585693399" lat="43.2833404541015980">
        <ele>6.0</ele>
        <time>2012-07-08T10:51:36.000Z</time>
      </trkpt>
      <trkpt lon="-2.9942359924316402" lat="43.2832412719726989">
        <ele>6.0</ele>
        <time>2012-07-08T10:51:38.000Z</time>
      </trkpt>
      <trkpt lon="-2.9943020343780500" lat="43.2831153869628977">
        <ele>6.0</ele>
        <time>2012-07-08T10:51:41.000Z</time>
      </trkpt>
      <trkpt lon="-2.9943389892578098" lat="43.2830619812012003">
        <ele>6.0</ele>
        <time>2012-07-08T10:51:44.000Z</time>
      </trkpt>
      <trkpt lon="-2.9943759441375701" lat="43.2829704284667969">
        <ele>6.0</ele>
        <time>2012-07-08T10:51:47.000Z</time>
      </trkpt>
      <trkpt lon="-2.9943463802337602" lat="43.2829208374023011">
        <ele>6.0</ele>
        <time>2012-07-08T10:51:52.000Z</time>
      </trkpt>
      <trkpt lon="-2.9940712451934801" lat="43.2828369140625000">
        <ele>6.0</ele>
        <time>2012-07-08T10:51:57.000Z</time>
      </trkpt>
      <trkpt lon="-2.9939689636230500" lat="43.2827529907226989">
        <ele>7.0</ele>
        <time>2012-07-08T10:51:58.000Z</time>
      </trkpt>
      <trkpt lon="-2.9938220977783199" lat="43.2826042175292969">
        <ele>7.0</ele>
        <time>2012-07-08T10:52:01.000Z</time>
      </trkpt>
      <trkpt lon="-2.9936945438385001" lat="43.2824211120604971">
        <ele>8.0</ele>
        <time>2012-07-08T10:52:04.000Z</time>
      </trkpt>
      <trkpt lon="-2.9936213493347199" lat="43.2822227478026988">
        <ele>8.0</ele>
        <time>2012-07-08T10:52:07.000Z</time>
      </trkpt>
      <trkpt lon="-2.9934043884277299" lat="43.2817192077637003">
        <ele>8.0</ele>
        <time>2012-07-08T10:52:15.000Z</time>
      </trkpt>
      <trkpt lon="-2.9933366775512700" lat="43.2815971374512003">
        <ele>7.0</ele>
        <time>2012-07-08T10:52:17.000Z</time>
      </trkpt>
      <trkpt lon="-2.9932560920715301" lat="43.2813987731934020">
        <ele>7.0</ele>
        <time>2012-07-08T10:52:20.000Z</time>
      </trkpt>
      <trkpt lon="-2.9931530952453600" lat="43.2810401916503977">
        <ele>7.0</ele>
        <time>2012-07-08T10:52:26.000Z</time>
      </trkpt>
      <trkpt lon="-2.9931297302246098" lat="43.2808876037598012">
        <ele>7.0</ele>
        <time>2012-07-08T10:52:27.000Z</time>
      </trkpt>
      <trkpt lon="-2.9931190013885498" lat="43.2805328369140980">
        <ele>7.0</ele>
        <time>2012-07-08T10:52:32.000Z</time>
      </trkpt>
      <trkpt lon="-2.9931540489196800" lat="43.2799224853515980">
        <ele>7.0</ele>
        <time>2012-07-08T10:52:41.000Z</time>
      </trkpt>
      <trkpt lon="-2.9931614398956299" lat="43.2797966003417969">
        <ele>8.0</ele>
        <time>2012-07-08T10:52:44.000Z</time>
      </trkpt>
      <trkpt lon="-2.9931693077087398" lat="43.2794799804687003">
        <ele>9.0</ele>
        <time>2012-07-08T10:52:48.000Z</time>
      </trkpt>
      <trkpt lon="-2.9931302070617698" lat="43.2791824340820028">
        <ele>9.0</ele>
        <time>2012-07-08T10:52:53.000Z</time>
      </trkpt>
      <trkpt lon="-2.9931142330169700" lat="43.2790107727050994">
        <ele>10.0</ele>
        <time>2012-07-08T10:52:56.000Z</time>
      </trkpt>
      <trkpt lon="-2.9931509494781499" lat="43.2788772583008026">
        <ele>10.0</ele>
        <time>2012-07-08T10:52:58.000Z</time>
      </trkpt>
      <trkpt lon="-2.9932889938354501" lat="43.2786979675292969">
        <ele>10.0</ele>
        <time>2012-07-08T10:53:01.000Z</time>
      </trkpt>
      <trkpt lon="-2.9934833049774201" lat="43.2785606384276988">
        <ele>10.0</ele>
        <time>2012-07-08T10:53:04.000Z</time>
      </trkpt>
      <trkpt lon="-2.9937026500701900" lat="43.2784538269042969">
        <ele>11.0</ele>
        <time>2012-07-08T10:53:07.000Z</time>
      </trkpt>
      <trkpt lon="-2.9938702583313002" lat="43.2784004211425994">
        <ele>12.0</ele>
        <time>2012-07-08T10:53:09.000Z</time>
      </trkpt>
      <trkpt lon="-2.9940237998962398" lat="43.2783432006836009">
        <ele>14.0</ele>
        <time>2012-07-08T10:53:12.000Z</time>
      </trkpt>
      <trkpt lon="-2.9942479133606001" lat="43.2782325744628977">
        <ele>17.0</ele>
        <time>2012-07-08T10:53:15.000Z</time>
      </trkpt>
      <trkpt lon="-2.9944329261779798" lat="43.2780914306640980">
        <ele>19.0</ele>
        <time>2012-07-08T10:53:17.000Z</time>
      </trkpt>
      <trkpt lon="-2.9945385456085201" lat="43.2779846191405966">
        <ele>21.0</ele>
        <time>2012-07-08T10:53:19.000Z</time>
      </trkpt>
      <trkpt lon="-2.9946372509002699" lat="43.2778778076172017">
        <ele>22.0</ele>
        <time>2012-07-08T10:53:21.000Z</time>
      </trkpt>
      <trkpt lon="-2.9947681427002002" lat="43.2777061462401988">
        <ele>23.0</ele>
        <time>2012-07-08T10:53:24.000Z</time>
      </trkpt>
      <trkpt lon="-2.9948973655700701" lat="43.2775344848633026">
        <ele>22.0</ele>
        <time>2012-07-08T10:53:27.000Z</time>
      </trkpt>
      <trkpt lon="-2.9950520992279102" lat="43.2773742675780966">
        <ele>21.0</ele>
        <time>2012-07-08T10:53:31.000Z</time>
      </trkpt>
      <trkpt lon="-2.9951577186584499" lat="43.2772827148437003">
        <ele>20.0</ele>
        <time>2012-07-08T10:53:32.000Z</time>
      </trkpt>
      <trkpt lon="-2.9954226016998300" lat="43.2770576477050994">
        <ele>19.0</ele>
        <time>2012-07-08T10:53:38.000Z</time>
      </trkpt>
      <trkpt lon="-2.9955027103424099" lat="43.2768859863280966">
        <ele>19.0</ele>
        <time>2012-07-08T10:53:41.000Z</time>
      </trkpt>
      <trkpt lon="-2.9955358505249001" lat="43.2767066955565980">
        <ele>18.0</ele>
        <time>2012-07-08T10:53:43.000Z</time>
      </trkpt>
      <trkpt lon="-2.9955079555511501" lat="43.2765731811523011">
        <ele>17.0</ele>
        <time>2012-07-08T10:53:45.000Z</time>
      </trkpt>
      <trkpt lon="-2.9954779148101802" lat="43.2764472961425994">
        <ele>16.0</ele>
        <time>2012-07-08T10:53:47.000Z</time>
      </trkpt>
      <trkpt lon="-2.9954135417938201" lat="43.2762794494628977">
        <ele>16.0</ele>
        <time>2012-07-08T10:53:50.000Z</time>
      </trkpt>
      <trkpt lon="-2.9953308105468701" lat="43.2760620117187003">
        <ele>17.0</ele>
        <time>2012-07-08T10:53:54.000Z</time>
      </trkpt>
      <trkpt lon="-2.9953134059906001" lat="43.2759513854979971">
        <ele>18.0</ele>
        <time>2012-07-08T10:53:56.000Z</time>
      </trkpt>
      <trkpt lon="-2.9953386783599898" lat="43.2756614685059020">
        <ele>20.0</ele>
        <time>2012-07-08T10:54:03.000Z</time>
      </trkpt>
      <trkpt lon="-2.9953582286834699" lat="43.2756156921387003">
        <ele>21.0</ele>
        <time>2012-07-08T10:54:05.000Z</time>
      </trkpt>
      <trkpt lon="-2.9953980445861799" lat="43.2755203247070028">
        <ele>23.0</ele>
        <time>2012-07-08T10:54:08.000Z</time>
      </trkpt>
      <trkpt lon="-2.9954049587249800" lat="43.2754211425780966">
        <ele>25.0</ele>
        <time>2012-07-08T10:54:10.000Z</time>
      </trkpt>
      <trkpt lon="-2.9953479766845699" lat="43.2753143310547017">
        <ele>27.0</ele>
        <time>2012-07-08T10:54:14.000Z</time>
      </trkpt>
      <trkpt lon="-2.9952616691589400" lat="43.2751960754394034">
        <ele>28.0</ele>
        <time>2012-07-08T10:54:17.000Z</time>
      </trkpt>
      <trkpt lon="-2.9951460361480700" lat="43.2750854492187003">
        <ele>29.0</ele>
        <time>2012-07-08T10:54:20.000Z</time>
      </trkpt>
      <trkpt lon="-2.9949569702148402" lat="43.2749290466309020">
        <ele>28.0</ele>
        <time>2012-07-08T10:54:24.000Z</time>
      </trkpt>
      <trkpt lon="-2.9948804378509499" lat="43.2748641967773011">
        <ele>27.0</ele>
        <time>2012-07-08T10:54:26.000Z</time>
      </trkpt>
      <trkpt lon="-2.9947829246521001" lat="43.2747764587401988">
        <ele>26.0</ele>
        <time>2012-07-08T10:54:29.000Z</time>
      </trkpt>
      <trkpt lon="-2.9946968555450399" lat="43.2746696472167969">
        <ele>25.0</ele>
        <time>2012-07-08T10:54:33.000Z</time>
      </trkpt>
      <trkpt lon="-2.9946222305297798" lat="43.2745590209961009">
        <ele>23.0</ele>
        <time>2012-07-08T10:54:34.000Z</time>
      </trkpt>
      <trkpt lon="-2.9945690631866499" lat="43.2744522094726989">
        <ele>22.0</ele>
        <time>2012-07-08T10:54:36.000Z</time>
      </trkpt>
      <trkpt lon="-2.9945287704467800" lat="43.2743225097655966">
        <ele>22.0</ele>
        <time>2012-07-08T10:54:40.000Z</time>
      </trkpt>
      <trkpt lon="-2.9945538043975799" lat="43.2741889953612997">
        <ele>21.0</ele>
        <time>2012-07-08T10:54:43.000Z</time>
      </trkpt>
      <trkpt lon="-2.9945957660675000" lat="43.2740974426269034">
        <ele>21.0</ele>
        <time>2012-07-08T10:54:45.000Z</time>
      </trkpt>
      <trkpt lon="-2.9947979450225799" lat="43.2737579345702983">
        <ele>21.0</ele>
        <time>2012-07-08T10:54:52.000Z</time>
      </trkpt>
      <trkpt lon="-2.9948689937591602" lat="43.2736854553223012">
        <ele>21.0</ele>
        <time>2012-07-08T10:54:54.000Z</time>
      </trkpt>
      <trkpt lon="-2.9950077533721902" lat="43.2735710144042969">
        <ele>21.0</ele>
        <time>2012-07-08T10:54:57.000Z</time>
      </trkpt>
      <trkpt lon="-2.9952371120452899" lat="43.2733764648437003">
        <ele>22.0</ele>
        <time>2012-07-08T10:55:02.000Z</time>
      </trkpt>
      <trkpt lon="-2.9953396320343000" lat="43.2732620239258026">
        <ele>22.0</ele>
        <time>2012-07-08T10:55:06.000Z</time>
      </trkpt>
      <trkpt lon="-2.9954528808593701" lat="43.2731170654297017">
        <ele>23.0</ele>
        <time>2012-07-08T10:55:09.000Z</time>
      </trkpt>
      <trkpt lon="-2.9955456256866499" lat="43.2729644775390980">
        <ele>24.0</ele>
        <time>2012-07-08T10:55:11.000Z</time>
      </trkpt>
      <trkpt lon="-2.9955954551696800" lat="43.2728118896484020">
        <ele>24.0</ele>
        <time>2012-07-08T10:55:14.000Z</time>
      </trkpt>
      <trkpt lon="-2.9956228733062700" lat="43.2727088928223012">
        <ele>25.0</ele>
        <time>2012-07-08T10:55:16.000Z</time>
      </trkpt>
      <trkpt lon="-2.9956567287445099" lat="43.2725524902344034">
        <ele>26.0</ele>
        <time>2012-07-08T10:55:19.000Z</time>
      </trkpt>
      <trkpt lon="-2.9957027435302699" lat="43.2724571228026988">
        <ele>27.0</ele>
        <time>2012-07-08T10:55:22.000Z</time>
      </trkpt>
      <trkpt lon="-2.9959244728088401" lat="43.2720680236815980">
        <ele>28.0</ele>
        <time>2012-07-08T10:55:30.000Z</time>
      </trkpt>
      <trkpt lon="-2.9959926605224600" lat="43.2719688415526988">
        <ele>29.0</ele>
        <time>2012-07-08T10:55:32.000Z</time>
      </trkpt>
      <trkpt lon="-2.9961209297180198" lat="43.2717857360839986">
        <ele>30.0</ele>
        <time>2012-07-08T10:55:35.000Z</time>
      </trkpt>
      <trkpt lon="-2.9961612224578902" lat="43.2716445922851989">
        <ele>31.0</ele>
        <time>2012-07-08T10:55:38.000Z</time>
      </trkpt>
      <trkpt lon="-2.9961752891540501" lat="43.2715415954589986">
        <ele>32.0</ele>
        <time>2012-07-08T10:55:40.000Z</time>
      </trkpt>
      <trkpt lon="-2.9961872100830100" lat="43.2713928222655966">
        <ele>33.0</ele>
        <time>2012-07-08T10:55:44.000Z</time>
      </trkpt>
      <trkpt lon="-2.9961805343627899" lat="43.2712936401366974">
        <ele>34.0</ele>
        <time>2012-07-08T10:55:46.000Z</time>
      </trkpt>
      <trkpt lon="-2.9961404800414999" lat="43.2711486816405966">
        <ele>34.0</ele>
        <time>2012-07-08T10:55:49.000Z</time>
      </trkpt>
      <trkpt lon="-2.9960701465606698" lat="43.2710533142089986">
        <ele>33.0</ele>
        <time>2012-07-08T10:55:51.000Z</time>
      </trkpt>
      <trkpt lon="-2.9959716796875000" lat="43.2709045410155966">
        <ele>32.0</ele>
        <time>2012-07-08T10:55:54.000Z</time>
      </trkpt>
      <trkpt lon="-2.9959237575531001" lat="43.2708091735839986">
        <ele>31.0</ele>
        <time>2012-07-08T10:55:55.000Z</time>
      </trkpt>
      <trkpt lon="-2.9958679676055899" lat="43.2707099914550994">
        <ele>29.0</ele>
        <time>2012-07-08T10:55:57.000Z</time>
      </trkpt>
      <trkpt lon="-2.9958271980285600" lat="43.2706222534179972">
        <ele>28.0</ele>
        <time>2012-07-08T10:55:59.000Z</time>
      </trkpt>
      <trkpt lon="-2.9957675933837900" lat="43.2704734802246023">
        <ele>26.0</ele>
        <time>2012-07-08T10:56:02.000Z</time>
      </trkpt>
      <trkpt lon="-2.9957633018493701" lat="43.2703742980957031">
        <ele>26.0</ele>
        <time>2012-07-08T10:56:05.000Z</time>
      </trkpt>
      <trkpt lon="-2.9957845211029102" lat="43.2702369689940980">
        <ele>25.0</ele>
        <time>2012-07-08T10:56:07.000Z</time>
      </trkpt>
      <trkpt lon="-2.9959003925323500" lat="43.2698822021484020">
        <ele>26.0</ele>
        <time>2012-07-08T10:56:14.000Z</time>
      </trkpt>
      <trkpt lon="-2.9960107803344700" lat="43.2697448730469034">
        <ele>27.0</ele>
        <time>2012-07-08T10:56:17.000Z</time>
      </trkpt>
      <trkpt lon="-2.9961538314819300" lat="43.2696151733398011">
        <ele>28.0</ele>
        <time>2012-07-08T10:56:21.000Z</time>
      </trkpt>
      <trkpt lon="-2.9962630271911599" lat="43.2695388793945028">
        <ele>29.0</ele>
        <time>2012-07-08T10:56:22.000Z</time>
      </trkpt>
      <trkpt lon="-2.9964463710784899" lat="43.2694435119628977">
        <ele>31.0</ele>
        <time>2012-07-08T10:56:25.000Z</time>
      </trkpt>
      <trkpt lon="-2.9965701103210400" lat="43.2693862915038991">
        <ele>32.0</ele>
        <time>2012-07-08T10:56:27.000Z</time>
      </trkpt>
      <trkpt lon="-2.9967598915100102" lat="43.2693214416503977">
        <ele>34.0</ele>
        <time>2012-07-08T10:56:30.000Z</time>
      </trkpt>
      <trkpt lon="-2.9968836307525599" lat="43.2692871093750000">
        <ele>35.0</ele>
        <time>2012-07-08T10:56:32.000Z</time>
      </trkpt>
      <trkpt lon="-2.9970288276672399" lat="43.2692489624023011">
        <ele>36.0</ele>
        <time>2012-07-08T10:56:34.000Z</time>
      </trkpt>
      <trkpt lon="-2.9972531795501700" lat="43.2692031860351989">
        <ele>37.0</ele>
        <time>2012-07-08T10:56:38.000Z</time>
      </trkpt>
      <trkpt lon="-2.9974811077117902" lat="43.2691574096679972">
        <ele>38.0</ele>
        <time>2012-07-08T10:56:40.000Z</time>
      </trkpt>
      <trkpt lon="-2.9976353645324698" lat="43.2691421508788991">
        <ele>40.0</ele>
        <time>2012-07-08T10:56:43.000Z</time>
      </trkpt>
      <trkpt lon="-2.9978544712066602" lat="43.2691459655762003">
        <ele>41.0</ele>
        <time>2012-07-08T10:56:45.000Z</time>
      </trkpt>
      <trkpt lon="-2.9980876445770299" lat="43.2691688537598012">
        <ele>44.0</ele>
        <time>2012-07-08T10:56:48.000Z</time>
      </trkpt>
      <trkpt lon="-2.9982240200042698" lat="43.2692108154297017">
        <ele>46.0</ele>
        <time>2012-07-08T10:56:51.000Z</time>
      </trkpt>
      <trkpt lon="-2.9984304904937700" lat="43.2692794799804972">
        <ele>49.0</ele>
        <time>2012-07-08T10:56:53.000Z</time>
      </trkpt>
      <trkpt lon="-2.9985678195953400" lat="43.2693328857422017">
        <ele>52.0</ele>
        <time>2012-07-08T10:56:56.000Z</time>
      </trkpt>
      <trkpt lon="-2.9987056255340598" lat="43.2693862915038991">
        <ele>54.0</ele>
        <time>2012-07-08T10:56:58.000Z</time>
      </trkpt>
      <trkpt lon="-2.9988775253295898" lat="43.2694511413574006">
        <ele>56.0</ele>
        <time>2012-07-08T10:57:00.000Z</time>
      </trkpt>
      <trkpt lon="-2.9990782737731898" lat="43.2695083618163991">
        <ele>57.0</ele>
        <time>2012-07-08T10:57:04.000Z</time>
      </trkpt>
      <trkpt lon="-2.9992642402648899" lat="43.2695426940917969">
        <ele>58.0</ele>
        <time>2012-07-08T10:57:07.000Z</time>
      </trkpt>
      <trkpt lon="-2.9993758201599099" lat="43.2695541381836009">
        <ele>59.0</ele>
        <time>2012-07-08T10:57:08.000Z</time>
      </trkpt>
      <trkpt lon="-2.9999351501464799" lat="43.2695388793945028">
        <ele>58.0</ele>
        <time>2012-07-08T10:57:16.000Z</time>
      </trkpt>
      <trkpt lon="-3.0001189708709699" lat="43.2694702148437003">
        <ele>57.0</ele>
        <time>2012-07-08T10:57:20.000Z</time>
      </trkpt>
      <trkpt lon="-3.0002393722534202" lat="43.2694129943848012">
        <ele>55.0</ele>
        <time>2012-07-08T10:57:21.000Z</time>
      </trkpt>
      <trkpt lon="-3.0004069805145299" lat="43.2693443298339986">
        <ele>53.0</ele>
        <time>2012-07-08T10:57:24.000Z</time>
      </trkpt>
      <trkpt lon="-3.0005011558532702" lat="43.2693023681640980">
        <ele>52.0</ele>
        <time>2012-07-08T10:57:26.000Z</time>
      </trkpt>
      <trkpt lon="-3.0005974769592298" lat="43.2692413330077983">
        <ele>50.0</ele>
        <time>2012-07-08T10:57:29.000Z</time>
      </trkpt>
      <trkpt lon="-3.0006442070007302" lat="43.2692108154297017">
        <ele>49.0</ele>
        <time>2012-07-08T10:57:33.000Z</time>
      </trkpt>
      <trkpt lon="-3.0006442070007302" lat="43.2692108154297017">
        <ele>49.0</ele>
        <time>2012-07-08T10:57:43.000Z</time>
      </trkpt>
      <trkpt lon="-3.0006964206695601" lat="43.2692260742187003">
        <ele>48.0</ele>
        <time>2012-07-08T10:57:59.000Z</time>
      </trkpt>
      <trkpt lon="-3.0007359981536901" lat="43.2691993713378977">
        <ele>47.0</ele>
        <time>2012-07-08T10:58:01.000Z</time>
      </trkpt>
      <trkpt lon="-3.0009429454803498" lat="43.2690315246582031">
        <ele>46.0</ele>
        <time>2012-07-08T10:58:06.000Z</time>
      </trkpt>
      <trkpt lon="-3.0010557174682599" lat="43.2689132690429972">
        <ele>47.0</ele>
        <time>2012-07-08T10:58:10.000Z</time>
      </trkpt>
      <trkpt lon="-3.0015089511871298" lat="43.2685203552246023">
        <ele>46.0</ele>
        <time>2012-07-08T10:58:19.000Z</time>
      </trkpt>
      <trkpt lon="-3.0016686916351301" lat="43.2683982849121023">
        <ele>45.0</ele>
        <time>2012-07-08T10:58:22.000Z</time>
      </trkpt>
      <trkpt lon="-3.0018346309661901" lat="43.2682647705077983">
        <ele>44.0</ele>
        <time>2012-07-08T10:58:25.000Z</time>
      </trkpt>
      <trkpt lon="-3.0019752979278600" lat="43.2681388854979971">
        <ele>42.0</ele>
        <time>2012-07-08T10:58:27.000Z</time>
      </trkpt>
      <trkpt lon="-3.0020694732665998" lat="43.2680473327637003">
        <ele>41.0</ele>
        <time>2012-07-08T10:58:29.000Z</time>
      </trkpt>
      <trkpt lon="-3.0021722316741899" lat="43.2679481506348012">
        <ele>39.0</ele>
        <time>2012-07-08T10:58:31.000Z</time>
      </trkpt>
      <trkpt lon="-3.0023267269134499" lat="43.2678146362304972">
        <ele>38.0</ele>
        <time>2012-07-08T10:58:34.000Z</time>
      </trkpt>
      <trkpt lon="-3.0028076171875000" lat="43.2674140930175994">
        <ele>39.0</ele>
        <time>2012-07-08T10:58:43.000Z</time>
      </trkpt>
      <trkpt lon="-3.0029752254486102" lat="43.2672805786133026">
        <ele>40.0</ele>
        <time>2012-07-08T10:58:46.000Z</time>
      </trkpt>
      <trkpt lon="-3.0030868053436302" lat="43.2671966552734020">
        <ele>41.0</ele>
        <time>2012-07-08T10:58:48.000Z</time>
      </trkpt>
      <trkpt lon="-3.0034720897674601" lat="43.2669754028320028">
        <ele>42.0</ele>
        <time>2012-07-08T10:58:54.000Z</time>
      </trkpt>
      <trkpt lon="-3.0036900043487500" lat="43.2669067382812003">
        <ele>43.0</ele>
        <time>2012-07-08T10:58:58.000Z</time>
      </trkpt>
      <trkpt lon="-3.0039331912994398" lat="43.2668685913086009">
        <ele>43.0</ele>
        <time>2012-07-08T10:59:01.000Z</time>
      </trkpt>
      <trkpt lon="-3.0043256282806401" lat="43.2668151855469034">
        <ele>44.0</ele>
        <time>2012-07-08T10:59:05.000Z</time>
      </trkpt>
      <trkpt lon="-3.0047214031219500" lat="43.2666969299315980">
        <ele>44.0</ele>
        <time>2012-07-08T10:59:11.000Z</time>
      </trkpt>
      <trkpt lon="-3.0048594474792498" lat="43.2666435241699006">
        <ele>43.0</ele>
        <time>2012-07-08T10:59:13.000Z</time>
      </trkpt>
      <trkpt lon="-3.0054647922515900" lat="43.2663955688476989">
        <ele>45.0</ele>
        <time>2012-07-08T10:59:22.000Z</time>
      </trkpt>
      <trkpt lon="-3.0056948661804199" lat="43.2663421630859020">
        <ele>47.0</ele>
        <time>2012-07-08T10:59:25.000Z</time>
      </trkpt>
      <trkpt lon="-3.0058898925781201" lat="43.2663078308104971">
        <ele>49.0</ele>
        <time>2012-07-08T10:59:28.000Z</time>
      </trkpt>
      <trkpt lon="-3.0060386657714799" lat="43.2663002014160014">
        <ele>51.0</ele>
        <time>2012-07-08T10:59:31.000Z</time>
      </trkpt>
      <trkpt lon="-3.0062904357910201" lat="43.2663269042969034">
        <ele>53.0</ele>
        <time>2012-07-08T10:59:34.000Z</time>
      </trkpt>
      <trkpt lon="-3.0064427852630602" lat="43.2663459777832031">
        <ele>54.0</ele>
        <time>2012-07-08T10:59:36.000Z</time>
      </trkpt>
      <trkpt lon="-3.0065948963165301" lat="43.2663688659667969">
        <ele>55.0</ele>
        <time>2012-07-08T10:59:38.000Z</time>
      </trkpt>
      <trkpt lon="-3.0068318843841602" lat="43.2663993835449006">
        <ele>56.0</ele>
        <time>2012-07-08T10:59:41.000Z</time>
      </trkpt>
      <trkpt lon="-3.0069887638092001" lat="43.2664108276366974">
        <ele>57.0</ele>
        <time>2012-07-08T10:59:43.000Z</time>
      </trkpt>
      <trkpt lon="-3.0071408748626700" lat="43.2664413452148011">
        <ele>58.0</ele>
        <time>2012-07-08T10:59:44.000Z</time>
      </trkpt>
      <trkpt lon="-3.0078699588775599" lat="43.2665138244628977">
        <ele>59.0</ele>
        <time>2012-07-08T10:59:55.000Z</time>
      </trkpt>
      <trkpt lon="-3.0080151557922399" lat="43.2664947509765980">
        <ele>61.0</ele>
        <time>2012-07-08T10:59:57.000Z</time>
      </trkpt>
      <trkpt lon="-3.0081627368927002" lat="43.2664642333984020">
        <ele>62.0</ele>
        <time>2012-07-08T10:59:58.000Z</time>
      </trkpt>
      <trkpt lon="-3.0082964897155802" lat="43.2664260864258026">
        <ele>64.0</ele>
        <time>2012-07-08T11:00:00.000Z</time>
      </trkpt>
      <trkpt lon="-3.0084371566772501" lat="43.2663803100586009">
        <ele>65.0</ele>
        <time>2012-07-08T11:00:02.000Z</time>
      </trkpt>
      <trkpt lon="-3.0086519718170202" lat="43.2662963867187003">
        <ele>66.0</ele>
        <time>2012-07-08T11:00:05.000Z</time>
      </trkpt>
      <trkpt lon="-3.0087337493896502" lat="43.2662315368651988">
        <ele>66.0</ele>
        <time>2012-07-08T11:00:08.000Z</time>
      </trkpt>
      <trkpt lon="-3.0088412761688201" lat="43.2661209106445028">
        <ele>65.0</ele>
        <time>2012-07-08T11:00:11.000Z</time>
      </trkpt>
      <trkpt lon="-3.0089201927185099" lat="43.2660369873047017">
        <ele>64.0</ele>
        <time>2012-07-08T11:00:12.000Z</time>
      </trkpt>
      <trkpt lon="-3.0090429782867401" lat="43.2658996582030966">
        <ele>62.0</ele>
        <time>2012-07-08T11:00:16.000Z</time>
      </trkpt>
      <trkpt lon="-3.0091664791107200" lat="43.2657737731934020">
        <ele>59.0</ele>
        <time>2012-07-08T11:00:19.000Z</time>
      </trkpt>
      <trkpt lon="-3.0093245506286599" lat="43.2656517028809020">
        <ele>57.0</ele>
        <time>2012-07-08T11:00:21.000Z</time>
      </trkpt>
      <trkpt lon="-3.0094935894012398" lat="43.2655296325684020">
        <ele>55.0</ele>
        <time>2012-07-08T11:00:24.000Z</time>
      </trkpt>
      <trkpt lon="-3.0096001625061000" lat="43.2654647827148011">
        <ele>54.0</ele>
        <time>2012-07-08T11:00:26.000Z</time>
      </trkpt>
      <trkpt lon="-3.0098180770874001" lat="43.2653732299804972">
        <ele>55.0</ele>
        <time>2012-07-08T11:00:29.000Z</time>
      </trkpt>
      <trkpt lon="-3.0099637508392298" lat="43.2653350830077983">
        <ele>56.0</ele>
        <time>2012-07-08T11:00:31.000Z</time>
      </trkpt>
      <trkpt lon="-3.0101785659789999" lat="43.2652893066405966">
        <ele>57.0</ele>
        <time>2012-07-08T11:00:34.000Z</time>
      </trkpt>
      <trkpt lon="-3.0103290081024201" lat="43.2652587890625000">
        <ele>59.0</ele>
        <time>2012-07-08T11:00:37.000Z</time>
      </trkpt>
      <trkpt lon="-3.0105257034301798" lat="43.2651863098144034">
        <ele>60.0</ele>
        <time>2012-07-08T11:00:40.000Z</time>
      </trkpt>
      <trkpt lon="-3.0106434822082502" lat="43.2651290893554972">
        <ele>61.0</ele>
        <time>2012-07-08T11:00:42.000Z</time>
      </trkpt>
      <trkpt lon="-3.0108349323272701" lat="43.2650451660155966">
        <ele>62.0</ele>
        <time>2012-07-08T11:00:45.000Z</time>
      </trkpt>
      <trkpt lon="-3.0113677978515598" lat="43.2648124694824006">
        <ele>62.0</ele>
        <time>2012-07-08T11:00:52.000Z</time>
      </trkpt>
      <trkpt lon="-3.0116369724273699" lat="43.2646369934082031">
        <ele>62.0</ele>
        <time>2012-07-08T11:00:58.000Z</time>
      </trkpt>
      <trkpt lon="-3.0118823051452601" lat="43.2644500732422017">
        <ele>61.0</ele>
        <time>2012-07-08T11:01:02.000Z</time>
      </trkpt>
      <trkpt lon="-3.0120115280151398" lat="43.2643547058104971">
        <ele>59.0</ele>
        <time>2012-07-08T11:01:05.000Z</time>
      </trkpt>
      <trkpt lon="-3.0121314525604199" lat="43.2642860412598012">
        <ele>58.0</ele>
        <time>2012-07-08T11:01:07.000Z</time>
      </trkpt>
      <trkpt lon="-3.0123112201690700" lat="43.2641944885253977">
        <ele>57.0</ele>
        <time>2012-07-08T11:01:10.000Z</time>
      </trkpt>
      <trkpt lon="-3.0124289989471400" lat="43.2641372680663991">
        <ele>56.0</ele>
        <time>2012-07-08T11:01:12.000Z</time>
      </trkpt>
      <trkpt lon="-3.0129742622375502" lat="43.2639770507812003">
        <ele>56.0</ele>
        <time>2012-07-08T11:01:20.000Z</time>
      </trkpt>
      <trkpt lon="-3.0132105350494398" lat="43.2639427185059020">
        <ele>57.0</ele>
        <time>2012-07-08T11:01:24.000Z</time>
      </trkpt>
      <trkpt lon="-3.0135073661804199" lat="43.2639350891112997">
        <ele>58.0</ele>
        <time>2012-07-08T11:01:28.000Z</time>
      </trkpt>
      <trkpt lon="-3.0137338638305700" lat="43.2639465332030966">
        <ele>59.0</ele>
        <time>2012-07-08T11:01:30.000Z</time>
      </trkpt>
      <trkpt lon="-3.0141286849975599" lat="43.2639884948729971">
        <ele>60.0</ele>
        <time>2012-07-08T11:01:35.000Z</time>
      </trkpt>
      <trkpt lon="-3.0142815113067600" lat="43.2640228271484020">
        <ele>60.0</ele>
        <time>2012-07-08T11:01:38.000Z</time>
      </trkpt>
      <trkpt lon="-3.0145022869110099" lat="43.2640838623047017">
        <ele>59.0</ele>
        <time>2012-07-08T11:01:41.000Z</time>
      </trkpt>
      <trkpt lon="-3.0146965980529798" lat="43.2641563415526988">
        <ele>58.0</ele>
        <time>2012-07-08T11:01:43.000Z</time>
      </trkpt>
      <trkpt lon="-3.0148904323577899" lat="43.2642211914062003">
        <ele>57.0</ele>
        <time>2012-07-08T11:01:46.000Z</time>
      </trkpt>
      <trkpt lon="-3.0150053501129102" lat="43.2642745971679972">
        <ele>56.0</ele>
        <time>2012-07-08T11:01:48.000Z</time>
      </trkpt>
      <trkpt lon="-3.0151851177215598" lat="43.2643775939940980">
        <ele>55.0</ele>
        <time>2012-07-08T11:01:51.000Z</time>
      </trkpt>
      <trkpt lon="-3.0154659748077401" lat="43.2645645141601989">
        <ele>56.0</ele>
        <time>2012-07-08T11:01:56.000Z</time>
      </trkpt>
      <trkpt lon="-3.0156238079071001" lat="43.2646751403809020">
        <ele>57.0</ele>
        <time>2012-07-08T11:01:59.000Z</time>
      </trkpt>
      <trkpt lon="-3.0157384872436501" lat="43.2647476196288991">
        <ele>59.0</ele>
        <time>2012-07-08T11:02:01.000Z</time>
      </trkpt>
      <trkpt lon="-3.0158517360687300" lat="43.2648239135741974">
        <ele>60.0</ele>
        <time>2012-07-08T11:02:04.000Z</time>
      </trkpt>
      <trkpt lon="-3.0159633159637398" lat="43.2648963928223012">
        <ele>62.0</ele>
        <time>2012-07-08T11:02:05.000Z</time>
      </trkpt>
      <trkpt lon="-3.0161373615264901" lat="43.2649803161621023">
        <ele>63.0</ele>
        <time>2012-07-08T11:02:08.000Z</time>
      </trkpt>
      <trkpt lon="-3.0162951946258501" lat="43.2650337219237997">
        <ele>64.0</ele>
        <time>2012-07-08T11:02:11.000Z</time>
      </trkpt>
      <trkpt lon="-3.0165152549743701" lat="43.2650718688964986">
        <ele>65.0</ele>
        <time>2012-07-08T11:02:13.000Z</time>
      </trkpt>
      <trkpt lon="-3.0167176723480198" lat="43.2650909423827983">
        <ele>66.0</ele>
        <time>2012-07-08T11:02:16.000Z</time>
      </trkpt>
      <trkpt lon="-3.0174553394317600" lat="43.2651977539062003">
        <ele>67.0</ele>
        <time>2012-07-08T11:02:26.000Z</time>
      </trkpt>
      <trkpt lon="-3.0176544189453098" lat="43.2651977539062003">
        <ele>68.0</ele>
        <time>2012-07-08T11:02:30.000Z</time>
      </trkpt>
      <trkpt lon="-3.0177946090698202" lat="43.2651901245116974">
        <ele>69.0</ele>
        <time>2012-07-08T11:02:31.000Z</time>
      </trkpt>
      <trkpt lon="-3.0182075500488299" lat="43.2651634216309020">
        <ele>68.0</ele>
        <time>2012-07-08T11:02:37.000Z</time>
      </trkpt>
      <trkpt lon="-3.0185756683349600" lat="43.2650947570800994">
        <ele>67.0</ele>
        <time>2012-07-08T11:02:43.000Z</time>
      </trkpt>
      <trkpt lon="-3.0187740325927699" lat="43.2650222778320028">
        <ele>66.0</ele>
        <time>2012-07-08T11:02:46.000Z</time>
      </trkpt>
      <trkpt lon="-3.0191333293914799" lat="43.2648429870604971">
        <ele>65.0</ele>
        <time>2012-07-08T11:02:53.000Z</time>
      </trkpt>
      <trkpt lon="-3.0192790031433101" lat="43.2647628784179972">
        <ele>66.0</ele>
        <time>2012-07-08T11:02:55.000Z</time>
      </trkpt>
      <trkpt lon="-3.0194544792175302" lat="43.2646369934082031">
        <ele>67.0</ele>
        <time>2012-07-08T11:03:00.000Z</time>
      </trkpt>
      <trkpt lon="-3.0195691585540798" lat="43.2644996643065980">
        <ele>68.0</ele>
        <time>2012-07-08T11:03:03.000Z</time>
      </trkpt>
      <trkpt lon="-3.0196228027343701" lat="43.2644271850586009">
        <ele>70.0</ele>
        <time>2012-07-08T11:03:04.000Z</time>
      </trkpt>
      <trkpt lon="-3.0197339057922399" lat="43.2642555236815980">
        <ele>71.0</ele>
        <time>2012-07-08T11:03:08.000Z</time>
      </trkpt>
      <trkpt lon="-3.0197758674621600" lat="43.2641639709473012">
        <ele>71.0</ele>
        <time>2012-07-08T11:03:11.000Z</time>
      </trkpt>
      <trkpt lon="-3.0199401378631601" lat="43.2639007568359020">
        <ele>70.0</ele>
        <time>2012-07-08T11:03:16.000Z</time>
      </trkpt>
      <trkpt lon="-3.0200104713439901" lat="43.2638168334961009">
        <ele>70.0</ele>
        <time>2012-07-08T11:03:19.000Z</time>
      </trkpt>
      <trkpt lon="-3.0200879573821999" lat="43.2636795043945028">
        <ele>70.0</ele>
        <time>2012-07-08T11:03:22.000Z</time>
      </trkpt>
      <trkpt lon="-3.0201585292816202" lat="43.2635879516601989">
        <ele>69.0</ele>
        <time>2012-07-08T11:03:23.000Z</time>
      </trkpt>
      <trkpt lon="-3.0203680992126500" lat="43.2633018493651988">
        <ele>68.0</ele>
        <time>2012-07-08T11:03:30.000Z</time>
      </trkpt>
      <trkpt lon="-3.0205039978027299" lat="43.2631797790526988">
        <ele>68.0</ele>
        <time>2012-07-08T11:03:33.000Z</time>
      </trkpt>
      <trkpt lon="-3.0206775665283199" lat="43.2630882263184020">
        <ele>69.0</ele>
        <time>2012-07-08T11:03:36.000Z</time>
      </trkpt>
      <trkpt lon="-3.0208513736724898" lat="43.2630157470702983">
        <ele>70.0</ele>
        <time>2012-07-08T11:03:39.000Z</time>
      </trkpt>
      <trkpt lon="-3.0209698677063002" lat="43.2629852294922017">
        <ele>70.0</ele>
        <time>2012-07-08T11:03:42.000Z</time>
      </trkpt>
      <trkpt lon="-3.0211687088012700" lat="43.2629241943359020">
        <ele>71.0</ele>
        <time>2012-07-08T11:03:44.000Z</time>
      </trkpt>
      <trkpt lon="-3.0214908123016402" lat="43.2628631591797017">
        <ele>71.0</ele>
        <time>2012-07-08T11:03:50.000Z</time>
      </trkpt>
      <trkpt lon="-3.0217001438140900" lat="43.2628517150878977">
        <ele>71.0</ele>
        <time>2012-07-08T11:03:52.000Z</time>
      </trkpt>
      <trkpt lon="-3.0218453407287602" lat="43.2628593444824006">
        <ele>70.0</ele>
        <time>2012-07-08T11:03:54.000Z</time>
      </trkpt>
      <trkpt lon="-3.0220386981964098" lat="43.2628860473633026">
        <ele>71.0</ele>
        <time>2012-07-08T11:03:57.000Z</time>
      </trkpt>
      <trkpt lon="-3.0222997665405300" lat="43.2629318237304972">
        <ele>72.0</ele>
        <time>2012-07-08T11:04:02.000Z</time>
      </trkpt>
      <trkpt lon="-3.0224919319152801" lat="43.2629699707030966">
        <ele>73.0</ele>
        <time>2012-07-08T11:04:04.000Z</time>
      </trkpt>
      <trkpt lon="-3.0226557254791300" lat="43.2630157470702983">
        <ele>74.0</ele>
        <time>2012-07-08T11:04:07.000Z</time>
      </trkpt>
      <trkpt lon="-3.0227503776550302" lat="43.2630577087401988">
        <ele>75.0</ele>
        <time>2012-07-08T11:04:09.000Z</time>
      </trkpt>
      <trkpt lon="-3.0229012966156001" lat="43.2631454467773011">
        <ele>76.0</ele>
        <time>2012-07-08T11:04:13.000Z</time>
      </trkpt>
      <trkpt lon="-3.0230145454406698" lat="43.2632369995116974">
        <ele>77.0</ele>
        <time>2012-07-08T11:04:15.000Z</time>
      </trkpt>
      <trkpt lon="-3.0230967998504599" lat="43.2632942199707031">
        <ele>79.0</ele>
        <time>2012-07-08T11:04:17.000Z</time>
      </trkpt>
      <trkpt lon="-3.0232243537902801" lat="43.2634010314940980">
        <ele>80.0</ele>
        <time>2012-07-08T11:04:20.000Z</time>
      </trkpt>
      <trkpt lon="-3.0233604907989502" lat="43.2635078430175994">
        <ele>82.0</ele>
        <time>2012-07-08T11:04:23.000Z</time>
      </trkpt>
      <trkpt lon="-3.0234405994415301" lat="43.2635612487792969">
        <ele>84.0</ele>
        <time>2012-07-08T11:04:26.000Z</time>
      </trkpt>
      <trkpt lon="-3.0235800743103001" lat="43.2636375427246023">
        <ele>85.0</ele>
        <time>2012-07-08T11:04:29.000Z</time>
      </trkpt>
      <trkpt lon="-3.0237443447113002" lat="43.2637100219726989">
        <ele>87.0</ele>
        <time>2012-07-08T11:04:31.000Z</time>
      </trkpt>
      <trkpt lon="-3.0238533020019500" lat="43.2637557983398011">
        <ele>88.0</ele>
        <time>2012-07-08T11:04:33.000Z</time>
      </trkpt>
      <trkpt lon="-3.0240089893341100" lat="43.2638092041015980">
        <ele>89.0</ele>
        <time>2012-07-08T11:04:36.000Z</time>
      </trkpt>
      <trkpt lon="-3.0241229534149201" lat="43.2638702392577983">
        <ele>89.0</ele>
        <time>2012-07-08T11:04:39.000Z</time>
      </trkpt>
      <trkpt lon="-3.0241658687591602" lat="43.2639083862304972">
        <ele>90.0</ele>
        <time>2012-07-08T11:04:41.000Z</time>
      </trkpt>
      <trkpt lon="-3.0242044925689702" lat="43.2639579772949006">
        <ele>90.0</ele>
        <time>2012-07-08T11:04:44.000Z</time>
      </trkpt>
      <trkpt lon="-3.0242483615875200" lat="43.2639923095702983">
        <ele>91.0</ele>
        <time>2012-07-08T11:04:47.000Z</time>
      </trkpt>
      <trkpt lon="-3.0242908000946001" lat="43.2640037536621023">
        <ele>93.0</ele>
        <time>2012-07-08T11:04:49.000Z</time>
      </trkpt>
      <trkpt lon="-3.0243506431579599" lat="43.2640151977538991">
        <ele>94.0</ele>
        <time>2012-07-08T11:04:52.000Z</time>
      </trkpt>
      <trkpt lon="-3.0243909358978298" lat="43.2640228271484020">
        <ele>95.0</ele>
        <time>2012-07-08T11:04:55.000Z</time>
      </trkpt>
      <trkpt lon="-3.0245256423950200" lat="43.2640495300292969">
        <ele>96.0</ele>
        <time>2012-07-08T11:05:00.000Z</time>
      </trkpt>
      <trkpt lon="-3.0246338844299299" lat="43.2640686035155966">
        <ele>97.0</ele>
        <time>2012-07-08T11:05:06.000Z</time>
      </trkpt>
      <trkpt lon="-3.0248324871063201" lat="43.2640838623047017">
        <ele>98.0</ele>
        <time>2012-07-08T11:05:15.000Z</time>
      </trkpt>
      <trkpt lon="-3.0248863697052002" lat="43.2640953063964986">
        <ele>98.0</ele>
        <time>2012-07-08T11:05:17.000Z</time>
      </trkpt>
      <trkpt lon="-3.0249276161193799" lat="43.2640953063964986">
        <ele>98.0</ele>
        <time>2012-07-08T11:05:19.000Z</time>
      </trkpt>
      <trkpt lon="-3.0249767303466801" lat="43.2641029357910014">
        <ele>98.0</ele>
        <time>2012-07-08T11:05:22.000Z</time>
      </trkpt>
      <trkpt lon="-3.0250909328460698" lat="43.2641029357910014">
        <ele>98.0</ele>
        <time>2012-07-08T11:05:27.000Z</time>
      </trkpt>
      <trkpt lon="-3.0251791477203400" lat="43.2640953063964986">
        <ele>97.0</ele>
        <time>2012-07-08T11:05:31.000Z</time>
      </trkpt>
      <trkpt lon="-3.0252833366393999" lat="43.2640800476074006">
        <ele>96.0</ele>
        <time>2012-07-08T11:05:37.000Z</time>
      </trkpt>
      <trkpt lon="-3.0253021717071502" lat="43.2640724182128977">
        <ele>96.0</ele>
        <time>2012-07-08T11:05:41.000Z</time>
      </trkpt>
      <trkpt lon="-3.0253188610076900" lat="43.2640762329101989">
        <ele>95.0</ele>
        <time>2012-07-08T11:05:43.000Z</time>
      </trkpt>
      <trkpt lon="-3.0253465175628702" lat="43.2640914916991974">
        <ele>95.0</ele>
        <time>2012-07-08T11:05:46.000Z</time>
      </trkpt>
      <trkpt lon="-3.0253562927246098" lat="43.2640991210937003">
        <ele>95.0</ele>
        <time>2012-07-08T11:05:48.000Z</time>
      </trkpt>
      <trkpt lon="-3.0253741741180402" lat="43.2640991210937003">
        <ele>94.0</ele>
        <time>2012-07-08T11:05:51.000Z</time>
      </trkpt>
      <trkpt lon="-3.0254068374633798" lat="43.2640914916991974">
        <ele>94.0</ele>
        <time>2012-07-08T11:05:55.000Z</time>
      </trkpt>
      <trkpt lon="-3.0254199504852299" lat="43.2640914916991974">
        <ele>94.0</ele>
        <time>2012-07-08T11:06:01.000Z</time>
      </trkpt>
      <trkpt lon="-3.0254502296447798" lat="43.2640991210937003">
        <ele>94.0</ele>
        <time>2012-07-08T11:06:03.000Z</time>
      </trkpt>
      <trkpt lon="-3.0255692005157502" lat="43.2641754150390980">
        <ele>94.0</ele>
        <time>2012-07-08T11:06:09.000Z</time>
      </trkpt>
      <trkpt lon="-3.0255870819091801" lat="43.2642135620116974">
        <ele>94.0</ele>
        <time>2012-07-08T11:06:11.000Z</time>
      </trkpt>
      <trkpt lon="-3.0256128311157200" lat="43.2642707824707031">
        <ele>95.0</ele>
        <time>2012-07-08T11:06:15.000Z</time>
      </trkpt>
      <trkpt lon="-3.0256280899047798" lat="43.2643089294434020">
        <ele>96.0</ele>
        <time>2012-07-08T11:06:17.000Z</time>
      </trkpt>
      <trkpt lon="-3.0256552696228001" lat="43.2643508911133026">
        <ele>97.0</ele>
        <time>2012-07-08T11:06:20.000Z</time>
      </trkpt>
      <trkpt lon="-3.0256848335266100" lat="43.2643890380859020">
        <ele>99.0</ele>
        <time>2012-07-08T11:06:21.000Z</time>
      </trkpt>
      <trkpt lon="-3.0257241725921600" lat="43.2644157409667969">
        <ele>100.0</ele>
        <time>2012-07-08T11:06:23.000Z</time>
      </trkpt>
      <trkpt lon="-3.0257854461669900" lat="43.2644805908202983">
        <ele>101.0</ele>
        <time>2012-07-08T11:06:26.000Z</time>
      </trkpt>
      <trkpt lon="-3.0258517265319802" lat="43.2645339965820028">
        <ele>103.0</ele>
        <time>2012-07-08T11:06:29.000Z</time>
      </trkpt>
      <trkpt lon="-3.0258977413177499" lat="43.2645835876464986">
        <ele>104.0</ele>
        <time>2012-07-08T11:06:31.000Z</time>
      </trkpt>
      <trkpt lon="-3.0259561538696298" lat="43.2646560668945028">
        <ele>106.0</ele>
        <time>2012-07-08T11:06:33.000Z</time>
      </trkpt>
      <trkpt lon="-3.0260531902313201" lat="43.2647666931151988">
        <ele>107.0</ele>
        <time>2012-07-08T11:06:36.000Z</time>
      </trkpt>
      <trkpt lon="-3.0261206626892099" lat="43.2648239135741974">
        <ele>109.0</ele>
        <time>2012-07-08T11:06:39.000Z</time>
      </trkpt>
      <trkpt lon="-3.0261771678924601" lat="43.2648544311523011">
        <ele>110.0</ele>
        <time>2012-07-08T11:06:40.000Z</time>
      </trkpt>
      <trkpt lon="-3.0262551307678200" lat="43.2649116516112997">
        <ele>111.0</ele>
        <time>2012-07-08T11:06:44.000Z</time>
      </trkpt>
      <trkpt lon="-3.0263302326202401" lat="43.2650070190429972">
        <ele>111.0</ele>
        <time>2012-07-08T11:06:46.000Z</time>
      </trkpt>
      <trkpt lon="-3.0263915061950701" lat="43.2651138305663991">
        <ele>112.0</ele>
        <time>2012-07-08T11:06:49.000Z</time>
      </trkpt>
      <trkpt lon="-3.0264332294464098" lat="43.2651748657226989">
        <ele>113.0</ele>
        <time>2012-07-08T11:06:52.000Z</time>
      </trkpt>
      <trkpt lon="-3.0265307426452601" lat="43.2652320861815980">
        <ele>114.0</ele>
        <time>2012-07-08T11:06:54.000Z</time>
      </trkpt>
      <trkpt lon="-3.0266487598419198" lat="43.2652359008788991">
        <ele>114.0</ele>
        <time>2012-07-08T11:06:57.000Z</time>
      </trkpt>
      <trkpt lon="-3.0267670154571502" lat="43.2652244567871023">
        <ele>114.0</ele>
        <time>2012-07-08T11:06:59.000Z</time>
      </trkpt>
      <trkpt lon="-3.0273563861846902" lat="43.2651748657226989">
        <ele>115.0</ele>
        <time>2012-07-08T11:07:10.000Z</time>
      </trkpt>
      <trkpt lon="-3.0275146961212198" lat="43.2651824951172017">
        <ele>116.0</ele>
        <time>2012-07-08T11:07:13.000Z</time>
      </trkpt>
      <trkpt lon="-3.0276467800140399" lat="43.2651748657226989">
        <ele>118.0</ele>
        <time>2012-07-08T11:07:16.000Z</time>
      </trkpt>
      <trkpt lon="-3.0277700424194300" lat="43.2651443481445028">
        <ele>119.0</ele>
        <time>2012-07-08T11:07:18.000Z</time>
      </trkpt>
      <trkpt lon="-3.0279386043548602" lat="43.2650985717773011">
        <ele>121.0</ele>
        <time>2012-07-08T11:07:21.000Z</time>
      </trkpt>
      <trkpt lon="-3.0280578136444101" lat="43.2650756835937003">
        <ele>122.0</ele>
        <time>2012-07-08T11:07:22.000Z</time>
      </trkpt>
      <trkpt lon="-3.0281589031219500" lat="43.2650680541991974">
        <ele>122.0</ele>
        <time>2012-07-08T11:07:24.000Z</time>
      </trkpt>
      <trkpt lon="-3.0282831192016602" lat="43.2650871276854971">
        <ele>123.0</ele>
        <time>2012-07-08T11:07:27.000Z</time>
      </trkpt>
      <trkpt lon="-3.0283753871917698" lat="43.2650947570800994">
        <ele>125.0</ele>
        <time>2012-07-08T11:07:30.000Z</time>
      </trkpt>
      <trkpt lon="-3.0284504890441899" lat="43.2650947570800994">
        <ele>126.0</ele>
        <time>2012-07-08T11:07:33.000Z</time>
      </trkpt>
      <trkpt lon="-3.0285625457763699" lat="43.2651100158690980">
        <ele>128.0</ele>
        <time>2012-07-08T11:07:35.000Z</time>
      </trkpt>
      <trkpt lon="-3.0286126136779798" lat="43.2651176452637003">
        <ele>129.0</ele>
        <time>2012-07-08T11:07:38.000Z</time>
      </trkpt>
      <trkpt lon="-3.0286741256713898" lat="43.2651519775390980">
        <ele>131.0</ele>
        <time>2012-07-08T11:07:41.000Z</time>
      </trkpt>
      <trkpt lon="-3.0287296772003200" lat="43.2651901245116974">
        <ele>132.0</ele>
        <time>2012-07-08T11:07:44.000Z</time>
      </trkpt>
      <trkpt lon="-3.0287725925445601" lat="43.2652511596679972">
        <ele>133.0</ele>
        <time>2012-07-08T11:07:46.000Z</time>
      </trkpt>
      <trkpt lon="-3.0287897586822501" lat="43.2652893066405966">
        <ele>135.0</ele>
        <time>2012-07-08T11:07:48.000Z</time>
      </trkpt>
      <trkpt lon="-3.0288105010986301" lat="43.2653350830077983">
        <ele>136.0</ele>
        <time>2012-07-08T11:07:51.000Z</time>
      </trkpt>
      <trkpt lon="-3.0288305282592800" lat="43.2653656005859020">
        <ele>137.0</ele>
        <time>2012-07-08T11:07:54.000Z</time>
      </trkpt>
      <trkpt lon="-3.0288441181182901" lat="43.2653999328612997">
        <ele>138.0</ele>
        <time>2012-07-08T11:07:55.000Z</time>
      </trkpt>
      <trkpt lon="-3.0288674831390399" lat="43.2654304504394034">
        <ele>139.0</ele>
        <time>2012-07-08T11:07:57.000Z</time>
      </trkpt>
      <trkpt lon="-3.0289356708526598" lat="43.2655220031737997">
        <ele>140.0</ele>
        <time>2012-07-08T11:08:03.000Z</time>
      </trkpt>
      <trkpt lon="-3.0289766788482702" lat="43.2655487060547017">
        <ele>141.0</ele>
        <time>2012-07-08T11:08:05.000Z</time>
      </trkpt>
      <trkpt lon="-3.0290575027465798" lat="43.2655868530273011">
        <ele>141.0</ele>
        <time>2012-07-08T11:08:10.000Z</time>
      </trkpt>
      <trkpt lon="-3.0291047096252401" lat="43.2655982971190980">
        <ele>141.0</ele>
        <time>2012-07-08T11:08:13.000Z</time>
      </trkpt>
      <trkpt lon="-3.0291473865509002" lat="43.2656173706054972">
        <ele>141.0</ele>
        <time>2012-07-08T11:08:16.000Z</time>
      </trkpt>
      <trkpt lon="-3.0292172431945801" lat="43.2656211853026988">
        <ele>141.0</ele>
        <time>2012-07-08T11:08:18.000Z</time>
      </trkpt>
      <trkpt lon="-3.0292556285858199" lat="43.2656402587890980">
        <ele>141.0</ele>
        <time>2012-07-08T11:08:21.000Z</time>
      </trkpt>
      <trkpt lon="-3.0293905735015900" lat="43.2657318115234020">
        <ele>142.0</ele>
        <time>2012-07-08T11:08:29.000Z</time>
      </trkpt>
      <trkpt lon="-3.0295059680938698" lat="43.2658309936523011">
        <ele>142.0</ele>
        <time>2012-07-08T11:08:37.000Z</time>
      </trkpt>
      <trkpt lon="-3.0295557975768999" lat="43.2658615112304972">
        <ele>142.0</ele>
        <time>2012-07-08T11:08:39.000Z</time>
      </trkpt>
      <trkpt lon="-3.0296041965484601" lat="43.2658843994140980">
        <ele>142.0</ele>
        <time>2012-07-08T11:08:43.000Z</time>
      </trkpt>
      <trkpt lon="-3.0296583175659202" lat="43.2658920288086009">
        <ele>142.0</ele>
        <time>2012-07-08T11:08:45.000Z</time>
      </trkpt>
      <trkpt lon="-3.0297219753265399" lat="43.2658996582030966">
        <ele>143.0</ele>
        <time>2012-07-08T11:08:48.000Z</time>
      </trkpt>
      <trkpt lon="-3.0297667980194101" lat="43.2658920288086009">
        <ele>143.0</ele>
        <time>2012-07-08T11:08:51.000Z</time>
      </trkpt>
      <trkpt lon="-3.0298144817352299" lat="43.2658996582030966">
        <ele>143.0</ele>
        <time>2012-07-08T11:08:55.000Z</time>
      </trkpt>
      <trkpt lon="-3.0298535823821999" lat="43.2658920288086009">
        <ele>143.0</ele>
        <time>2012-07-08T11:08:57.000Z</time>
      </trkpt>
      <trkpt lon="-3.0299994945526101" lat="43.2658500671387003">
        <ele>142.0</ele>
        <time>2012-07-08T11:09:05.000Z</time>
      </trkpt>
      <trkpt lon="-3.0300993919372599" lat="43.2658500671387003">
        <ele>142.0</ele>
        <time>2012-07-08T11:09:09.000Z</time>
      </trkpt>
      <trkpt lon="-3.0301342010497998" lat="43.2658538818359020">
        <ele>142.0</ele>
        <time>2012-07-08T11:09:12.000Z</time>
      </trkpt>
      <trkpt lon="-3.0301663875579798" lat="43.2658462524413991">
        <ele>143.0</ele>
        <time>2012-07-08T11:09:15.000Z</time>
      </trkpt>
      <trkpt lon="-3.0302019119262700" lat="43.2658500671387003">
        <ele>144.0</ele>
        <time>2012-07-08T11:09:18.000Z</time>
      </trkpt>
      <trkpt lon="-3.0302555561065700" lat="43.2658615112304972">
        <ele>145.0</ele>
        <time>2012-07-08T11:09:21.000Z</time>
      </trkpt>
      <trkpt lon="-3.0303132534027100" lat="43.2658805847167969">
        <ele>145.0</ele>
        <time>2012-07-08T11:09:23.000Z</time>
      </trkpt>
      <trkpt lon="-3.0303657054901101" lat="43.2658958435059020">
        <ele>146.0</ele>
        <time>2012-07-08T11:09:27.000Z</time>
      </trkpt>
      <trkpt lon="-3.0303876399993901" lat="43.2659111022949006">
        <ele>147.0</ele>
        <time>2012-07-08T11:09:28.000Z</time>
      </trkpt>
      <trkpt lon="-3.0304000377654998" lat="43.2659187316894034">
        <ele>148.0</ele>
        <time>2012-07-08T11:09:32.000Z</time>
      </trkpt>
      <trkpt lon="-3.0304198265075701" lat="43.2659301757812003">
        <ele>149.0</ele>
        <time>2012-07-08T11:09:34.000Z</time>
      </trkpt>
      <trkpt lon="-3.0304567813873300" lat="43.2659492492675994">
        <ele>150.0</ele>
        <time>2012-07-08T11:09:43.000Z</time>
      </trkpt>
      <trkpt lon="-3.0305349826812700" lat="43.2659912109375000">
        <ele>151.0</ele>
        <time>2012-07-08T11:09:48.000Z</time>
      </trkpt>
      <trkpt lon="-3.0305891036987300" lat="43.2660102844237997">
        <ele>151.0</ele>
        <time>2012-07-08T11:09:50.000Z</time>
      </trkpt>
      <trkpt lon="-3.0306441783904998" lat="43.2660293579101989">
        <ele>152.0</ele>
        <time>2012-07-08T11:09:53.000Z</time>
      </trkpt>
      <trkpt lon="-3.0307223796844500" lat="43.2660560607910014">
        <ele>153.0</ele>
        <time>2012-07-08T11:09:58.000Z</time>
      </trkpt>
      <trkpt lon="-3.0307574272155802" lat="43.2660751342773011">
        <ele>153.0</ele>
        <time>2012-07-08T11:10:01.000Z</time>
      </trkpt>
      <trkpt lon="-3.0307967662811302" lat="43.2660827636719034">
        <ele>154.0</ele>
        <time>2012-07-08T11:10:05.000Z</time>
      </trkpt>
      <trkpt lon="-3.0308883190154998" lat="43.2661018371582031">
        <ele>155.0</ele>
        <time>2012-07-08T11:10:10.000Z</time>
      </trkpt>
      <trkpt lon="-3.0309545993804901" lat="43.2661132812500000">
        <ele>156.0</ele>
        <time>2012-07-08T11:10:14.000Z</time>
      </trkpt>
      <trkpt lon="-3.0310213565826398" lat="43.2661209106445028">
        <ele>157.0</ele>
        <time>2012-07-08T11:10:17.000Z</time>
      </trkpt>
      <trkpt lon="-3.0310695171356201" lat="43.2661247253417969">
        <ele>159.0</ele>
        <time>2012-07-08T11:10:20.000Z</time>
      </trkpt>
      <trkpt lon="-3.0311007499694802" lat="43.2661285400390980">
        <ele>160.0</ele>
        <time>2012-07-08T11:10:22.000Z</time>
      </trkpt>
      <trkpt lon="-3.0311536788940399" lat="43.2661476135253977">
        <ele>161.0</ele>
        <time>2012-07-08T11:10:26.000Z</time>
      </trkpt>
      <trkpt lon="-3.0312111377716100" lat="43.2661628723144034">
        <ele>162.0</ele>
        <time>2012-07-08T11:10:29.000Z</time>
      </trkpt>
      <trkpt lon="-3.0312647819518999" lat="43.2661819458008026">
        <ele>163.0</ele>
        <time>2012-07-08T11:10:32.000Z</time>
      </trkpt>
      <trkpt lon="-3.0313119888305700" lat="43.2661895751952983">
        <ele>164.0</ele>
        <time>2012-07-08T11:10:35.000Z</time>
      </trkpt>
      <trkpt lon="-3.0313577651977499" lat="43.2662010192871023">
        <ele>165.0</ele>
        <time>2012-07-08T11:10:38.000Z</time>
      </trkpt>
      <trkpt lon="-3.0313909053802499" lat="43.2662010192871023">
        <ele>166.0</ele>
        <time>2012-07-08T11:10:39.000Z</time>
      </trkpt>
      <trkpt lon="-3.0314552783966100" lat="43.2662124633788991">
        <ele>167.0</ele>
        <time>2012-07-08T11:10:42.000Z</time>
      </trkpt>
      <trkpt lon="-3.0314986705779998" lat="43.2662200927734020">
        <ele>168.0</ele>
        <time>2012-07-08T11:10:44.000Z</time>
      </trkpt>
      <trkpt lon="-3.0315368175506601" lat="43.2662315368651988">
        <ele>169.0</ele>
        <time>2012-07-08T11:10:46.000Z</time>
      </trkpt>
      <trkpt lon="-3.0315642356872599" lat="43.2662429809570028">
        <ele>170.0</ele>
        <time>2012-07-08T11:10:48.000Z</time>
      </trkpt>
      <trkpt lon="-3.0316398143768302" lat="43.2662544250487997">
        <ele>172.0</ele>
        <time>2012-07-08T11:10:51.000Z</time>
      </trkpt>
      <trkpt lon="-3.0316922664642298" lat="43.2662658691405966">
        <ele>173.0</ele>
        <time>2012-07-08T11:10:53.000Z</time>
      </trkpt>
      <trkpt lon="-3.0317382812500000" lat="43.2662734985351989">
        <ele>174.0</ele>
        <time>2012-07-08T11:10:55.000Z</time>
      </trkpt>
      <trkpt lon="-3.0317935943603498" lat="43.2662811279297017">
        <ele>175.0</ele>
        <time>2012-07-08T11:10:58.000Z</time>
      </trkpt>
      <trkpt lon="-3.0318319797515900" lat="43.2662811279297017">
        <ele>176.0</ele>
        <time>2012-07-08T11:11:01.000Z</time>
      </trkpt>
      <trkpt lon="-3.0318932533264200" lat="43.2662887573241974">
        <ele>177.0</ele>
        <time>2012-07-08T11:11:03.000Z</time>
      </trkpt>
      <trkpt lon="-3.0319314002990700" lat="43.2663116455077983">
        <ele>178.0</ele>
        <time>2012-07-08T11:11:06.000Z</time>
      </trkpt>
      <trkpt lon="-3.0319633483886701" lat="43.2663307189940980">
        <ele>179.0</ele>
        <time>2012-07-08T11:11:09.000Z</time>
      </trkpt>
      <trkpt lon="-3.0319974422454798" lat="43.2663536071776988">
        <ele>180.0</ele>
        <time>2012-07-08T11:11:12.000Z</time>
      </trkpt>
      <trkpt lon="-3.0320091247558598" lat="43.2663764953612997">
        <ele>181.0</ele>
        <time>2012-07-08T11:11:14.000Z</time>
      </trkpt>
      <trkpt lon="-3.0319612026214600" lat="43.2664451599121023">
        <ele>180.0</ele>
        <time>2012-07-08T11:11:17.000Z</time>
      </trkpt>
      <trkpt lon="-3.0319082736968999" lat="43.2664680480957031">
        <ele>180.0</ele>
        <time>2012-07-08T11:11:20.000Z</time>
      </trkpt>
      <trkpt lon="-3.0318799018859899" lat="43.2664871215820028">
        <ele>179.0</ele>
        <time>2012-07-08T11:11:23.000Z</time>
      </trkpt>
      <trkpt lon="-3.0318539142608598" lat="43.2665023803711009">
        <ele>178.0</ele>
        <time>2012-07-08T11:11:26.000Z</time>
      </trkpt>
      <trkpt lon="-3.0318086147308301" lat="43.2665443420410014">
        <ele>177.0</ele>
        <time>2012-07-08T11:11:28.000Z</time>
      </trkpt>
      <trkpt lon="-3.0317854881286599" lat="43.2665634155273011">
        <ele>175.0</ele>
        <time>2012-07-08T11:11:31.000Z</time>
      </trkpt>
      <trkpt lon="-3.0317733287811302" lat="43.2665863037109020">
        <ele>174.0</ele>
        <time>2012-07-08T11:11:33.000Z</time>
      </trkpt>
      <trkpt lon="-3.0317797660827601" lat="43.2666282653809020">
        <ele>174.0</ele>
        <time>2012-07-08T11:11:37.000Z</time>
      </trkpt>
      <trkpt lon="-3.0317900180816602" lat="43.2666664123535014">
        <ele>173.0</ele>
        <time>2012-07-08T11:11:39.000Z</time>
      </trkpt>
      <trkpt lon="-3.0317997932434100" lat="43.2666931152344034">
        <ele>172.0</ele>
        <time>2012-07-08T11:11:41.000Z</time>
      </trkpt>
      <trkpt lon="-3.0318176746368399" lat="43.2667198181151988">
        <ele>172.0</ele>
        <time>2012-07-08T11:11:44.000Z</time>
      </trkpt>
      <trkpt lon="-3.0318222045898402" lat="43.2667350769042969">
        <ele>172.0</ele>
        <time>2012-07-08T11:11:46.000Z</time>
      </trkpt>
      <trkpt lon="-3.0318474769592298" lat="43.2667655944824006">
        <ele>172.0</ele>
        <time>2012-07-08T11:11:49.000Z</time>
      </trkpt>
      <trkpt lon="-3.0318589210510298" lat="43.2667770385741974">
        <ele>173.0</ele>
        <time>2012-07-08T11:11:52.000Z</time>
      </trkpt>
      <trkpt lon="-3.0318717956543000" lat="43.2668075561523011">
        <ele>173.0</ele>
        <time>2012-07-08T11:11:54.000Z</time>
      </trkpt>
      <trkpt lon="-3.0319201946258501" lat="43.2668533325195028">
        <ele>173.0</ele>
        <time>2012-07-08T11:11:57.000Z</time>
      </trkpt>
      <trkpt lon="-3.0319578647613499" lat="43.2669029235839986">
        <ele>173.0</ele>
        <time>2012-07-08T11:12:02.000Z</time>
      </trkpt>
      <trkpt lon="-3.0319998264312700" lat="43.2669410705565980">
        <ele>174.0</ele>
        <time>2012-07-08T11:12:05.000Z</time>
      </trkpt>
      <trkpt lon="-3.0320510864257799" lat="43.2669601440429972">
        <ele>174.0</ele>
        <time>2012-07-08T11:12:08.000Z</time>
      </trkpt>
      <trkpt lon="-3.0320892333984402" lat="43.2669792175292969">
        <ele>174.0</ele>
        <time>2012-07-08T11:12:12.000Z</time>
      </trkpt>
      <trkpt lon="-3.0321412086486799" lat="43.2669868469237997">
        <ele>175.0</ele>
        <time>2012-07-08T11:12:15.000Z</time>
      </trkpt>
      <trkpt lon="-3.0321793556213401" lat="43.2669982910155966">
        <ele>175.0</ele>
        <time>2012-07-08T11:12:16.000Z</time>
      </trkpt>
      <trkpt lon="-3.0322048664093000" lat="43.2669982910155966">
        <ele>176.0</ele>
        <time>2012-07-08T11:12:19.000Z</time>
      </trkpt>
      <trkpt lon="-3.0323059558868399" lat="43.2670173645019034">
        <ele>177.0</ele>
        <time>2012-07-08T11:12:24.000Z</time>
      </trkpt>
      <trkpt lon="-3.0323047637939502" lat="43.2670288085937003">
        <ele>177.0</ele>
        <time>2012-07-08T11:12:27.000Z</time>
      </trkpt>
      <trkpt lon="-3.0323190689086901" lat="43.2670288085937003">
        <ele>178.0</ele>
        <time>2012-07-08T11:12:29.000Z</time>
      </trkpt>
      <trkpt lon="-3.0323450565338099" lat="43.2670249938964986">
        <ele>178.0</ele>
        <time>2012-07-08T11:12:32.000Z</time>
      </trkpt>
      <trkpt lon="-3.0323631763458199" lat="43.2670173645019034">
        <ele>178.0</ele>
        <time>2012-07-08T11:12:35.000Z</time>
      </trkpt>
      <trkpt lon="-3.0323870182037398" lat="43.2670173645019034">
        <ele>179.0</ele>
        <time>2012-07-08T11:12:36.000Z</time>
      </trkpt>
      <trkpt lon="-3.0324878692627002" lat="43.2670059204101989">
        <ele>180.0</ele>
        <time>2012-07-08T11:12:41.000Z</time>
      </trkpt>
      <trkpt lon="-3.0325295925140399" lat="43.2669944763184020">
        <ele>180.0</ele>
        <time>2012-07-08T11:12:44.000Z</time>
      </trkpt>
      <trkpt lon="-3.0325913429260298" lat="43.2669754028320028">
        <ele>181.0</ele>
        <time>2012-07-08T11:12:47.000Z</time>
      </trkpt>
      <trkpt lon="-3.0326516628265399" lat="43.2669715881348012">
        <ele>182.0</ele>
        <time>2012-07-08T11:12:48.000Z</time>
      </trkpt>
      <trkpt lon="-3.0327320098877002" lat="43.2669677734375000">
        <ele>183.0</ele>
        <time>2012-07-08T11:12:51.000Z</time>
      </trkpt>
      <trkpt lon="-3.0327746868133501" lat="43.2669639587401988">
        <ele>184.0</ele>
        <time>2012-07-08T11:12:53.000Z</time>
      </trkpt>
      <trkpt lon="-3.0328173637390101" lat="43.2669601440429972">
        <ele>185.0</ele>
        <time>2012-07-08T11:12:55.000Z</time>
      </trkpt>
      <trkpt lon="-3.0328874588012700" lat="43.2669525146484020">
        <ele>186.0</ele>
        <time>2012-07-08T11:12:58.000Z</time>
      </trkpt>
      <trkpt lon="-3.0329308509826700" lat="43.2669448852538991">
        <ele>187.0</ele>
        <time>2012-07-08T11:13:00.000Z</time>
      </trkpt>
      <trkpt lon="-3.0329747200012198" lat="43.2669372558594034">
        <ele>188.0</ele>
        <time>2012-07-08T11:13:02.000Z</time>
      </trkpt>
      <trkpt lon="-3.0330028533935498" lat="43.2669334411621023">
        <ele>189.0</ele>
        <time>2012-07-08T11:13:04.000Z</time>
      </trkpt>
      <trkpt lon="-3.0330302715301500" lat="43.2669219970702983">
        <ele>190.0</ele>
        <time>2012-07-08T11:13:07.000Z</time>
      </trkpt>
      <trkpt lon="-3.0330598354339600" lat="43.2669067382812003">
        <ele>191.0</ele>
        <time>2012-07-08T11:13:10.000Z</time>
      </trkpt>
      <trkpt lon="-3.0330834388732901" lat="43.2669067382812003">
        <ele>191.0</ele>
        <time>2012-07-08T11:13:12.000Z</time>
      </trkpt>
      <trkpt lon="-3.0331399440765399" lat="43.2668991088866974">
        <ele>192.0</ele>
        <time>2012-07-08T11:13:15.000Z</time>
      </trkpt>
      <trkpt lon="-3.0331897735595699" lat="43.2668876647949006">
        <ele>193.0</ele>
        <time>2012-07-08T11:13:18.000Z</time>
      </trkpt>
      <trkpt lon="-3.0332512855529798" lat="43.2668876647949006">
        <ele>194.0</ele>
        <time>2012-07-08T11:13:21.000Z</time>
      </trkpt>
      <trkpt lon="-3.0333497524261501" lat="43.2668609619140980">
        <ele>195.0</ele>
        <time>2012-07-08T11:13:24.000Z</time>
      </trkpt>
      <trkpt lon="-3.0334458351135298" lat="43.2668380737304972">
        <ele>197.0</ele>
        <time>2012-07-08T11:13:27.000Z</time>
      </trkpt>
      <trkpt lon="-3.0335094928741499" lat="43.2668380737304972">
        <ele>198.0</ele>
        <time>2012-07-08T11:13:30.000Z</time>
      </trkpt>
      <trkpt lon="-3.0336003303527801" lat="43.2668838500976989">
        <ele>200.0</ele>
        <time>2012-07-08T11:13:32.000Z</time>
      </trkpt>
      <trkpt lon="-3.0336527824401900" lat="43.2669296264648011">
        <ele>201.0</ele>
        <time>2012-07-08T11:13:35.000Z</time>
      </trkpt>
      <trkpt lon="-3.0337078571319598" lat="43.2669868469237997">
        <ele>202.0</ele>
        <time>2012-07-08T11:13:38.000Z</time>
      </trkpt>
      <trkpt lon="-3.0337457656860298" lat="43.2670326232910014">
        <ele>201.0</ele>
        <time>2012-07-08T11:13:40.000Z</time>
      </trkpt>
      <trkpt lon="-3.0337784290313698" lat="43.2670631408690980">
        <ele>201.0</ele>
        <time>2012-07-08T11:13:43.000Z</time>
      </trkpt>
      <trkpt lon="-3.0338118076324498" lat="43.2670860290526988">
        <ele>200.0</ele>
        <time>2012-07-08T11:13:46.000Z</time>
      </trkpt>
      <trkpt lon="-3.0339090824127202" lat="43.2671432495116974">
        <ele>199.0</ele>
        <time>2012-07-08T11:13:50.000Z</time>
      </trkpt>
      <trkpt lon="-3.0339286327362101" lat="43.2671508789062003">
        <ele>199.0</ele>
        <time>2012-07-08T11:13:52.000Z</time>
      </trkpt>
      <trkpt lon="-3.0340533256530802" lat="43.2672157287598012">
        <ele>199.0</ele>
        <time>2012-07-08T11:13:57.000Z</time>
      </trkpt>
      <trkpt lon="-3.0341050624847399" lat="43.2672386169434020">
        <ele>200.0</ele>
        <time>2012-07-08T11:14:00.000Z</time>
      </trkpt>
      <trkpt lon="-3.0342855453491202" lat="43.2672958374023011">
        <ele>200.0</ele>
        <time>2012-07-08T11:14:08.000Z</time>
      </trkpt>
      <trkpt lon="-3.0343184471130402" lat="43.2673072814940980">
        <ele>201.0</ele>
        <time>2012-07-08T11:14:10.000Z</time>
      </trkpt>
      <trkpt lon="-3.0343747138977002" lat="43.2673339843750000">
        <ele>201.0</ele>
        <time>2012-07-08T11:14:13.000Z</time>
      </trkpt>
      <trkpt lon="-3.0344510078430198" lat="43.2673759460449006">
        <ele>202.0</ele>
        <time>2012-07-08T11:14:16.000Z</time>
      </trkpt>
      <trkpt lon="-3.0346841812133798" lat="43.2674636840820028">
        <ele>202.0</ele>
        <time>2012-07-08T11:14:23.000Z</time>
      </trkpt>
      <trkpt lon="-3.0347385406494101" lat="43.2674713134765980">
        <ele>203.0</ele>
        <time>2012-07-08T11:14:26.000Z</time>
      </trkpt>
      <trkpt lon="-3.0347921848297101" lat="43.2674713134765980">
        <ele>203.0</ele>
        <time>2012-07-08T11:14:29.000Z</time>
      </trkpt>
      <trkpt lon="-3.0348286628723100" lat="43.2674674987792969">
        <ele>204.0</ele>
        <time>2012-07-08T11:14:31.000Z</time>
      </trkpt>
      <trkpt lon="-3.0348927974700901" lat="43.2674636840820028">
        <ele>205.0</ele>
        <time>2012-07-08T11:14:33.000Z</time>
      </trkpt>
      <trkpt lon="-3.0349709987640399" lat="43.2674522399901988">
        <ele>206.0</ele>
        <time>2012-07-08T11:14:35.000Z</time>
      </trkpt>
      <trkpt lon="-3.0350203514099099" lat="43.2674407958984020">
        <ele>208.0</ele>
        <time>2012-07-08T11:14:37.000Z</time>
      </trkpt>
      <trkpt lon="-3.0350790023803702" lat="43.2674255371094034">
        <ele>209.0</ele>
        <time>2012-07-08T11:14:39.000Z</time>
      </trkpt>
      <trkpt lon="-3.0351736545562700" lat="43.2673950195312003">
        <ele>211.0</ele>
        <time>2012-07-08T11:14:42.000Z</time>
      </trkpt>
      <trkpt lon="-3.0352771282196001" lat="43.2673568725586009">
        <ele>213.0</ele>
        <time>2012-07-08T11:14:45.000Z</time>
      </trkpt>
      <trkpt lon="-3.0354003906250000" lat="43.2673530578612997">
        <ele>215.0</ele>
        <time>2012-07-08T11:14:48.000Z</time>
      </trkpt>
      <trkpt lon="-3.0355091094970699" lat="43.2673530578612997">
        <ele>217.0</ele>
        <time>2012-07-08T11:14:51.000Z</time>
      </trkpt>
      <trkpt lon="-3.0356113910675000" lat="43.2673606872559020">
        <ele>220.0</ele>
        <time>2012-07-08T11:14:54.000Z</time>
      </trkpt>
      <trkpt lon="-3.0356664657592800" lat="43.2673721313476989">
        <ele>221.0</ele>
        <time>2012-07-08T11:14:58.000Z</time>
      </trkpt>
      <trkpt lon="-3.0357174873352002" lat="43.2673797607422017">
        <ele>222.0</ele>
        <time>2012-07-08T11:15:01.000Z</time>
      </trkpt>
      <trkpt lon="-3.0357792377471902" lat="43.2673835754394034">
        <ele>223.0</ele>
        <time>2012-07-08T11:15:03.000Z</time>
      </trkpt>
      <trkpt lon="-3.0358593463897701" lat="43.2673950195312003">
        <ele>224.0</ele>
        <time>2012-07-08T11:15:06.000Z</time>
      </trkpt>
      <trkpt lon="-3.0359179973602299" lat="43.2674064636229971">
        <ele>225.0</ele>
        <time>2012-07-08T11:15:09.000Z</time>
      </trkpt>
      <trkpt lon="-3.0359950065612802" lat="43.2674140930175994">
        <ele>226.0</ele>
        <time>2012-07-08T11:15:13.000Z</time>
      </trkpt>
      <trkpt lon="-3.0360481739044198" lat="43.2674293518065980">
        <ele>226.0</ele>
        <time>2012-07-08T11:15:15.000Z</time>
      </trkpt>
      <trkpt lon="-3.0361151695251500" lat="43.2674446105957031">
        <ele>227.0</ele>
        <time>2012-07-08T11:15:18.000Z</time>
      </trkpt>
      <trkpt lon="-3.0361814498901398" lat="43.2674560546875000">
        <ele>228.0</ele>
        <time>2012-07-08T11:15:20.000Z</time>
      </trkpt>
      <trkpt lon="-3.0362448692321800" lat="43.2674751281737997">
        <ele>228.0</ele>
        <time>2012-07-08T11:15:23.000Z</time>
      </trkpt>
      <trkpt lon="-3.0362977981567401" lat="43.2674865722655966">
        <ele>229.0</ele>
        <time>2012-07-08T11:15:25.000Z</time>
      </trkpt>
      <trkpt lon="-3.0363974571228001" lat="43.2675094604491974">
        <ele>230.0</ele>
        <time>2012-07-08T11:15:29.000Z</time>
      </trkpt>
      <trkpt lon="-3.0364384651184100" lat="43.2675285339354971">
        <ele>230.0</ele>
        <time>2012-07-08T11:15:33.000Z</time>
      </trkpt>
      <trkpt lon="-3.0364751815795898" lat="43.2675399780273011">
        <ele>231.0</ele>
        <time>2012-07-08T11:15:35.000Z</time>
      </trkpt>
      <trkpt lon="-3.0365722179412802" lat="43.2675514221190980">
        <ele>232.0</ele>
        <time>2012-07-08T11:15:40.000Z</time>
      </trkpt>
      <trkpt lon="-3.0366320610046400" lat="43.2675552368163991">
        <ele>233.0</ele>
        <time>2012-07-08T11:15:43.000Z</time>
      </trkpt>
      <trkpt lon="-3.0366492271423300" lat="43.2675590515137003">
        <ele>234.0</ele>
        <time>2012-07-08T11:15:45.000Z</time>
      </trkpt>
      <trkpt lon="-3.0367102622985800" lat="43.2675628662109020">
        <ele>235.0</ele>
        <time>2012-07-08T11:15:48.000Z</time>
      </trkpt>
      <trkpt lon="-3.0367560386657702" lat="43.2675743103026988">
        <ele>235.0</ele>
        <time>2012-07-08T11:15:51.000Z</time>
      </trkpt>
      <trkpt lon="-3.0367677211761501" lat="43.2675781250000000">
        <ele>236.0</ele>
        <time>2012-07-08T11:15:53.000Z</time>
      </trkpt>
      <trkpt lon="-3.0367929935455300" lat="43.2676010131836009">
        <ele>236.0</ele>
        <time>2012-07-08T11:15:56.000Z</time>
      </trkpt>
      <trkpt lon="-3.0368471145629901" lat="43.2676277160644034">
        <ele>237.0</ele>
        <time>2012-07-08T11:15:58.000Z</time>
      </trkpt>
      <trkpt lon="-3.0369045734405500" lat="43.2676658630371023">
        <ele>237.0</ele>
        <time>2012-07-08T11:16:03.000Z</time>
      </trkpt>
      <trkpt lon="-3.0370726585388201" lat="43.2678070068359020">
        <ele>237.0</ele>
        <time>2012-07-08T11:16:16.000Z</time>
      </trkpt>
      <trkpt lon="-3.0371119976043701" lat="43.2678489685059020">
        <ele>237.0</ele>
        <time>2012-07-08T11:16:19.000Z</time>
      </trkpt>
      <trkpt lon="-3.0371353626251198" lat="43.2678604125976989">
        <ele>237.0</ele>
        <time>2012-07-08T11:16:22.000Z</time>
      </trkpt>
      <trkpt lon="-3.0372018814086901" lat="43.2678756713866974">
        <ele>237.0</ele>
        <time>2012-07-08T11:16:24.000Z</time>
      </trkpt>
      <trkpt lon="-3.0372281074523899" lat="43.2678718566894034">
        <ele>237.0</ele>
        <time>2012-07-08T11:16:26.000Z</time>
      </trkpt>
      <trkpt lon="-3.0373005867004399" lat="43.2678794860839986">
        <ele>238.0</ele>
        <time>2012-07-08T11:16:29.000Z</time>
      </trkpt>
      <trkpt lon="-3.0373275279998802" lat="43.2678909301758026">
        <ele>238.0</ele>
        <time>2012-07-08T11:16:32.000Z</time>
      </trkpt>
      <trkpt lon="-3.0373260974884002" lat="43.2678718566894034">
        <ele>239.0</ele>
        <time>2012-07-08T11:16:35.000Z</time>
      </trkpt>
      <trkpt lon="-3.0373253822326700" lat="43.2677726745604971">
        <ele>240.0</ele>
        <time>2012-07-08T11:16:41.000Z</time>
      </trkpt>
      <trkpt lon="-3.0373156070709202" lat="43.2677307128905966">
        <ele>241.0</ele>
        <time>2012-07-08T11:16:44.000Z</time>
      </trkpt>
      <trkpt lon="-3.0373063087463401" lat="43.2676887512207031">
        <ele>242.0</ele>
        <time>2012-07-08T11:16:48.000Z</time>
      </trkpt>
      <trkpt lon="-3.0373115539550799" lat="43.2676429748535014">
        <ele>243.0</ele>
        <time>2012-07-08T11:16:50.000Z</time>
      </trkpt>
      <trkpt lon="-3.0373010635375999" lat="43.2676162719726989">
        <ele>244.0</ele>
        <time>2012-07-08T11:16:53.000Z</time>
      </trkpt>
      <trkpt lon="-3.0373005867004399" lat="43.2676048278809020">
        <ele>245.0</ele>
        <time>2012-07-08T11:16:58.000Z</time>
      </trkpt>
      <trkpt lon="-3.0372977256774898" lat="43.2675971984862997">
        <ele>245.0</ele>
        <time>2012-07-08T11:17:00.000Z</time>
      </trkpt>
      <trkpt lon="-3.0372970104217498" lat="43.2675743103026988">
        <ele>246.0</ele>
        <time>2012-07-08T11:17:03.000Z</time>
      </trkpt>
      <trkpt lon="-3.0372941493988002" lat="43.2675590515137003">
        <ele>246.0</ele>
        <time>2012-07-08T11:17:06.000Z</time>
      </trkpt>
      <trkpt lon="-3.0372817516326900" lat="43.2675247192383026">
        <ele>247.0</ele>
        <time>2012-07-08T11:17:11.000Z</time>
      </trkpt>
      <trkpt lon="-3.0372645854949898" lat="43.2674560546875000">
        <ele>248.0</ele>
        <time>2012-07-08T11:17:17.000Z</time>
      </trkpt>
      <trkpt lon="-3.0372614860534699" lat="43.2674179077148011">
        <ele>249.0</ele>
        <time>2012-07-08T11:17:19.000Z</time>
      </trkpt>
      <trkpt lon="-3.0372354984283398" lat="43.2673683166503977">
        <ele>250.0</ele>
        <time>2012-07-08T11:17:21.000Z</time>
      </trkpt>
      <trkpt lon="-3.0371775627136199" lat="43.2673492431640980">
        <ele>251.0</ele>
        <time>2012-07-08T11:17:27.000Z</time>
      </trkpt>
      <trkpt lon="-3.0371561050414999" lat="43.2673454284667969">
        <ele>253.0</ele>
        <time>2012-07-08T11:17:29.000Z</time>
      </trkpt>
      <trkpt lon="-3.0371448993682901" lat="43.2673263549804972">
        <ele>254.0</ele>
        <time>2012-07-08T11:17:31.000Z</time>
      </trkpt>
      <trkpt lon="-3.0371489524841300" lat="43.2672767639160014">
        <ele>255.0</ele>
        <time>2012-07-08T11:17:34.000Z</time>
      </trkpt>
      <trkpt lon="-3.0371763706207302" lat="43.2672233581542969">
        <ele>256.0</ele>
        <time>2012-07-08T11:17:37.000Z</time>
      </trkpt>
      <trkpt lon="-3.0371799468994101" lat="43.2672080993651988">
        <ele>257.0</ele>
        <time>2012-07-08T11:17:39.000Z</time>
      </trkpt>
      <trkpt lon="-3.0371935367584202" lat="43.2671852111815980">
        <ele>259.0</ele>
        <time>2012-07-08T11:17:43.000Z</time>
      </trkpt>
      <trkpt lon="-3.0372037887573202" lat="43.2671585083008026">
        <ele>261.0</ele>
        <time>2012-07-08T11:17:46.000Z</time>
      </trkpt>
      <trkpt lon="-3.0372266769409202" lat="43.2671279907226989">
        <ele>263.0</ele>
        <time>2012-07-08T11:17:50.000Z</time>
      </trkpt>
      <trkpt lon="-3.0372419357299800" lat="43.2671165466309020">
        <ele>264.0</ele>
        <time>2012-07-08T11:17:54.000Z</time>
      </trkpt>
      <trkpt lon="-3.0372574329376198" lat="43.2670974731445028">
        <ele>265.0</ele>
        <time>2012-07-08T11:17:56.000Z</time>
      </trkpt>
      <trkpt lon="-3.0372793674468999" lat="43.2670974731445028">
        <ele>267.0</ele>
        <time>2012-07-08T11:18:00.000Z</time>
      </trkpt>
      <trkpt lon="-3.0373322963714600" lat="43.2670898437500000">
        <ele>268.0</ele>
        <time>2012-07-08T11:18:03.000Z</time>
      </trkpt>
      <trkpt lon="-3.0374076366424601" lat="43.2670974731445028">
        <ele>269.0</ele>
        <time>2012-07-08T11:18:06.000Z</time>
      </trkpt>
      <trkpt lon="-3.0375590324401900" lat="43.2671127319336009">
        <ele>270.0</ele>
        <time>2012-07-08T11:18:10.000Z</time>
      </trkpt>
      <trkpt lon="-3.0376501083374001" lat="43.2671127319336009">
        <ele>271.0</ele>
        <time>2012-07-08T11:18:13.000Z</time>
      </trkpt>
      <trkpt lon="-3.0377318859100302" lat="43.2671127319336009">
        <ele>272.0</ele>
        <time>2012-07-08T11:18:16.000Z</time>
      </trkpt>
      <trkpt lon="-3.0377707481384300" lat="43.2671089172362997">
        <ele>273.0</ele>
        <time>2012-07-08T11:18:19.000Z</time>
      </trkpt>
      <trkpt lon="-3.0378146171569802" lat="43.2671127319336009">
        <ele>275.0</ele>
        <time>2012-07-08T11:18:22.000Z</time>
      </trkpt>
      <trkpt lon="-3.0378394126892099" lat="43.2671241760253977">
        <ele>276.0</ele>
        <time>2012-07-08T11:18:24.000Z</time>
      </trkpt>
      <trkpt lon="-3.0378546714782702" lat="43.2671432495116974">
        <ele>276.0</ele>
        <time>2012-07-08T11:18:28.000Z</time>
      </trkpt>
      <trkpt lon="-3.0378904342651398" lat="43.2671508789062003">
        <ele>276.0</ele>
        <time>2012-07-08T11:18:29.000Z</time>
      </trkpt>
      <trkpt lon="-3.0379424095153800" lat="43.2671508789062003">
        <ele>276.0</ele>
        <time>2012-07-08T11:18:33.000Z</time>
      </trkpt>
      <trkpt lon="-3.0379853248596200" lat="43.2671508789062003">
        <ele>277.0</ele>
        <time>2012-07-08T11:18:36.000Z</time>
      </trkpt>
      <trkpt lon="-3.0380771160125701" lat="43.2671470642089986">
        <ele>278.0</ele>
        <time>2012-07-08T11:18:40.000Z</time>
      </trkpt>
      <trkpt lon="-3.0380921363830602" lat="43.2671432495116974">
        <ele>279.0</ele>
        <time>2012-07-08T11:18:43.000Z</time>
      </trkpt>
      <trkpt lon="-3.0381538867950399" lat="43.2671623229979971">
        <ele>279.0</ele>
        <time>2012-07-08T11:18:46.000Z</time>
      </trkpt>
      <trkpt lon="-3.0381774902343701" lat="43.2671775817871023">
        <ele>280.0</ele>
        <time>2012-07-08T11:18:48.000Z</time>
      </trkpt>
      <trkpt lon="-3.0382497310638401" lat="43.2672386169434020">
        <ele>280.0</ele>
        <time>2012-07-08T11:18:55.000Z</time>
      </trkpt>
      <trkpt lon="-3.0383439064025901" lat="43.2672653198241974">
        <ele>280.0</ele>
        <time>2012-07-08T11:18:57.000Z</time>
      </trkpt>
      <trkpt lon="-3.0383744239807098" lat="43.2672805786133026">
        <ele>279.0</ele>
        <time>2012-07-08T11:18:59.000Z</time>
      </trkpt>
      <trkpt lon="-3.0384235382080100" lat="43.2672958374023011">
        <ele>279.0</ele>
        <time>2012-07-08T11:19:02.000Z</time>
      </trkpt>
      <trkpt lon="-3.0384645462036102" lat="43.2673187255859020">
        <ele>279.0</ele>
        <time>2012-07-08T11:19:05.000Z</time>
      </trkpt>
      <trkpt lon="-3.0386402606964098" lat="43.2674217224121023">
        <ele>278.0</ele>
        <time>2012-07-08T11:19:20.000Z</time>
      </trkpt>
      <trkpt lon="-3.0386588573455802" lat="43.2674255371094034">
        <ele>278.0</ele>
        <time>2012-07-08T11:19:22.000Z</time>
      </trkpt>
      <trkpt lon="-3.0388226509094198" lat="43.2674331665038991">
        <ele>279.0</ele>
        <time>2012-07-08T11:19:28.000Z</time>
      </trkpt>
      <trkpt lon="-3.0388531684875502" lat="43.2674407958984020">
        <ele>279.0</ele>
        <time>2012-07-08T11:19:30.000Z</time>
      </trkpt>
      <trkpt lon="-3.0388944149017298" lat="43.2674446105957031">
        <ele>280.0</ele>
        <time>2012-07-08T11:19:34.000Z</time>
      </trkpt>
      <trkpt lon="-3.0389125347137398" lat="43.2674522399901988">
        <ele>281.0</ele>
        <time>2012-07-08T11:19:36.000Z</time>
      </trkpt>
      <trkpt lon="-3.0389292240142800" lat="43.2674636840820028">
        <ele>281.0</ele>
        <time>2012-07-08T11:19:39.000Z</time>
      </trkpt>
      <trkpt lon="-3.0389575958252002" lat="43.2674674987792969">
        <ele>281.0</ele>
        <time>2012-07-08T11:19:40.000Z</time>
      </trkpt>
      <trkpt lon="-3.0389995574951199" lat="43.2674713134765980">
        <ele>282.0</ele>
        <time>2012-07-08T11:19:43.000Z</time>
      </trkpt>
      <trkpt lon="-3.0390789508819598" lat="43.2674674987792969">
        <ele>282.0</ele>
        <time>2012-07-08T11:19:48.000Z</time>
      </trkpt>
      <trkpt lon="-3.0391337871551500" lat="43.2674636840820028">
        <ele>283.0</ele>
        <time>2012-07-08T11:19:51.000Z</time>
      </trkpt>
      <trkpt lon="-3.0391678810119598" lat="43.2674598693848012">
        <ele>284.0</ele>
        <time>2012-07-08T11:19:54.000Z</time>
      </trkpt>
      <trkpt lon="-3.0392241477966300" lat="43.2674636840820028">
        <ele>285.0</ele>
        <time>2012-07-08T11:19:57.000Z</time>
      </trkpt>
      <trkpt lon="-3.0392687320709202" lat="43.2674636840820028">
        <ele>286.0</ele>
        <time>2012-07-08T11:19:58.000Z</time>
      </trkpt>
      <trkpt lon="-3.0393402576446502" lat="43.2674484252929972">
        <ele>287.0</ele>
        <time>2012-07-08T11:20:01.000Z</time>
      </trkpt>
      <trkpt lon="-3.0394029617309601" lat="43.2674484252929972">
        <ele>288.0</ele>
        <time>2012-07-08T11:20:04.000Z</time>
      </trkpt>
      <trkpt lon="-3.0394577980041499" lat="43.2674446105957031">
        <ele>289.0</ele>
        <time>2012-07-08T11:20:07.000Z</time>
      </trkpt>
      <trkpt lon="-3.0394957065582302" lat="43.2674484252929972">
        <ele>290.0</ele>
        <time>2012-07-08T11:20:09.000Z</time>
      </trkpt>
      <trkpt lon="-3.0395181179046600" lat="43.2674560546875000">
        <ele>291.0</ele>
        <time>2012-07-08T11:20:12.000Z</time>
      </trkpt>
      <trkpt lon="-3.0395898818969700" lat="43.2674636840820028">
        <ele>291.0</ele>
        <time>2012-07-08T11:20:15.000Z</time>
      </trkpt>
      <trkpt lon="-3.0396323204040501" lat="43.2674713134765980">
        <ele>292.0</ele>
        <time>2012-07-08T11:20:18.000Z</time>
      </trkpt>
      <trkpt lon="-3.0396606922149698" lat="43.2674674987792969">
        <ele>292.0</ele>
        <time>2012-07-08T11:20:20.000Z</time>
      </trkpt>
      <trkpt lon="-3.0397100448608398" lat="43.2674713134765980">
        <ele>293.0</ele>
        <time>2012-07-08T11:20:22.000Z</time>
      </trkpt>
      <trkpt lon="-3.0398118495941202" lat="43.2674751281737997">
        <ele>294.0</ele>
        <time>2012-07-08T11:20:27.000Z</time>
      </trkpt>
      <trkpt lon="-3.0398561954498300" lat="43.2674865722655966">
        <ele>294.0</ele>
        <time>2012-07-08T11:20:31.000Z</time>
      </trkpt>
      <trkpt lon="-3.0399310588836701" lat="43.2674942016601989">
        <ele>295.0</ele>
        <time>2012-07-08T11:20:34.000Z</time>
      </trkpt>
      <trkpt lon="-3.0399620532989502" lat="43.2674980163574006">
        <ele>296.0</ele>
        <time>2012-07-08T11:20:36.000Z</time>
      </trkpt>
      <trkpt lon="-3.0400521755218501" lat="43.2675018310547017">
        <ele>297.0</ele>
        <time>2012-07-08T11:20:43.000Z</time>
      </trkpt>
      <trkpt lon="-3.0400869846343999" lat="43.2674942016601989">
        <ele>297.0</ele>
        <time>2012-07-08T11:20:44.000Z</time>
      </trkpt>
      <trkpt lon="-3.0401382446289098" lat="43.2674942016601989">
        <ele>298.0</ele>
        <time>2012-07-08T11:20:47.000Z</time>
      </trkpt>
      <trkpt lon="-3.0401787757873500" lat="43.2674865722655966">
        <ele>298.0</ele>
        <time>2012-07-08T11:20:51.000Z</time>
      </trkpt>
      <trkpt lon="-3.0402143001556401" lat="43.2674865722655966">
        <ele>299.0</ele>
        <time>2012-07-08T11:20:53.000Z</time>
      </trkpt>
      <trkpt lon="-3.0402467250824001" lat="43.2674713134765980">
        <ele>299.0</ele>
        <time>2012-07-08T11:20:56.000Z</time>
      </trkpt>
      <trkpt lon="-3.0402886867523198" lat="43.2674560546875000">
        <ele>300.0</ele>
        <time>2012-07-08T11:20:58.000Z</time>
      </trkpt>
      <trkpt lon="-3.0403151512146001" lat="43.2674369812012003">
        <ele>301.0</ele>
        <time>2012-07-08T11:21:01.000Z</time>
      </trkpt>
      <trkpt lon="-3.0403413772582999" lat="43.2674179077148011">
        <ele>302.0</ele>
        <time>2012-07-08T11:21:03.000Z</time>
      </trkpt>
      <trkpt lon="-3.0403678417205802" lat="43.2673988342285014">
        <ele>303.0</ele>
        <time>2012-07-08T11:21:05.000Z</time>
      </trkpt>
      <trkpt lon="-3.0403976440429701" lat="43.2673759460449006">
        <ele>304.0</ele>
        <time>2012-07-08T11:21:08.000Z</time>
      </trkpt>
      <trkpt lon="-3.0404162406921400" lat="43.2673645019530966">
        <ele>305.0</ele>
        <time>2012-07-08T11:21:09.000Z</time>
      </trkpt>
      <trkpt lon="-3.0404398441314702" lat="43.2673454284667969">
        <ele>306.0</ele>
        <time>2012-07-08T11:21:12.000Z</time>
      </trkpt>
      <trkpt lon="-3.0404491424560498" lat="43.2673301696776988">
        <ele>307.0</ele>
        <time>2012-07-08T11:21:14.000Z</time>
      </trkpt>
      <trkpt lon="-3.0404763221740700" lat="43.2673110961913991">
        <ele>308.0</ele>
        <time>2012-07-08T11:21:17.000Z</time>
      </trkpt>
      <trkpt lon="-3.0405342578887899" lat="43.2672843933104971">
        <ele>309.0</ele>
        <time>2012-07-08T11:21:20.000Z</time>
      </trkpt>
      <trkpt lon="-3.0405843257904102" lat="43.2672653198241974">
        <ele>310.0</ele>
        <time>2012-07-08T11:21:23.000Z</time>
      </trkpt>
      <trkpt lon="-3.0406339168548602" lat="43.2672500610351989">
        <ele>312.0</ele>
        <time>2012-07-08T11:21:25.000Z</time>
      </trkpt>
      <trkpt lon="-3.0407092571258501" lat="43.2672271728515980">
        <ele>313.0</ele>
        <time>2012-07-08T11:21:28.000Z</time>
      </trkpt>
      <trkpt lon="-3.0407516956329301" lat="43.2672157287598012">
        <ele>314.0</ele>
        <time>2012-07-08T11:21:31.000Z</time>
      </trkpt>
      <trkpt lon="-3.0408027172088601" lat="43.2672119140625000">
        <ele>316.0</ele>
        <time>2012-07-08T11:21:34.000Z</time>
      </trkpt>
      <trkpt lon="-3.0408489704132098" lat="43.2672119140625000">
        <ele>317.0</ele>
        <time>2012-07-08T11:21:35.000Z</time>
      </trkpt>
      <trkpt lon="-3.0409011840820299" lat="43.2671966552734020">
        <ele>318.0</ele>
        <time>2012-07-08T11:21:38.000Z</time>
      </trkpt>
      <trkpt lon="-3.0409383773803702" lat="43.2671775817871023">
        <ele>319.0</ele>
        <time>2012-07-08T11:21:41.000Z</time>
      </trkpt>
      <trkpt lon="-3.0409750938415501" lat="43.2671508789062003">
        <ele>320.0</ele>
        <time>2012-07-08T11:21:44.000Z</time>
      </trkpt>
      <trkpt lon="-3.0410451889038099" lat="43.2671394348144034">
        <ele>321.0</ele>
        <time>2012-07-08T11:21:47.000Z</time>
      </trkpt>
      <trkpt lon="-3.0410988330841100" lat="43.2671394348144034">
        <ele>322.0</ele>
        <time>2012-07-08T11:21:49.000Z</time>
      </trkpt>
      <trkpt lon="-3.0411436557769802" lat="43.2671356201172017">
        <ele>324.0</ele>
        <time>2012-07-08T11:21:51.000Z</time>
      </trkpt>
      <trkpt lon="-3.0411722660064702" lat="43.2671508789062003">
        <ele>324.0</ele>
        <time>2012-07-08T11:21:54.000Z</time>
      </trkpt>
      <trkpt lon="-3.0411977767944300" lat="43.2671813964844034">
        <ele>325.0</ele>
        <time>2012-07-08T11:21:57.000Z</time>
      </trkpt>
      <trkpt lon="-3.0412192344665501" lat="43.2671966552734020">
        <ele>325.0</ele>
        <time>2012-07-08T11:22:00.000Z</time>
      </trkpt>
      <trkpt lon="-3.0412395000457799" lat="43.2672233581542969">
        <ele>325.0</ele>
        <time>2012-07-08T11:22:04.000Z</time>
      </trkpt>
      <trkpt lon="-3.0412585735321001" lat="43.2672500610351989">
        <ele>324.0</ele>
        <time>2012-07-08T11:22:07.000Z</time>
      </trkpt>
      <trkpt lon="-3.0412657260894802" lat="43.2672691345214986">
        <ele>324.0</ele>
        <time>2012-07-08T11:22:08.000Z</time>
      </trkpt>
      <trkpt lon="-3.0412657260894802" lat="43.2672843933104971">
        <ele>323.0</ele>
        <time>2012-07-08T11:22:10.000Z</time>
      </trkpt>
      <trkpt lon="-3.0412623882293701" lat="43.2673034667969034">
        <ele>322.0</ele>
        <time>2012-07-08T11:22:13.000Z</time>
      </trkpt>
      <trkpt lon="-3.0412685871124299" lat="43.2673416137695028">
        <ele>322.0</ele>
        <time>2012-07-08T11:22:15.000Z</time>
      </trkpt>
      <trkpt lon="-3.0413055419921902" lat="43.2674331665038991">
        <ele>320.0</ele>
        <time>2012-07-08T11:22:18.000Z</time>
      </trkpt>
      <trkpt lon="-3.0413119792938201" lat="43.2674789428711009">
        <ele>319.0</ele>
        <time>2012-07-08T11:22:21.000Z</time>
      </trkpt>
      <trkpt lon="-3.0413148403167698" lat="43.2674903869628977">
        <ele>318.0</ele>
        <time>2012-07-08T11:22:23.000Z</time>
      </trkpt>
      <trkpt lon="-3.0413541793823202" lat="43.2675132751464986">
        <ele>317.0</ele>
        <time>2012-07-08T11:22:26.000Z</time>
      </trkpt>
      <trkpt lon="-3.0413677692413299" lat="43.2675209045410014">
        <ele>316.0</ele>
        <time>2012-07-08T11:22:28.000Z</time>
      </trkpt>
      <trkpt lon="-3.0414056777954102" lat="43.2675285339354971">
        <ele>315.0</ele>
        <time>2012-07-08T11:22:32.000Z</time>
      </trkpt>
      <trkpt lon="-3.0415070056915301" lat="43.2675514221190980">
        <ele>316.0</ele>
        <time>2012-07-08T11:22:37.000Z</time>
      </trkpt>
      <trkpt lon="-3.0415685176849401" lat="43.2675552368163991">
        <ele>316.0</ele>
        <time>2012-07-08T11:22:40.000Z</time>
      </trkpt>
      <trkpt lon="-3.0416169166564901" lat="43.2675514221190980">
        <ele>317.0</ele>
        <time>2012-07-08T11:22:42.000Z</time>
      </trkpt>
      <trkpt lon="-3.0416717529296902" lat="43.2675399780273011">
        <ele>318.0</ele>
        <time>2012-07-08T11:22:45.000Z</time>
      </trkpt>
      <trkpt lon="-3.0417070388793901" lat="43.2675209045410014">
        <ele>319.0</ele>
        <time>2012-07-08T11:22:48.000Z</time>
      </trkpt>
      <trkpt lon="-3.0417428016662602" lat="43.2674942016601989">
        <ele>321.0</ele>
        <time>2012-07-08T11:22:52.000Z</time>
      </trkpt>
      <trkpt lon="-3.0417914390564000" lat="43.2674827575684020">
        <ele>322.0</ele>
        <time>2012-07-08T11:22:53.000Z</time>
      </trkpt>
      <trkpt lon="-3.0418710708618200" lat="43.2674522399901988">
        <ele>323.0</ele>
        <time>2012-07-08T11:22:56.000Z</time>
      </trkpt>
      <trkpt lon="-3.0419237613678001" lat="43.2674446105957031">
        <ele>325.0</ele>
        <time>2012-07-08T11:22:58.000Z</time>
      </trkpt>
      <trkpt lon="-3.0419721603393599" lat="43.2674407958984020">
        <ele>326.0</ele>
        <time>2012-07-08T11:23:00.000Z</time>
      </trkpt>
      <trkpt lon="-3.0420219898223899" lat="43.2674522399901988">
        <ele>328.0</ele>
        <time>2012-07-08T11:23:03.000Z</time>
      </trkpt>
      <trkpt lon="-3.0421109199523899" lat="43.2674751281737997">
        <ele>329.0</ele>
        <time>2012-07-08T11:23:06.000Z</time>
      </trkpt>
      <trkpt lon="-3.0421614646911599" lat="43.2675132751464986">
        <ele>329.0</ele>
        <time>2012-07-08T11:23:09.000Z</time>
      </trkpt>
      <trkpt lon="-3.0422067642211901" lat="43.2675399780273011">
        <ele>330.0</ele>
        <time>2012-07-08T11:23:12.000Z</time>
      </trkpt>
      <trkpt lon="-3.0423178672790501" lat="43.2676010131836009">
        <ele>329.0</ele>
        <time>2012-07-08T11:23:16.000Z</time>
      </trkpt>
      <trkpt lon="-3.0426814556121800" lat="43.2677726745604971">
        <ele>329.0</ele>
        <time>2012-07-08T11:23:49.000Z</time>
      </trkpt>
      <trkpt lon="-3.0427384376525901" lat="43.2677841186523011">
        <ele>329.0</ele>
        <time>2012-07-08T11:23:51.000Z</time>
      </trkpt>
      <trkpt lon="-3.0428206920623802" lat="43.2677917480469034">
        <ele>330.0</ele>
        <time>2012-07-08T11:23:53.000Z</time>
      </trkpt>
      <trkpt lon="-3.0429327487945601" lat="43.2677955627440980">
        <ele>331.0</ele>
        <time>2012-07-08T11:23:56.000Z</time>
      </trkpt>
      <trkpt lon="-3.0430006980896001" lat="43.2678031921387003">
        <ele>333.0</ele>
        <time>2012-07-08T11:23:58.000Z</time>
      </trkpt>
      <trkpt lon="-3.0430736541747998" lat="43.2678222656250000">
        <ele>335.0</ele>
        <time>2012-07-08T11:24:01.000Z</time>
      </trkpt>
      <trkpt lon="-3.0431394577026398" lat="43.2678527832030966">
        <ele>336.0</ele>
        <time>2012-07-08T11:24:04.000Z</time>
      </trkpt>
      <trkpt lon="-3.0431795120239298" lat="43.2678909301758026">
        <ele>337.0</ele>
        <time>2012-07-08T11:24:07.000Z</time>
      </trkpt>
      <trkpt lon="-3.0431957244872998" lat="43.2679176330565980">
        <ele>337.0</ele>
        <time>2012-07-08T11:24:09.000Z</time>
      </trkpt>
      <trkpt lon="-3.0432569980621298" lat="43.2679595947265980">
        <ele>337.0</ele>
        <time>2012-07-08T11:24:12.000Z</time>
      </trkpt>
      <trkpt lon="-3.0433588027954102" lat="43.2680168151854971">
        <ele>336.0</ele>
        <time>2012-07-08T11:24:18.000Z</time>
      </trkpt>
      <trkpt lon="-3.0435836315154998" lat="43.2681083679199006">
        <ele>337.0</ele>
        <time>2012-07-08T11:24:25.000Z</time>
      </trkpt>
      <trkpt lon="-3.0438151359558101" lat="43.2681808471679972">
        <ele>338.0</ele>
        <time>2012-07-08T11:24:37.000Z</time>
      </trkpt>
      <trkpt lon="-3.0438563823699898" lat="43.2681922912598012">
        <ele>339.0</ele>
        <time>2012-07-08T11:24:38.000Z</time>
      </trkpt>
      <trkpt lon="-3.0439252853393599" lat="43.2681884765625000">
        <ele>339.0</ele>
        <time>2012-07-08T11:24:41.000Z</time>
      </trkpt>
      <trkpt lon="-3.0439858436584499" lat="43.2681770324707031">
        <ele>340.0</ele>
        <time>2012-07-08T11:24:43.000Z</time>
      </trkpt>
      <trkpt lon="-3.0440907478332502" lat="43.2681694030762003">
        <ele>342.0</ele>
        <time>2012-07-08T11:24:47.000Z</time>
      </trkpt>
      <trkpt lon="-3.0442173480987500" lat="43.2681732177734020">
        <ele>344.0</ele>
        <time>2012-07-08T11:24:50.000Z</time>
      </trkpt>
      <trkpt lon="-3.0443017482757599" lat="43.2682037353515980">
        <ele>346.0</ele>
        <time>2012-07-08T11:24:53.000Z</time>
      </trkpt>
      <trkpt lon="-3.0443282127380402" lat="43.2682228088378977">
        <ele>347.0</ele>
        <time>2012-07-08T11:24:54.000Z</time>
      </trkpt>
      <trkpt lon="-3.0443687438964799" lat="43.2682609558104971">
        <ele>348.0</ele>
        <time>2012-07-08T11:24:56.000Z</time>
      </trkpt>
      <trkpt lon="-3.0444624423980700" lat="43.2683792114258026">
        <ele>347.0</ele>
        <time>2012-07-08T11:25:02.000Z</time>
      </trkpt>
      <trkpt lon="-3.0444982051849401" lat="43.2684173583984020">
        <ele>346.0</ele>
        <time>2012-07-08T11:25:03.000Z</time>
      </trkpt>
      <trkpt lon="-3.0445575714111301" lat="43.2684669494628977">
        <ele>345.0</ele>
        <time>2012-07-08T11:25:06.000Z</time>
      </trkpt>
      <trkpt lon="-3.0446052551269500" lat="43.2685012817383026">
        <ele>344.0</ele>
        <time>2012-07-08T11:25:08.000Z</time>
      </trkpt>
      <trkpt lon="-3.0446712970733598" lat="43.2685394287109020">
        <ele>343.0</ele>
        <time>2012-07-08T11:25:12.000Z</time>
      </trkpt>
      <trkpt lon="-3.0448310375213601" lat="43.2686080932616974">
        <ele>342.0</ele>
        <time>2012-07-08T11:25:17.000Z</time>
      </trkpt>
      <trkpt lon="-3.0449070930481001" lat="43.2686309814452983">
        <ele>342.0</ele>
        <time>2012-07-08T11:25:20.000Z</time>
      </trkpt>
      <trkpt lon="-3.0450432300567600" lat="43.2686386108398011">
        <ele>343.0</ele>
        <time>2012-07-08T11:25:22.000Z</time>
      </trkpt>
      <trkpt lon="-3.0451333522796600" lat="43.2686309814452983">
        <ele>344.0</ele>
        <time>2012-07-08T11:25:25.000Z</time>
      </trkpt>
      <trkpt lon="-3.0452108383178702" lat="43.2686195373535014">
        <ele>345.0</ele>
        <time>2012-07-08T11:25:27.000Z</time>
      </trkpt>
      <trkpt lon="-3.0453429222106898" lat="43.2686004638672017">
        <ele>346.0</ele>
        <time>2012-07-08T11:25:30.000Z</time>
      </trkpt>
      <trkpt lon="-3.0454370975494398" lat="43.2685890197753977">
        <ele>347.0</ele>
        <time>2012-07-08T11:25:33.000Z</time>
      </trkpt>
      <trkpt lon="-3.0455110073089600" lat="43.2685737609862997">
        <ele>349.0</ele>
        <time>2012-07-08T11:25:34.000Z</time>
      </trkpt>
      <trkpt lon="-3.0456380844116202" lat="43.2685585021973012">
        <ele>350.0</ele>
        <time>2012-07-08T11:25:37.000Z</time>
      </trkpt>
      <trkpt lon="-3.0457310676574698" lat="43.2685394287109020">
        <ele>352.0</ele>
        <time>2012-07-08T11:25:40.000Z</time>
      </trkpt>
      <trkpt lon="-3.0458054542541499" lat="43.2685203552246023">
        <ele>353.0</ele>
        <time>2012-07-08T11:25:42.000Z</time>
      </trkpt>
      <trkpt lon="-3.0458843708038299" lat="43.2685012817383026">
        <ele>355.0</ele>
        <time>2012-07-08T11:25:44.000Z</time>
      </trkpt>
      <trkpt lon="-3.0459523200988801" lat="43.2684707641601989">
        <ele>357.0</ele>
        <time>2012-07-08T11:25:47.000Z</time>
      </trkpt>
      <trkpt lon="-3.0460085868835400" lat="43.2684555053711009">
        <ele>358.0</ele>
        <time>2012-07-08T11:25:50.000Z</time>
      </trkpt>
      <trkpt lon="-3.0461189746856698" lat="43.2684440612792969">
        <ele>360.0</ele>
        <time>2012-07-08T11:25:52.000Z</time>
      </trkpt>
      <trkpt lon="-3.0462002754211399" lat="43.2684402465820028">
        <ele>361.0</ele>
        <time>2012-07-08T11:25:55.000Z</time>
      </trkpt>
      <trkpt lon="-3.0462441444396999" lat="43.2684516906737997">
        <ele>363.0</ele>
        <time>2012-07-08T11:25:57.000Z</time>
      </trkpt>
      <trkpt lon="-3.0462801456451398" lat="43.2684707641601989">
        <ele>363.0</ele>
        <time>2012-07-08T11:25:59.000Z</time>
      </trkpt>
      <trkpt lon="-3.0462925434112500" lat="43.2684860229491974">
        <ele>364.0</ele>
        <time>2012-07-08T11:26:02.000Z</time>
      </trkpt>
      <trkpt lon="-3.0463411808013898" lat="43.2685127258300994">
        <ele>364.0</ele>
        <time>2012-07-08T11:26:04.000Z</time>
      </trkpt>
      <trkpt lon="-3.0463881492614702" lat="43.2685546875000000">
        <ele>363.0</ele>
        <time>2012-07-08T11:26:07.000Z</time>
      </trkpt>
      <trkpt lon="-3.0464162826538099" lat="43.2685737609862997">
        <ele>362.0</ele>
        <time>2012-07-08T11:26:09.000Z</time>
      </trkpt>
      <trkpt lon="-3.0464675426483199" lat="43.2686157226562003">
        <ele>361.0</ele>
        <time>2012-07-08T11:26:15.000Z</time>
      </trkpt>
      <trkpt lon="-3.0464987754821800" lat="43.2686500549315980">
        <ele>360.0</ele>
        <time>2012-07-08T11:26:18.000Z</time>
      </trkpt>
      <trkpt lon="-3.0465321540832502" lat="43.2686653137207031">
        <ele>359.0</ele>
        <time>2012-07-08T11:26:20.000Z</time>
      </trkpt>
      <trkpt lon="-3.0466418266296400" lat="43.2686920166015980">
        <ele>359.0</ele>
        <time>2012-07-08T11:26:22.000Z</time>
      </trkpt>
      <trkpt lon="-3.0467131137847900" lat="43.2686996459961009">
        <ele>358.0</ele>
        <time>2012-07-08T11:26:24.000Z</time>
      </trkpt>
      <trkpt lon="-3.0468060970306401" lat="43.2687225341797017">
        <ele>358.0</ele>
        <time>2012-07-08T11:26:28.000Z</time>
      </trkpt>
      <trkpt lon="-3.0471603870391801" lat="43.2687644958496023">
        <ele>359.0</ele>
        <time>2012-07-08T11:26:45.000Z</time>
      </trkpt>
      <trkpt lon="-3.0472989082336399" lat="43.2687530517577983">
        <ele>360.0</ele>
        <time>2012-07-08T11:26:51.000Z</time>
      </trkpt>
      <trkpt lon="-3.0473859310150102" lat="43.2687301635741974">
        <ele>361.0</ele>
        <time>2012-07-08T11:26:55.000Z</time>
      </trkpt>
      <trkpt lon="-3.0474901199340798" lat="43.2687110900878977">
        <ele>362.0</ele>
        <time>2012-07-08T11:26:58.000Z</time>
      </trkpt>
      <trkpt lon="-3.0475840568542498" lat="43.2686691284179972">
        <ele>364.0</ele>
        <time>2012-07-08T11:27:00.000Z</time>
      </trkpt>
      <trkpt lon="-3.0476393699646001" lat="43.2686424255371023">
        <ele>366.0</ele>
        <time>2012-07-08T11:27:02.000Z</time>
      </trkpt>
      <trkpt lon="-3.0477151870727499" lat="43.2686157226562003">
        <ele>368.0</ele>
        <time>2012-07-08T11:27:04.000Z</time>
      </trkpt>
      <trkpt lon="-3.0478148460388201" lat="43.2686080932616974">
        <ele>370.0</ele>
        <time>2012-07-08T11:27:06.000Z</time>
      </trkpt>
      <trkpt lon="-3.0479836463928200" lat="43.2686080932616974">
        <ele>372.0</ele>
        <time>2012-07-08T11:27:10.000Z</time>
      </trkpt>
      <trkpt lon="-3.0480992794036901" lat="43.2686309814452983">
        <ele>373.0</ele>
        <time>2012-07-08T11:27:13.000Z</time>
      </trkpt>
      <trkpt lon="-3.0481657981872599" lat="43.2686424255371023">
        <ele>374.0</ele>
        <time>2012-07-08T11:27:14.000Z</time>
      </trkpt>
      <trkpt lon="-3.0482661724090598" lat="43.2686653137207031">
        <ele>375.0</ele>
        <time>2012-07-08T11:27:17.000Z</time>
      </trkpt>
      <trkpt lon="-3.0485327243804901" lat="43.2687606811523011">
        <ele>375.0</ele>
        <time>2012-07-08T11:27:25.000Z</time>
      </trkpt>
      <trkpt lon="-3.0490679740905802" lat="43.2689857482910014">
        <ele>375.0</ele>
        <time>2012-07-08T11:27:40.000Z</time>
      </trkpt>
      <trkpt lon="-3.0491869449615501" lat="43.2690124511719034">
        <ele>375.0</ele>
        <time>2012-07-08T11:27:42.000Z</time>
      </trkpt>
      <trkpt lon="-3.0492839813232400" lat="43.2690505981445028">
        <ele>375.0</ele>
        <time>2012-07-08T11:27:45.000Z</time>
      </trkpt>
      <trkpt lon="-3.0493545532226598" lat="43.2690925598144034">
        <ele>375.0</ele>
        <time>2012-07-08T11:27:47.000Z</time>
      </trkpt>
      <trkpt lon="-3.0495679378509499" lat="43.2691955566405966">
        <ele>374.0</ele>
        <time>2012-07-08T11:27:54.000Z</time>
      </trkpt>
      <trkpt lon="-3.0496222972869900" lat="43.2692070007324006">
        <ele>374.0</ele>
        <time>2012-07-08T11:27:57.000Z</time>
      </trkpt>
      <trkpt lon="-3.0496876239776598" lat="43.2692184448241974">
        <ele>375.0</ele>
        <time>2012-07-08T11:27:59.000Z</time>
      </trkpt>
      <trkpt lon="-3.0497918128967298" lat="43.2692337036133026">
        <ele>376.0</ele>
        <time>2012-07-08T11:28:03.000Z</time>
      </trkpt>
      <trkpt lon="-3.0498850345611599" lat="43.2692375183104971">
        <ele>377.0</ele>
        <time>2012-07-08T11:28:06.000Z</time>
      </trkpt>
      <trkpt lon="-3.0499994754791300" lat="43.2692375183104971">
        <ele>378.0</ele>
        <time>2012-07-08T11:28:09.000Z</time>
      </trkpt>
      <trkpt lon="-3.0500552654266402" lat="43.2692260742187003">
        <ele>379.0</ele>
        <time>2012-07-08T11:28:11.000Z</time>
      </trkpt>
      <trkpt lon="-3.0501224994659402" lat="43.2692642211913991">
        <ele>381.0</ele>
        <time>2012-07-08T11:28:14.000Z</time>
      </trkpt>
      <trkpt lon="-3.0501456260681201" lat="43.2692947387695028">
        <ele>382.0</ele>
        <time>2012-07-08T11:28:17.000Z</time>
      </trkpt>
      <trkpt lon="-3.0502343177795401" lat="43.2693595886229971">
        <ele>382.0</ele>
        <time>2012-07-08T11:28:19.000Z</time>
      </trkpt>
      <trkpt lon="-3.0503597259521502" lat="43.2694740295410014">
        <ele>381.0</ele>
        <time>2012-07-08T11:28:25.000Z</time>
      </trkpt>
      <trkpt lon="-3.0503690242767298" lat="43.2695198059082031">
        <ele>380.0</ele>
        <time>2012-07-08T11:28:29.000Z</time>
      </trkpt>
      <trkpt lon="-3.0503878593444802" lat="43.2695503234862997">
        <ele>380.0</ele>
        <time>2012-07-08T11:28:30.000Z</time>
      </trkpt>
      <trkpt lon="-3.0504198074340798" lat="43.2695846557616974">
        <ele>379.0</ele>
        <time>2012-07-08T11:28:33.000Z</time>
      </trkpt>
      <trkpt lon="-3.0504713058471702" lat="43.2696342468262003">
        <ele>378.0</ele>
        <time>2012-07-08T11:28:35.000Z</time>
      </trkpt>
      <trkpt lon="-3.0505239963531499" lat="43.2696685791015980">
        <ele>378.0</ele>
        <time>2012-07-08T11:28:38.000Z</time>
      </trkpt>
      <trkpt lon="-3.0505592823028600" lat="43.2696876525878977">
        <ele>377.0</ele>
        <time>2012-07-08T11:28:41.000Z</time>
      </trkpt>
      <trkpt lon="-3.0505971908569300" lat="43.2697029113769034">
        <ele>377.0</ele>
        <time>2012-07-08T11:28:43.000Z</time>
      </trkpt>
      <trkpt lon="-3.0506534576415998" lat="43.2697257995604971">
        <ele>378.0</ele>
        <time>2012-07-08T11:28:45.000Z</time>
      </trkpt>
      <trkpt lon="-3.0507421493530300" lat="43.2697448730469034">
        <ele>378.0</ele>
        <time>2012-07-08T11:28:49.000Z</time>
      </trkpt>
      <trkpt lon="-3.0508224964141801" lat="43.2697525024413991">
        <ele>379.0</ele>
        <time>2012-07-08T11:28:52.000Z</time>
      </trkpt>
      <trkpt lon="-3.0509061813354501" lat="43.2697601318359020">
        <ele>380.0</ele>
        <time>2012-07-08T11:28:55.000Z</time>
      </trkpt>
      <trkpt lon="-3.0509593486785902" lat="43.2697715759276988">
        <ele>381.0</ele>
        <time>2012-07-08T11:28:57.000Z</time>
      </trkpt>
      <trkpt lon="-3.0510375499725302" lat="43.2698020935059020">
        <ele>382.0</ele>
        <time>2012-07-08T11:29:00.000Z</time>
      </trkpt>
      <trkpt lon="-3.0511021614074698" lat="43.2698440551758026">
        <ele>382.0</ele>
        <time>2012-07-08T11:29:03.000Z</time>
      </trkpt>
      <trkpt lon="-3.0511388778686501" lat="43.2698783874512003">
        <ele>382.0</ele>
        <time>2012-07-08T11:29:06.000Z</time>
      </trkpt>
      <trkpt lon="-3.0514070987701398" lat="43.2700691223144034">
        <ele>382.0</ele>
        <time>2012-07-08T11:29:18.000Z</time>
      </trkpt>
      <trkpt lon="-3.0514760017395002" lat="43.2701072692871023">
        <ele>381.0</ele>
        <time>2012-07-08T11:29:21.000Z</time>
      </trkpt>
      <trkpt lon="-3.0515508651733398" lat="43.2701377868651988">
        <ele>381.0</ele>
        <time>2012-07-08T11:29:24.000Z</time>
      </trkpt>
      <trkpt lon="-3.0516374111175502" lat="43.2701568603515980">
        <ele>381.0</ele>
        <time>2012-07-08T11:29:27.000Z</time>
      </trkpt>
      <trkpt lon="-3.0518984794616699" lat="43.2702102661133026">
        <ele>380.0</ele>
        <time>2012-07-08T11:29:36.000Z</time>
      </trkpt>
      <trkpt lon="-3.0520453453064000" lat="43.2702407836913991">
        <ele>379.0</ele>
        <time>2012-07-08T11:29:41.000Z</time>
      </trkpt>
      <trkpt lon="-3.0521004199981698" lat="43.2702522277832031">
        <ele>378.0</ele>
        <time>2012-07-08T11:29:44.000Z</time>
      </trkpt>
      <trkpt lon="-3.0521759986877401" lat="43.2702674865723012">
        <ele>377.0</ele>
        <time>2012-07-08T11:29:46.000Z</time>
      </trkpt>
      <trkpt lon="-3.0523293018341100" lat="43.2702789306640980">
        <ele>376.0</ele>
        <time>2012-07-08T11:29:52.000Z</time>
      </trkpt>
      <trkpt lon="-3.0523948669433598" lat="43.2702560424804972">
        <ele>376.0</ele>
        <time>2012-07-08T11:29:55.000Z</time>
      </trkpt>
      <trkpt lon="-3.0524289608001700" lat="43.2702293395996023">
        <ele>375.0</ele>
        <time>2012-07-08T11:29:57.000Z</time>
      </trkpt>
      <trkpt lon="-3.0524539947509801" lat="43.2701950073241974">
        <ele>376.0</ele>
        <time>2012-07-08T11:29:59.000Z</time>
      </trkpt>
      <trkpt lon="-3.0524680614471400" lat="43.2701416015625000">
        <ele>377.0</ele>
        <time>2012-07-08T11:30:02.000Z</time>
      </trkpt>
      <trkpt lon="-3.0524673461914098" lat="43.2700996398925994">
        <ele>378.0</ele>
        <time>2012-07-08T11:30:04.000Z</time>
      </trkpt>
      <trkpt lon="-3.0524613857269300" lat="43.2700614929199006">
        <ele>379.0</ele>
        <time>2012-07-08T11:30:07.000Z</time>
      </trkpt>
      <trkpt lon="-3.0524373054504399" lat="43.2699966430663991">
        <ele>381.0</ele>
        <time>2012-07-08T11:30:09.000Z</time>
      </trkpt>
      <trkpt lon="-3.0523998737335201" lat="43.2699546813964986">
        <ele>382.0</ele>
        <time>2012-07-08T11:30:11.000Z</time>
      </trkpt>
      <trkpt lon="-3.0523462295532200" lat="43.2698898315429972">
        <ele>383.0</ele>
        <time>2012-07-08T11:30:15.000Z</time>
      </trkpt>
      <trkpt lon="-3.0523109436035201" lat="43.2698554992675994">
        <ele>384.0</ele>
        <time>2012-07-08T11:30:16.000Z</time>
      </trkpt>
      <trkpt lon="-3.0521914958953902" lat="43.2697639465332031">
        <ele>384.0</ele>
        <time>2012-07-08T11:30:23.000Z</time>
      </trkpt>
      <trkpt lon="-3.0520110130310099" lat="43.2696456909179972">
        <ele>385.0</ele>
        <time>2012-07-08T11:30:30.000Z</time>
      </trkpt>
      <trkpt lon="-3.0519084930419900" lat="43.2695846557616974">
        <ele>386.0</ele>
        <time>2012-07-08T11:30:34.000Z</time>
      </trkpt>
      <trkpt lon="-3.0518376827239999" lat="43.2695274353026988">
        <ele>387.0</ele>
        <time>2012-07-08T11:30:37.000Z</time>
      </trkpt>
      <trkpt lon="-3.0517570972442600" lat="43.2694740295410014">
        <ele>388.0</ele>
        <time>2012-07-08T11:30:40.000Z</time>
      </trkpt>
      <trkpt lon="-3.0517044067382799" lat="43.2694358825684020">
        <ele>389.0</ele>
        <time>2012-07-08T11:30:42.000Z</time>
      </trkpt>
      <trkpt lon="-3.0516223907470699" lat="43.2693862915038991">
        <ele>390.0</ele>
        <time>2012-07-08T11:30:46.000Z</time>
      </trkpt>
      <trkpt lon="-3.0515446662902801" lat="43.2693328857422017">
        <ele>391.0</ele>
        <time>2012-07-08T11:30:49.000Z</time>
      </trkpt>
      <trkpt lon="-3.0514936447143599" lat="43.2692985534667969">
        <ele>392.0</ele>
        <time>2012-07-08T11:30:50.000Z</time>
      </trkpt>
      <trkpt lon="-3.0514214038848899" lat="43.2692451477050994">
        <ele>393.0</ele>
        <time>2012-07-08T11:30:53.000Z</time>
      </trkpt>
      <trkpt lon="-3.0512783527374299" lat="43.2691307067871023">
        <ele>394.0</ele>
        <time>2012-07-08T11:30:59.000Z</time>
      </trkpt>
      <trkpt lon="-3.0511775016784699" lat="43.2690467834473012">
        <ele>395.0</ele>
        <time>2012-07-08T11:31:05.000Z</time>
      </trkpt>
      <trkpt lon="-3.0511014461517298" lat="43.2689971923827983">
        <ele>395.0</ele>
        <time>2012-07-08T11:31:08.000Z</time>
      </trkpt>
      <trkpt lon="-3.0509362220764200" lat="43.2688484191894034">
        <ele>395.0</ele>
        <time>2012-07-08T11:31:13.000Z</time>
      </trkpt>
      <trkpt lon="-3.0509057044982901" lat="43.2687835693359020">
        <ele>395.0</ele>
        <time>2012-07-08T11:31:15.000Z</time>
      </trkpt>
      <trkpt lon="-3.0509026050567600" lat="43.2686614990234020">
        <ele>396.0</ele>
        <time>2012-07-08T11:31:19.000Z</time>
      </trkpt>
      <trkpt lon="-3.0508642196655300" lat="43.2684822082519034">
        <ele>396.0</ele>
        <time>2012-07-08T11:31:22.000Z</time>
      </trkpt>
      <trkpt lon="-3.0507493019103999" lat="43.2678070068359020">
        <ele>395.0</ele>
        <time>2012-07-08T11:31:31.000Z</time>
      </trkpt>
      <trkpt lon="-3.0506813526153600" lat="43.2675132751464986">
        <ele>394.0</ele>
        <time>2012-07-08T11:31:34.000Z</time>
      </trkpt>
      <trkpt lon="-3.0506374835968000" lat="43.2673263549804972">
        <ele>393.0</ele>
        <time>2012-07-08T11:31:36.000Z</time>
      </trkpt>
      <trkpt lon="-3.0507309436798100" lat="43.2670326232910014">
        <ele>392.0</ele>
        <time>2012-07-08T11:31:39.000Z</time>
      </trkpt>
      <trkpt lon="-3.0509064197540301" lat="43.2667541503905966">
        <ele>390.0</ele>
        <time>2012-07-08T11:31:42.000Z</time>
      </trkpt>
      <trkpt lon="-3.0510919094085698" lat="43.2665061950684020">
        <ele>391.0</ele>
        <time>2012-07-08T11:31:45.000Z</time>
      </trkpt>
      <trkpt lon="-3.0513477325439502" lat="43.2664566040038991">
        <ele>393.0</ele>
        <time>2012-07-08T11:31:48.000Z</time>
      </trkpt>
      <trkpt lon="-3.0514669418335001" lat="43.2665328979491974">
        <ele>395.0</ele>
        <time>2012-07-08T11:31:50.000Z</time>
      </trkpt>
      <trkpt lon="-3.0515375137329102" lat="43.2666168212890980">
        <ele>396.0</ele>
        <time>2012-07-08T11:31:52.000Z</time>
      </trkpt>
      <trkpt lon="-3.0518882274627699" lat="43.2668724060059020">
        <ele>396.0</ele>
        <time>2012-07-08T11:31:56.000Z</time>
      </trkpt>
      <trkpt lon="-3.0520660877227801" lat="43.2669830322265980">
        <ele>395.0</ele>
        <time>2012-07-08T11:31:58.000Z</time>
      </trkpt>
      <trkpt lon="-3.0523321628570601" lat="43.2671775817871023">
        <ele>391.0</ele>
        <time>2012-07-08T11:32:02.000Z</time>
      </trkpt>
      <trkpt lon="-3.0526051521301301" lat="43.2673568725586009">
        <ele>386.0</ele>
        <time>2012-07-08T11:32:06.000Z</time>
      </trkpt>
      <trkpt lon="-3.0529711246490501" lat="43.2674255371094034">
        <ele>382.0</ele>
        <time>2012-07-08T11:32:07.000Z</time>
      </trkpt>
      <trkpt lon="-3.0533788204193102" lat="43.2674293518065980">
        <ele>380.0</ele>
        <time>2012-07-08T11:32:10.000Z</time>
      </trkpt>
      <trkpt lon="-3.0536701679229701" lat="43.2674369812012003">
        <ele>378.0</ele>
        <time>2012-07-08T11:32:14.000Z</time>
      </trkpt>
      <trkpt lon="-3.0537455081939702" lat="43.2675285339354971">
        <ele>377.0</ele>
        <time>2012-07-08T11:32:15.000Z</time>
      </trkpt>
      <trkpt lon="-3.0536994934082000" lat="43.2677078247070028">
        <ele>377.0</ele>
        <time>2012-07-08T11:32:18.000Z</time>
      </trkpt>
      <trkpt lon="-3.0536730289459202" lat="43.2679138183594034">
        <ele>375.0</ele>
        <time>2012-07-08T11:32:21.000Z</time>
      </trkpt>
      <trkpt lon="-3.0537230968475302" lat="43.2680625915526988">
        <ele>371.0</ele>
        <time>2012-07-08T11:32:24.000Z</time>
      </trkpt>
      <trkpt lon="-3.0538659095764200" lat="43.2682647705077983">
        <ele>366.0</ele>
        <time>2012-07-08T11:32:26.000Z</time>
      </trkpt>
      <trkpt lon="-3.0540254116058301" lat="43.2683944702148011">
        <ele>361.0</ele>
        <time>2012-07-08T11:32:28.000Z</time>
      </trkpt>
      <trkpt lon="-3.0543363094329798" lat="43.2684974670410014">
        <ele>357.0</ele>
        <time>2012-07-08T11:32:31.000Z</time>
      </trkpt>
      <trkpt lon="-3.0547091960907000" lat="43.2685432434082031">
        <ele>356.0</ele>
        <time>2012-07-08T11:32:34.000Z</time>
      </trkpt>
      <trkpt lon="-3.0550310611724898" lat="43.2686538696288991">
        <ele>355.0</ele>
        <time>2012-07-08T11:32:38.000Z</time>
      </trkpt>
      <trkpt lon="-3.0551736354827899" lat="43.2687492370604971">
        <ele>356.0</ele>
        <time>2012-07-08T11:32:39.000Z</time>
      </trkpt>
      <trkpt lon="-3.0552699565887398" lat="43.2688484191894034">
        <ele>357.0</ele>
        <time>2012-07-08T11:32:41.000Z</time>
      </trkpt>
      <trkpt lon="-3.0553729534149201" lat="43.2690238952637003">
        <ele>357.0</ele>
        <time>2012-07-08T11:32:44.000Z</time>
      </trkpt>
      <trkpt lon="-3.0554945468902601" lat="43.2692642211913991">
        <ele>356.0</ele>
        <time>2012-07-08T11:32:47.000Z</time>
      </trkpt>
      <trkpt lon="-3.0556490421295202" lat="43.2693405151366974">
        <ele>355.0</ele>
        <time>2012-07-08T11:32:49.000Z</time>
      </trkpt>
      <trkpt lon="-3.0559446811675999" lat="43.2694244384765980">
        <ele>355.0</ele>
        <time>2012-07-08T11:32:52.000Z</time>
      </trkpt>
      <trkpt lon="-3.0560312271118200" lat="43.2694931030273011">
        <ele>355.0</ele>
        <time>2012-07-08T11:32:54.000Z</time>
      </trkpt>
      <trkpt lon="-3.0560452938079798" lat="43.2695999145508026">
        <ele>356.0</ele>
        <time>2012-07-08T11:32:57.000Z</time>
      </trkpt>
      <trkpt lon="-3.0559756755828902" lat="43.2697029113769034">
        <ele>357.0</ele>
        <time>2012-07-08T11:33:00.000Z</time>
      </trkpt>
      <trkpt lon="-3.0559806823730500" lat="43.2698326110839986">
        <ele>357.0</ele>
        <time>2012-07-08T11:33:02.000Z</time>
      </trkpt>
      <trkpt lon="-3.0560083389282200" lat="43.2699241638184020">
        <ele>356.0</ele>
        <time>2012-07-08T11:33:04.000Z</time>
      </trkpt>
      <trkpt lon="-3.0560753345489502" lat="43.2700614929199006">
        <ele>354.0</ele>
        <time>2012-07-08T11:33:08.000Z</time>
      </trkpt>
      <trkpt lon="-3.0561017990112300" lat="43.2701988220214986">
        <ele>352.0</ele>
        <time>2012-07-08T11:33:10.000Z</time>
      </trkpt>
      <trkpt lon="-3.0561211109161399" lat="43.2703781127929972">
        <ele>351.0</ele>
        <time>2012-07-08T11:33:13.000Z</time>
      </trkpt>
      <trkpt lon="-3.0561549663543701" lat="43.2705078125000000">
        <ele>350.0</ele>
        <time>2012-07-08T11:33:15.000Z</time>
      </trkpt>
      <trkpt lon="-3.0562129020690900" lat="43.2706909179687003">
        <ele>349.0</ele>
        <time>2012-07-08T11:33:18.000Z</time>
      </trkpt>
      <trkpt lon="-3.0562777519226101" lat="43.2707748413086009">
        <ele>348.0</ele>
        <time>2012-07-08T11:33:21.000Z</time>
      </trkpt>
      <trkpt lon="-3.0563318729400599" lat="43.2707710266112997">
        <ele>347.0</ele>
        <time>2012-07-08T11:33:23.000Z</time>
      </trkpt>
      <trkpt lon="-3.0565223693847701" lat="43.2707328796387003">
        <ele>348.0</ele>
        <time>2012-07-08T11:33:27.000Z</time>
      </trkpt>
      <trkpt lon="-3.0567352771759002" lat="43.2707633972167969">
        <ele>349.0</ele>
        <time>2012-07-08T11:33:30.000Z</time>
      </trkpt>
      <trkpt lon="-3.0568215847015399" lat="43.2707901000976989">
        <ele>350.0</ele>
        <time>2012-07-08T11:33:31.000Z</time>
      </trkpt>
      <trkpt lon="-3.0569050312042201" lat="43.2708282470702983">
        <ele>352.0</ele>
        <time>2012-07-08T11:33:33.000Z</time>
      </trkpt>
      <trkpt lon="-3.0570003986358598" lat="43.2708816528320028">
        <ele>353.0</ele>
        <time>2012-07-08T11:33:35.000Z</time>
      </trkpt>
      <trkpt lon="-3.0571713447570801" lat="43.2709884643554972">
        <ele>354.0</ele>
        <time>2012-07-08T11:33:38.000Z</time>
      </trkpt>
      <trkpt lon="-3.0576932430267298" lat="43.2712860107422017">
        <ele>354.0</ele>
        <time>2012-07-08T11:33:51.000Z</time>
      </trkpt>
      <trkpt lon="-3.0578424930572501" lat="43.2713890075684020">
        <ele>353.0</ele>
        <time>2012-07-08T11:33:55.000Z</time>
      </trkpt>
      <trkpt lon="-3.0579493045806898" lat="43.2714843750000000">
        <ele>353.0</ele>
        <time>2012-07-08T11:33:56.000Z</time>
      </trkpt>
      <trkpt lon="-3.0580337047576900" lat="43.2715682983398011">
        <ele>352.0</ele>
        <time>2012-07-08T11:33:59.000Z</time>
      </trkpt>
      <trkpt lon="-3.0582041740417498" lat="43.2716865539550994">
        <ele>350.0</ele>
        <time>2012-07-08T11:34:01.000Z</time>
      </trkpt>
      <trkpt lon="-3.0583343505859402" lat="43.2717399597167969">
        <ele>349.0</ele>
        <time>2012-07-08T11:34:03.000Z</time>
      </trkpt>
      <trkpt lon="-3.0586268901824898" lat="43.2718238830565980">
        <ele>347.0</ele>
        <time>2012-07-08T11:34:06.000Z</time>
      </trkpt>
      <trkpt lon="-3.0588693618774401" lat="43.2718429565429972">
        <ele>345.0</ele>
        <time>2012-07-08T11:34:09.000Z</time>
      </trkpt>
      <trkpt lon="-3.0591685771942099" lat="43.2717475891112997">
        <ele>344.0</ele>
        <time>2012-07-08T11:34:11.000Z</time>
      </trkpt>
      <trkpt lon="-3.0595829486846902" lat="43.2716560363769034">
        <ele>345.0</ele>
        <time>2012-07-08T11:34:16.000Z</time>
      </trkpt>
      <trkpt lon="-3.0597207546234100" lat="43.2716903686523011">
        <ele>347.0</ele>
        <time>2012-07-08T11:34:19.000Z</time>
      </trkpt>
      <trkpt lon="-3.0597214698791499" lat="43.2717475891112997">
        <ele>348.0</ele>
        <time>2012-07-08T11:34:21.000Z</time>
      </trkpt>
      <trkpt lon="-3.0596792697906499" lat="43.2719116210937003">
        <ele>349.0</ele>
        <time>2012-07-08T11:34:24.000Z</time>
      </trkpt>
      <trkpt lon="-3.0596094131469700" lat="43.2720832824707031">
        <ele>347.0</ele>
        <time>2012-07-08T11:34:27.000Z</time>
      </trkpt>
      <trkpt lon="-3.0596067905425999" lat="43.2722473144530966">
        <ele>345.0</ele>
        <time>2012-07-08T11:34:29.000Z</time>
      </trkpt>
      <trkpt lon="-3.0596745014190700" lat="43.2723770141601989">
        <ele>342.0</ele>
        <time>2012-07-08T11:34:31.000Z</time>
      </trkpt>
      <trkpt lon="-3.0597894191741899" lat="43.2724723815917969">
        <ele>340.0</ele>
        <time>2012-07-08T11:34:33.000Z</time>
      </trkpt>
      <trkpt lon="-3.0600092411041300" lat="43.2725906372070028">
        <ele>338.0</ele>
        <time>2012-07-08T11:34:36.000Z</time>
      </trkpt>
      <trkpt lon="-3.0602741241455100" lat="43.2726516723633026">
        <ele>338.0</ele>
        <time>2012-07-08T11:34:39.000Z</time>
      </trkpt>
      <trkpt lon="-3.0604417324066202" lat="43.2726707458496023">
        <ele>340.0</ele>
        <time>2012-07-08T11:34:42.000Z</time>
      </trkpt>
      <trkpt lon="-3.0605921745300302" lat="43.2726860046387003">
        <ele>342.0</ele>
        <time>2012-07-08T11:34:43.000Z</time>
      </trkpt>
      <trkpt lon="-3.0606641769409202" lat="43.2728042602538991">
        <ele>344.0</ele>
        <time>2012-07-08T11:34:46.000Z</time>
      </trkpt>
      <trkpt lon="-3.0606586933136000" lat="43.2728958129883026">
        <ele>346.0</ele>
        <time>2012-07-08T11:34:49.000Z</time>
      </trkpt>
      <trkpt lon="-3.0607018470764200" lat="43.2730484008788991">
        <ele>346.0</ele>
        <time>2012-07-08T11:34:52.000Z</time>
      </trkpt>
      <trkpt lon="-3.0607872009277299" lat="43.2731704711913991">
        <ele>345.0</ele>
        <time>2012-07-08T11:34:55.000Z</time>
      </trkpt>
      <trkpt lon="-3.0607616901397701" lat="43.2733116149901988">
        <ele>343.0</ele>
        <time>2012-07-08T11:34:57.000Z</time>
      </trkpt>
      <trkpt lon="-3.0606679916381800" lat="43.2734222412109020">
        <ele>341.0</ele>
        <time>2012-07-08T11:35:00.000Z</time>
      </trkpt>
      <trkpt lon="-3.0605440139770499" lat="43.2734947204589986">
        <ele>339.0</ele>
        <time>2012-07-08T11:35:03.000Z</time>
      </trkpt>
      <trkpt lon="-3.0604531764984100" lat="43.2735481262207031">
        <ele>337.0</ele>
        <time>2012-07-08T11:35:05.000Z</time>
      </trkpt>
      <trkpt lon="-3.0603449344635001" lat="43.2736282348633026">
        <ele>336.0</ele>
        <time>2012-07-08T11:35:09.000Z</time>
      </trkpt>
      <trkpt lon="-3.0602619647979701" lat="43.2737083435059020">
        <ele>336.0</ele>
        <time>2012-07-08T11:35:11.000Z</time>
      </trkpt>
      <trkpt lon="-3.0601570606231698" lat="43.2737770080565980">
        <ele>336.0</ele>
        <time>2012-07-08T11:35:14.000Z</time>
      </trkpt>
      <trkpt lon="-3.0600192546844500" lat="43.2738494873047017">
        <ele>337.0</ele>
        <time>2012-07-08T11:35:18.000Z</time>
      </trkpt>
      <trkpt lon="-3.0599303245544398" lat="43.2738838195800994">
        <ele>338.0</ele>
        <time>2012-07-08T11:35:21.000Z</time>
      </trkpt>
      <trkpt lon="-3.0598497390747101" lat="43.2739067077637003">
        <ele>339.0</ele>
        <time>2012-07-08T11:35:24.000Z</time>
      </trkpt>
      <trkpt lon="-3.0597972869872998" lat="43.2739181518554972">
        <ele>340.0</ele>
        <time>2012-07-08T11:35:27.000Z</time>
      </trkpt>
      <trkpt lon="-3.0597486495971702" lat="43.2739334106445028">
        <ele>341.0</ele>
        <time>2012-07-08T11:35:29.000Z</time>
      </trkpt>
      <trkpt lon="-3.0596773624420202" lat="43.2739601135253977">
        <ele>342.0</ele>
        <time>2012-07-08T11:35:32.000Z</time>
      </trkpt>
      <trkpt lon="-3.0595979690551798" lat="43.2739601135253977">
        <ele>343.0</ele>
        <time>2012-07-08T11:35:35.000Z</time>
      </trkpt>
      <trkpt lon="-3.0595157146453902" lat="43.2739677429199006">
        <ele>344.0</ele>
        <time>2012-07-08T11:35:38.000Z</time>
      </trkpt>
      <trkpt lon="-3.0594608783721902" lat="43.2739791870116974">
        <ele>345.0</ele>
        <time>2012-07-08T11:35:40.000Z</time>
      </trkpt>
      <trkpt lon="-3.0593140125274698" lat="43.2740097045898011">
        <ele>346.0</ele>
        <time>2012-07-08T11:35:44.000Z</time>
      </trkpt>
      <trkpt lon="-3.0592019557952899" lat="43.2740135192871023">
        <ele>347.0</ele>
        <time>2012-07-08T11:35:47.000Z</time>
      </trkpt>
      <trkpt lon="-3.0591287612914999" lat="43.2740135192871023">
        <ele>348.0</ele>
        <time>2012-07-08T11:35:49.000Z</time>
      </trkpt>
      <trkpt lon="-3.0590343475341801" lat="43.2740058898925994">
        <ele>349.0</ele>
        <time>2012-07-08T11:35:51.000Z</time>
      </trkpt>
      <trkpt lon="-3.0588994026184100" lat="43.2739906311035014">
        <ele>350.0</ele>
        <time>2012-07-08T11:35:55.000Z</time>
      </trkpt>
      <trkpt lon="-3.0587668418884300" lat="43.2739791870116974">
        <ele>351.0</ele>
        <time>2012-07-08T11:35:57.000Z</time>
      </trkpt>
      <trkpt lon="-3.0584714412689200" lat="43.2739334106445028">
        <ele>352.0</ele>
        <time>2012-07-08T11:36:03.000Z</time>
      </trkpt>
      <trkpt lon="-3.0578765869140598" lat="43.2738075256348012">
        <ele>352.0</ele>
        <time>2012-07-08T11:36:13.000Z</time>
      </trkpt>
      <trkpt lon="-3.0577104091644300" lat="43.2737693786621023">
        <ele>353.0</ele>
        <time>2012-07-08T11:36:16.000Z</time>
      </trkpt>
      <trkpt lon="-3.0571455955505402" lat="43.2735862731934020">
        <ele>353.0</ele>
        <time>2012-07-08T11:36:24.000Z</time>
      </trkpt>
      <trkpt lon="-3.0569767951965301" lat="43.2735099792479971">
        <ele>352.0</ele>
        <time>2012-07-08T11:36:27.000Z</time>
      </trkpt>
      <trkpt lon="-3.0568349361419700" lat="43.2734451293945028">
        <ele>351.0</ele>
        <time>2012-07-08T11:36:29.000Z</time>
      </trkpt>
      <trkpt lon="-3.0567088127136199" lat="43.2733917236327983">
        <ele>350.0</ele>
        <time>2012-07-08T11:36:31.000Z</time>
      </trkpt>
      <trkpt lon="-3.0565416812896702" lat="43.2733230590820028">
        <ele>349.0</ele>
        <time>2012-07-08T11:36:34.000Z</time>
      </trkpt>
      <trkpt lon="-3.0564267635345499" lat="43.2732887268065980">
        <ele>348.0</ele>
        <time>2012-07-08T11:36:36.000Z</time>
      </trkpt>
      <trkpt lon="-3.0563013553619398" lat="43.2732734680175994">
        <ele>348.0</ele>
        <time>2012-07-08T11:36:39.000Z</time>
      </trkpt>
      <trkpt lon="-3.0559110641479501" lat="43.2732696533202983">
        <ele>348.0</ele>
        <time>2012-07-08T11:36:44.000Z</time>
      </trkpt>
      <trkpt lon="-3.0557658672332799" lat="43.2733039855957031">
        <ele>349.0</ele>
        <time>2012-07-08T11:36:48.000Z</time>
      </trkpt>
      <trkpt lon="-3.0556366443634002" lat="43.2733650207519034">
        <ele>350.0</ele>
        <time>2012-07-08T11:36:50.000Z</time>
      </trkpt>
      <trkpt lon="-3.0554502010345499" lat="43.2734603881836009">
        <ele>351.0</ele>
        <time>2012-07-08T11:36:53.000Z</time>
      </trkpt>
      <trkpt lon="-3.0550963878631601" lat="43.2736701965332031">
        <ele>350.0</ele>
        <time>2012-07-08T11:36:58.000Z</time>
      </trkpt>
      <trkpt lon="-3.0549640655517600" lat="43.2737464904785014">
        <ele>349.0</ele>
        <time>2012-07-08T11:37:00.000Z</time>
      </trkpt>
      <trkpt lon="-3.0546891689300502" lat="43.2739143371582031">
        <ele>348.0</ele>
        <time>2012-07-08T11:37:05.000Z</time>
      </trkpt>
      <trkpt lon="-3.0541553497314502" lat="43.2741661071776988">
        <ele>348.0</ele>
        <time>2012-07-08T11:37:12.000Z</time>
      </trkpt>
      <trkpt lon="-3.0538940429687500" lat="43.2743225097655966">
        <ele>347.0</ele>
        <time>2012-07-08T11:37:17.000Z</time>
      </trkpt>
      <trkpt lon="-3.0538108348846400" lat="43.2745018005371023">
        <ele>346.0</ele>
        <time>2012-07-08T11:37:21.000Z</time>
      </trkpt>
      <trkpt lon="-3.0537927150726301" lat="43.2746315002440980">
        <ele>344.0</ele>
        <time>2012-07-08T11:37:22.000Z</time>
      </trkpt>
      <trkpt lon="-3.0538642406463601" lat="43.2748222351074006">
        <ele>344.0</ele>
        <time>2012-07-08T11:37:25.000Z</time>
      </trkpt>
      <trkpt lon="-3.0539445877075200" lat="43.2749595642089986">
        <ele>345.0</ele>
        <time>2012-07-08T11:37:27.000Z</time>
      </trkpt>
      <trkpt lon="-3.0540266036987300" lat="43.2750968933104971">
        <ele>346.0</ele>
        <time>2012-07-08T11:37:29.000Z</time>
      </trkpt>
      <trkpt lon="-3.0541441440582302" lat="43.2752685546875000">
        <ele>349.0</ele>
        <time>2012-07-08T11:37:32.000Z</time>
      </trkpt>
      <trkpt lon="-3.0541839599609402" lat="43.2754096984862997">
        <ele>351.0</ele>
        <time>2012-07-08T11:37:35.000Z</time>
      </trkpt>
      <trkpt lon="-3.0541651248931898" lat="43.2755050659179972">
        <ele>353.0</ele>
        <time>2012-07-08T11:37:38.000Z</time>
      </trkpt>
      <trkpt lon="-3.0541167259216300" lat="43.2756118774413991">
        <ele>354.0</ele>
        <time>2012-07-08T11:37:39.000Z</time>
      </trkpt>
      <trkpt lon="-3.0540552139282200" lat="43.2757339477538991">
        <ele>355.0</ele>
        <time>2012-07-08T11:37:41.000Z</time>
      </trkpt>
      <trkpt lon="-3.0539550781250000" lat="43.2758216857910014">
        <ele>354.0</ele>
        <time>2012-07-08T11:37:43.000Z</time>
      </trkpt>
      <trkpt lon="-3.0538570880889901" lat="43.2759056091309020">
        <ele>353.0</ele>
        <time>2012-07-08T11:37:45.000Z</time>
      </trkpt>
      <trkpt lon="-3.0537667274475102" lat="43.2759780883788991">
        <ele>352.0</ele>
        <time>2012-07-08T11:37:47.000Z</time>
      </trkpt>
      <trkpt lon="-3.0536005496978800" lat="43.2760848999023011">
        <ele>352.0</ele>
        <time>2012-07-08T11:37:50.000Z</time>
      </trkpt>
      <trkpt lon="-3.0534701347351101" lat="43.2761573791503977">
        <ele>351.0</ele>
        <time>2012-07-08T11:37:52.000Z</time>
      </trkpt>
      <trkpt lon="-3.0533273220062300" lat="43.2762184143065980">
        <ele>350.0</ele>
        <time>2012-07-08T11:37:54.000Z</time>
      </trkpt>
      <trkpt lon="-3.0531067848205602" lat="43.2762756347655966">
        <ele>349.0</ele>
        <time>2012-07-08T11:37:58.000Z</time>
      </trkpt>
      <trkpt lon="-3.0528976917266801" lat="43.2763175964354971">
        <ele>350.0</ele>
        <time>2012-07-08T11:38:00.000Z</time>
      </trkpt>
      <trkpt lon="-3.0528008937835698" lat="43.2763710021973012">
        <ele>351.0</ele>
        <time>2012-07-08T11:38:02.000Z</time>
      </trkpt>
      <trkpt lon="-3.0526645183563201" lat="43.2764549255371023">
        <ele>352.0</ele>
        <time>2012-07-08T11:38:05.000Z</time>
      </trkpt>
      <trkpt lon="-3.0526089668273899" lat="43.2765083312987997">
        <ele>354.0</ele>
        <time>2012-07-08T11:38:07.000Z</time>
      </trkpt>
      <trkpt lon="-3.0525822639465301" lat="43.2765731811523011">
        <ele>355.0</ele>
        <time>2012-07-08T11:38:10.000Z</time>
      </trkpt>
      <trkpt lon="-3.0525786876678498" lat="43.2766342163086009">
        <ele>356.0</ele>
        <time>2012-07-08T11:38:13.000Z</time>
      </trkpt>
      <trkpt lon="-3.0526061058044398" lat="43.2766571044922017">
        <ele>357.0</ele>
        <time>2012-07-08T11:38:16.000Z</time>
      </trkpt>
      <trkpt lon="-3.0526745319366499" lat="43.2766876220702983">
        <ele>357.0</ele>
        <time>2012-07-08T11:38:19.000Z</time>
      </trkpt>
      <trkpt lon="-3.0527305603027299" lat="43.2767219543457031">
        <ele>358.0</ele>
        <time>2012-07-08T11:38:22.000Z</time>
      </trkpt>
      <trkpt lon="-3.0527315139770499" lat="43.2767677307128977">
        <ele>359.0</ele>
        <time>2012-07-08T11:38:26.000Z</time>
      </trkpt>
      <trkpt lon="-3.0526823997497599" lat="43.2767906188964986">
        <ele>359.0</ele>
        <time>2012-07-08T11:38:27.000Z</time>
      </trkpt>
      <trkpt lon="-3.0525856018066402" lat="43.2768135070800994">
        <ele>360.0</ele>
        <time>2012-07-08T11:38:31.000Z</time>
      </trkpt>
      <trkpt lon="-3.0525255203247101" lat="43.2768287658690980">
        <ele>361.0</ele>
        <time>2012-07-08T11:38:32.000Z</time>
      </trkpt>
      <trkpt lon="-3.0524435043335001" lat="43.2768554687500000">
        <ele>362.0</ele>
        <time>2012-07-08T11:38:35.000Z</time>
      </trkpt>
      <trkpt lon="-3.0523965358734100" lat="43.2768707275390980">
        <ele>363.0</ele>
        <time>2012-07-08T11:38:38.000Z</time>
      </trkpt>
      <trkpt lon="-3.0522813796997101" lat="43.2769241333008026">
        <ele>364.0</ele>
        <time>2012-07-08T11:38:43.000Z</time>
      </trkpt>
      <trkpt lon="-3.0522229671478298" lat="43.2769584655762003">
        <ele>366.0</ele>
        <time>2012-07-08T11:38:47.000Z</time>
      </trkpt>
      <trkpt lon="-3.0521712303161599" lat="43.2769813537598012">
        <ele>367.0</ele>
        <time>2012-07-08T11:38:50.000Z</time>
      </trkpt>
      <trkpt lon="-3.0521330833435099" lat="43.2770118713378977">
        <ele>368.0</ele>
        <time>2012-07-08T11:38:53.000Z</time>
      </trkpt>
      <trkpt lon="-3.0521016120910600" lat="43.2770347595214986">
        <ele>369.0</ele>
        <time>2012-07-08T11:38:54.000Z</time>
      </trkpt>
      <trkpt lon="-3.0520532131195099" lat="43.2770729064940980">
        <ele>370.0</ele>
        <time>2012-07-08T11:38:57.000Z</time>
      </trkpt>
      <trkpt lon="-3.0520083904266402" lat="43.2771034240723012">
        <ele>371.0</ele>
        <time>2012-07-08T11:39:00.000Z</time>
      </trkpt>
      <trkpt lon="-3.0519392490386998" lat="43.2771492004394034">
        <ele>372.0</ele>
        <time>2012-07-08T11:39:05.000Z</time>
      </trkpt>
      <trkpt lon="-3.0519137382507302" lat="43.2771644592285014">
        <ele>373.0</ele>
        <time>2012-07-08T11:39:08.000Z</time>
      </trkpt>
      <trkpt lon="-3.0518243312835698" lat="43.2771987915038991">
        <ele>374.0</ele>
        <time>2012-07-08T11:39:13.000Z</time>
      </trkpt>
      <trkpt lon="-3.0517542362213099" lat="43.2772216796875000">
        <ele>375.0</ele>
        <time>2012-07-08T11:39:16.000Z</time>
      </trkpt>
      <trkpt lon="-3.0517086982727002" lat="43.2772254943848012">
        <ele>375.0</ele>
        <time>2012-07-08T11:39:19.000Z</time>
      </trkpt>
      <trkpt lon="-3.0516579151153600" lat="43.2772407531737997">
        <ele>375.0</ele>
        <time>2012-07-08T11:39:22.000Z</time>
      </trkpt>
      <trkpt lon="-3.0516128540039098" lat="43.2772636413574006">
        <ele>376.0</ele>
        <time>2012-07-08T11:39:25.000Z</time>
      </trkpt>
      <trkpt lon="-3.0515432357788099" lat="43.2772941589354971">
        <ele>377.0</ele>
        <time>2012-07-08T11:39:31.000Z</time>
      </trkpt>
      <trkpt lon="-3.0514700412750200" lat="43.2772903442383026">
        <ele>377.0</ele>
        <time>2012-07-08T11:39:33.000Z</time>
      </trkpt>
      <trkpt lon="-3.0514492988586399" lat="43.2772598266601989">
        <ele>378.0</ele>
        <time>2012-07-08T11:39:35.000Z</time>
      </trkpt>
      <trkpt lon="-3.0514757633209202" lat="43.2772064208984020">
        <ele>378.0</ele>
        <time>2012-07-08T11:39:38.000Z</time>
      </trkpt>
      <trkpt lon="-3.0515558719635001" lat="43.2770767211913991">
        <ele>377.0</ele>
        <time>2012-07-08T11:39:43.000Z</time>
      </trkpt>
      <trkpt lon="-3.0515921115875200" lat="43.2770156860351989">
        <ele>376.0</ele>
        <time>2012-07-08T11:39:46.000Z</time>
      </trkpt>
      <trkpt lon="-3.0516083240509002" lat="43.2769584655762003">
        <ele>375.0</ele>
        <time>2012-07-08T11:39:48.000Z</time>
      </trkpt>
      <trkpt lon="-3.0516195297241202" lat="43.2768859863280966">
        <ele>374.0</ele>
        <time>2012-07-08T11:39:50.000Z</time>
      </trkpt>
      <trkpt lon="-3.0516400337219198" lat="43.2767601013184020">
        <ele>373.0</ele>
        <time>2012-07-08T11:39:53.000Z</time>
      </trkpt>
      <trkpt lon="-3.0516548156738299" lat="43.2766609191894034">
        <ele>372.0</ele>
        <time>2012-07-08T11:39:55.000Z</time>
      </trkpt>
      <trkpt lon="-3.0516664981842001" lat="43.2765884399413991">
        <ele>371.0</ele>
        <time>2012-07-08T11:39:58.000Z</time>
      </trkpt>
      <trkpt lon="-3.0516874790191602" lat="43.2764358520508026">
        <ele>370.0</ele>
        <time>2012-07-08T11:40:01.000Z</time>
      </trkpt>
      <trkpt lon="-3.0517060756683301" lat="43.2762565612792969">
        <ele>369.0</ele>
        <time>2012-07-08T11:40:04.000Z</time>
      </trkpt>
      <trkpt lon="-3.0516664981842001" lat="43.2757606506348012">
        <ele>368.0</ele>
        <time>2012-07-08T11:40:10.000Z</time>
      </trkpt>
      <trkpt lon="-3.0516755580902100" lat="43.2755699157714986">
        <ele>368.0</ele>
        <time>2012-07-08T11:40:12.000Z</time>
      </trkpt>
      <trkpt lon="-3.0516901016235298" lat="43.2753295898437003">
        <ele>366.0</ele>
        <time>2012-07-08T11:40:15.000Z</time>
      </trkpt>
      <trkpt lon="-3.0517039299011199" lat="43.2752037048339986">
        <ele>364.0</ele>
        <time>2012-07-08T11:40:16.000Z</time>
      </trkpt>
      <trkpt lon="-3.0517330169677699" lat="43.2750511169434020">
        <ele>362.0</ele>
        <time>2012-07-08T11:40:19.000Z</time>
      </trkpt>
      <trkpt lon="-3.0517382621765101" lat="43.2749671936035014">
        <ele>359.0</ele>
        <time>2012-07-08T11:40:22.000Z</time>
      </trkpt>
      <trkpt lon="-3.0517385005950901" lat="43.2749443054199006">
        <ele>357.0</ele>
        <time>2012-07-08T11:40:24.000Z</time>
      </trkpt>
      <trkpt lon="-3.0517385005950901" lat="43.2749443054199006">
        <ele>357.0</ele>
        <time>2012-07-08T11:40:45.000Z</time>
      </trkpt>
      <trkpt lon="-3.0516750812530500" lat="43.2749366760253977">
        <ele>356.0</ele>
        <time>2012-07-08T11:40:53.000Z</time>
      </trkpt>
      <trkpt lon="-3.0516777038574201" lat="43.2749099731445028">
        <ele>355.0</ele>
        <time>2012-07-08T11:41:00.000Z</time>
      </trkpt>
      <trkpt lon="-3.0516550540924099" lat="43.2748107910155966">
        <ele>354.0</ele>
        <time>2012-07-08T11:41:02.000Z</time>
      </trkpt>
      <trkpt lon="-3.0515987873077401" lat="43.2746009826660014">
        <ele>353.0</ele>
        <time>2012-07-08T11:41:07.000Z</time>
      </trkpt>
      <trkpt lon="-3.0515780448913601" lat="43.2745246887207031">
        <ele>351.0</ele>
        <time>2012-07-08T11:41:09.000Z</time>
      </trkpt>
      <trkpt lon="-3.0515422821044900" lat="43.2744445800780966">
        <ele>350.0</ele>
        <time>2012-07-08T11:41:11.000Z</time>
      </trkpt>
      <trkpt lon="-3.0515036582946800" lat="43.2743072509765980">
        <ele>348.0</ele>
        <time>2012-07-08T11:41:15.000Z</time>
      </trkpt>
      <trkpt lon="-3.0514740943908700" lat="43.2742156982422017">
        <ele>347.0</ele>
        <time>2012-07-08T11:41:17.000Z</time>
      </trkpt>
      <trkpt lon="-3.0514261722564702" lat="43.2740745544434020">
        <ele>345.0</ele>
        <time>2012-07-08T11:41:20.000Z</time>
      </trkpt>
      <trkpt lon="-3.0513210296630899" lat="43.2739524841309020">
        <ele>344.0</ele>
        <time>2012-07-08T11:41:23.000Z</time>
      </trkpt>
      <trkpt lon="-3.0512235164642298" lat="43.2738609313964986">
        <ele>343.0</ele>
        <time>2012-07-08T11:41:24.000Z</time>
      </trkpt>
      <trkpt lon="-3.0511388778686501" lat="43.2737846374512003">
        <ele>342.0</ele>
        <time>2012-07-08T11:41:26.000Z</time>
      </trkpt>
      <trkpt lon="-3.0510058403015101" lat="43.2736892700195028">
        <ele>341.0</ele>
        <time>2012-07-08T11:41:29.000Z</time>
      </trkpt>
      <trkpt lon="-3.0508418083190900" lat="43.2735862731934020">
        <ele>340.0</ele>
        <time>2012-07-08T11:41:32.000Z</time>
      </trkpt>
      <trkpt lon="-3.0505204200744598" lat="43.2734222412109020">
        <ele>339.0</ele>
        <time>2012-07-08T11:41:39.000Z</time>
      </trkpt>
      <trkpt lon="-3.0505204200744598" lat="43.2734222412109020">
        <ele>339.0</ele>
        <time>2012-07-08T11:41:59.000Z</time>
      </trkpt>
      <trkpt lon="-3.0504298210143999" lat="43.2734298706054972">
        <ele>339.0</ele>
        <time>2012-07-08T11:42:11.000Z</time>
      </trkpt>
      <trkpt lon="-3.0503025054931601" lat="43.2733917236327983">
        <ele>339.0</ele>
        <time>2012-07-08T11:42:16.000Z</time>
      </trkpt>
      <trkpt lon="-3.0501320362091100" lat="43.2733688354491974">
        <ele>340.0</ele>
        <time>2012-07-08T11:42:26.000Z</time>
      </trkpt>
      <trkpt lon="-3.0500981807708700" lat="43.2733688354491974">
        <ele>340.0</ele>
        <time>2012-07-08T11:42:29.000Z</time>
      </trkpt>
      <trkpt lon="-3.0500364303588898" lat="43.2733726501464986">
        <ele>341.0</ele>
        <time>2012-07-08T11:42:33.000Z</time>
      </trkpt>
      <trkpt lon="-3.0500202178955100" lat="43.2733764648437003">
        <ele>341.0</ele>
        <time>2012-07-08T11:42:35.000Z</time>
      </trkpt>
      <trkpt lon="-3.0499823093414302" lat="43.2733688354491974">
        <ele>342.0</ele>
        <time>2012-07-08T11:42:40.000Z</time>
      </trkpt>
      <trkpt lon="-3.0499217510223402" lat="43.2733764648437003">
        <ele>342.0</ele>
        <time>2012-07-08T11:42:47.000Z</time>
      </trkpt>
      <trkpt lon="-3.0498571395874001" lat="43.2733764648437003">
        <ele>342.0</ele>
        <time>2012-07-08T11:42:52.000Z</time>
      </trkpt>
      <trkpt lon="-3.0497882366180402" lat="43.2734031677246023">
        <ele>343.0</ele>
        <time>2012-07-08T11:42:59.000Z</time>
      </trkpt>
      <trkpt lon="-3.0497186183929399" lat="43.2734298706054972">
        <ele>344.0</ele>
        <time>2012-07-08T11:43:04.000Z</time>
      </trkpt>
      <trkpt lon="-3.0496997833252002" lat="43.2734260559082031">
        <ele>344.0</ele>
        <time>2012-07-08T11:43:07.000Z</time>
      </trkpt>
      <trkpt lon="-3.0496492385864298" lat="43.2734222412109020">
        <ele>345.0</ele>
        <time>2012-07-08T11:43:10.000Z</time>
      </trkpt>
      <trkpt lon="-3.0490858554840101" lat="43.2733154296875000">
        <ele>345.0</ele>
        <time>2012-07-08T11:43:22.000Z</time>
      </trkpt>
      <trkpt lon="-3.0489885807037398" lat="43.2732658386229971">
        <ele>345.0</ele>
        <time>2012-07-08T11:43:24.000Z</time>
      </trkpt>
      <trkpt lon="-3.0487678050994900" lat="43.2731056213378977">
        <ele>345.0</ele>
        <time>2012-07-08T11:43:29.000Z</time>
      </trkpt>
      <trkpt lon="-3.0486676692962602" lat="43.2729682922362997">
        <ele>346.0</ele>
        <time>2012-07-08T11:43:32.000Z</time>
      </trkpt>
      <trkpt lon="-3.0485982894897501" lat="43.2728347778320028">
        <ele>346.0</ele>
        <time>2012-07-08T11:43:36.000Z</time>
      </trkpt>
      <trkpt lon="-3.0485329627990700" lat="43.2727127075195028">
        <ele>345.0</ele>
        <time>2012-07-08T11:43:39.000Z</time>
      </trkpt>
      <trkpt lon="-3.0484824180603001" lat="43.2725219726562003">
        <ele>344.0</ele>
        <time>2012-07-08T11:43:44.000Z</time>
      </trkpt>
      <trkpt lon="-3.0484290122985800" lat="43.2723960876464986">
        <ele>343.0</ele>
        <time>2012-07-08T11:43:47.000Z</time>
      </trkpt>
      <trkpt lon="-3.0483767986297599" lat="43.2723121643065980">
        <ele>342.0</ele>
        <time>2012-07-08T11:43:49.000Z</time>
      </trkpt>
      <trkpt lon="-3.0482974052429199" lat="43.2722091674804972">
        <ele>341.0</ele>
        <time>2012-07-08T11:43:52.000Z</time>
      </trkpt>
      <trkpt lon="-3.0482265949249299" lat="43.2721481323241974">
        <ele>340.0</ele>
        <time>2012-07-08T11:43:54.000Z</time>
      </trkpt>
      <trkpt lon="-3.0481202602386501" lat="43.2720489501952983">
        <ele>339.0</ele>
        <time>2012-07-08T11:43:58.000Z</time>
      </trkpt>
      <trkpt lon="-3.0479590892791699" lat="43.2719421386719034">
        <ele>339.0</ele>
        <time>2012-07-08T11:44:01.000Z</time>
      </trkpt>
      <trkpt lon="-3.0477218627929701" lat="43.2718391418457031">
        <ele>339.0</ele>
        <time>2012-07-08T11:44:06.000Z</time>
      </trkpt>
      <trkpt lon="-3.0470492839813201" lat="43.2716178894042969">
        <ele>340.0</ele>
        <time>2012-07-08T11:44:18.000Z</time>
      </trkpt>
      <trkpt lon="-3.0469193458557098" lat="43.2715835571288991">
        <ele>341.0</ele>
        <time>2012-07-08T11:44:19.000Z</time>
      </trkpt>
      <trkpt lon="-3.0467352867126500" lat="43.2715263366699006">
        <ele>342.0</ele>
        <time>2012-07-08T11:44:22.000Z</time>
      </trkpt>
      <trkpt lon="-3.0464992523193399" lat="43.2714424133300994">
        <ele>343.0</ele>
        <time>2012-07-08T11:44:25.000Z</time>
      </trkpt>
      <trkpt lon="-3.0460121631622301" lat="43.2712516784667969">
        <ele>342.0</ele>
        <time>2012-07-08T11:44:32.000Z</time>
      </trkpt>
      <trkpt lon="-3.0458126068115199" lat="43.2711906433104971">
        <ele>340.0</ele>
        <time>2012-07-08T11:44:36.000Z</time>
      </trkpt>
      <trkpt lon="-3.0455987453460698" lat="43.2711486816405966">
        <ele>337.0</ele>
        <time>2012-07-08T11:44:38.000Z</time>
      </trkpt>
      <trkpt lon="-3.0454602241516100" lat="43.2711639404297017">
        <ele>335.0</ele>
        <time>2012-07-08T11:44:41.000Z</time>
      </trkpt>
      <trkpt lon="-3.0452628135681201" lat="43.2711944580077983">
        <ele>333.0</ele>
        <time>2012-07-08T11:44:43.000Z</time>
      </trkpt>
      <trkpt lon="-3.0449068546295202" lat="43.2712669372559020">
        <ele>332.0</ele>
        <time>2012-07-08T11:44:50.000Z</time>
      </trkpt>
      <trkpt lon="-3.0447630882263201" lat="43.2712974548339986">
        <ele>333.0</ele>
        <time>2012-07-08T11:44:52.000Z</time>
      </trkpt>
      <trkpt lon="-3.0445775985717800" lat="43.2713317871094034">
        <ele>334.0</ele>
        <time>2012-07-08T11:44:55.000Z</time>
      </trkpt>
      <trkpt lon="-3.0441093444824201" lat="43.2714653015137003">
        <ele>335.0</ele>
        <time>2012-07-08T11:45:03.000Z</time>
      </trkpt>
      <trkpt lon="-3.0440368652343701" lat="43.2715034484862997">
        <ele>336.0</ele>
        <time>2012-07-08T11:45:06.000Z</time>
      </trkpt>
      <trkpt lon="-3.0439181327819802" lat="43.2715110778809020">
        <ele>338.0</ele>
        <time>2012-07-08T11:45:09.000Z</time>
      </trkpt>
      <trkpt lon="-3.0437941551208501" lat="43.2714920043945028">
        <ele>339.0</ele>
        <time>2012-07-08T11:45:10.000Z</time>
      </trkpt>
      <trkpt lon="-3.0436341762542698" lat="43.2714614868163991">
        <ele>340.0</ele>
        <time>2012-07-08T11:45:14.000Z</time>
      </trkpt>
      <trkpt lon="-3.0434668064117401" lat="43.2714233398437003">
        <ele>339.0</ele>
        <time>2012-07-08T11:45:17.000Z</time>
      </trkpt>
      <trkpt lon="-3.0433595180511501" lat="43.2713966369628977">
        <ele>338.0</ele>
        <time>2012-07-08T11:45:19.000Z</time>
      </trkpt>
      <trkpt lon="-3.0432448387146001" lat="43.2713699340820028">
        <ele>336.0</ele>
        <time>2012-07-08T11:45:21.000Z</time>
      </trkpt>
      <trkpt lon="-3.0430667400360099" lat="43.2713432312012003">
        <ele>335.0</ele>
        <time>2012-07-08T11:45:24.000Z</time>
      </trkpt>
      <trkpt lon="-3.0429396629333501" lat="43.2713279724121023">
        <ele>334.0</ele>
        <time>2012-07-08T11:45:25.000Z</time>
      </trkpt>
      <trkpt lon="-3.0428171157836901" lat="43.2712974548339986">
        <ele>334.0</ele>
        <time>2012-07-08T11:45:27.000Z</time>
      </trkpt>
      <trkpt lon="-3.0423591136932400" lat="43.2711715698241974">
        <ele>333.0</ele>
        <time>2012-07-08T11:45:36.000Z</time>
      </trkpt>
      <trkpt lon="-3.0420928001403800" lat="43.2710800170898011">
        <ele>332.0</ele>
        <time>2012-07-08T11:45:41.000Z</time>
      </trkpt>
      <trkpt lon="-3.0420112609863299" lat="43.2710494995116974">
        <ele>331.0</ele>
        <time>2012-07-08T11:45:43.000Z</time>
      </trkpt>
      <trkpt lon="-3.0419514179229701" lat="43.2710342407226989">
        <ele>331.0</ele>
        <time>2012-07-08T11:45:46.000Z</time>
      </trkpt>
      <trkpt lon="-3.0418300628662100" lat="43.2709999084473012">
        <ele>330.0</ele>
        <time>2012-07-08T11:45:49.000Z</time>
      </trkpt>
      <trkpt lon="-3.0416789054870601" lat="43.2709426879883026">
        <ele>329.0</ele>
        <time>2012-07-08T11:45:52.000Z</time>
      </trkpt>
      <trkpt lon="-3.0415651798248300" lat="43.2709159851074006">
        <ele>329.0</ele>
        <time>2012-07-08T11:45:53.000Z</time>
      </trkpt>
      <trkpt lon="-3.0413732528686501" lat="43.2708740234375000">
        <ele>328.0</ele>
        <time>2012-07-08T11:45:56.000Z</time>
      </trkpt>
      <trkpt lon="-3.0412306785583501" lat="43.2708587646484020">
        <ele>327.0</ele>
        <time>2012-07-08T11:45:58.000Z</time>
      </trkpt>
      <trkpt lon="-3.0410950183868399" lat="43.2708625793457031">
        <ele>326.0</ele>
        <time>2012-07-08T11:46:01.000Z</time>
      </trkpt>
      <trkpt lon="-3.0403985977172798" lat="43.2708663940429972">
        <ele>327.0</ele>
        <time>2012-07-08T11:46:10.000Z</time>
      </trkpt>
      <trkpt lon="-3.0398344993591300" lat="43.2709236145019034">
        <ele>328.0</ele>
        <time>2012-07-08T11:46:20.000Z</time>
      </trkpt>
      <trkpt lon="-3.0396604537963898" lat="43.2709770202637003">
        <ele>328.0</ele>
        <time>2012-07-08T11:46:23.000Z</time>
      </trkpt>
      <trkpt lon="-3.0395457744598402" lat="43.2710075378417969">
        <ele>329.0</ele>
        <time>2012-07-08T11:46:25.000Z</time>
      </trkpt>
      <trkpt lon="-3.0393528938293501" lat="43.2710647583008026">
        <ele>330.0</ele>
        <time>2012-07-08T11:46:27.000Z</time>
      </trkpt>
      <trkpt lon="-3.0390737056732200" lat="43.2711753845214986">
        <ele>331.0</ele>
        <time>2012-07-08T11:46:32.000Z</time>
      </trkpt>
      <trkpt lon="-3.0389733314514200" lat="43.2712249755859020">
        <ele>332.0</ele>
        <time>2012-07-08T11:46:35.000Z</time>
      </trkpt>
      <trkpt lon="-3.0388250350952100" lat="43.2713127136229971">
        <ele>333.0</ele>
        <time>2012-07-08T11:46:37.000Z</time>
      </trkpt>
      <trkpt lon="-3.0387260913848899" lat="43.2713661193848012">
        <ele>334.0</ele>
        <time>2012-07-08T11:46:40.000Z</time>
      </trkpt>
      <trkpt lon="-3.0386469364166300" lat="43.2714500427246023">
        <ele>336.0</ele>
        <time>2012-07-08T11:46:42.000Z</time>
      </trkpt>
      <trkpt lon="-3.0386943817138699" lat="43.2714805603026988">
        <ele>337.0</ele>
        <time>2012-07-08T11:46:44.000Z</time>
      </trkpt>
      <trkpt lon="-3.0387876033782999" lat="43.2714881896973012">
        <ele>339.0</ele>
        <time>2012-07-08T11:46:47.000Z</time>
      </trkpt>
      <trkpt lon="-3.0388364791870099" lat="43.2714843750000000">
        <ele>340.0</ele>
        <time>2012-07-08T11:46:50.000Z</time>
      </trkpt>
      <trkpt lon="-3.0388741493225102" lat="43.2714767456054972">
        <ele>341.0</ele>
        <time>2012-07-08T11:46:52.000Z</time>
      </trkpt>
      <trkpt lon="-3.0389120578765900" lat="43.2714729309082031">
        <ele>342.0</ele>
        <time>2012-07-08T11:46:54.000Z</time>
      </trkpt>
      <trkpt lon="-3.0389540195465101" lat="43.2714538574219034">
        <ele>342.0</ele>
        <time>2012-07-08T11:46:57.000Z</time>
      </trkpt>
      <trkpt lon="-3.0389847755432098" lat="43.2714347839354971">
        <ele>342.0</ele>
        <time>2012-07-08T11:47:00.000Z</time>
      </trkpt>
      <trkpt lon="-3.0390152931213401" lat="43.2714004516601989">
        <ele>342.0</ele>
        <time>2012-07-08T11:47:03.000Z</time>
      </trkpt>
      <trkpt lon="-3.0390503406524698" lat="43.2713813781737997">
        <ele>342.0</ele>
        <time>2012-07-08T11:47:04.000Z</time>
      </trkpt>
      <trkpt lon="-3.0391304492950399" lat="43.2713546752929972">
        <ele>341.0</ele>
        <time>2012-07-08T11:47:08.000Z</time>
      </trkpt>
      <trkpt lon="-3.0392878055572501" lat="43.2713317871094034">
        <ele>341.0</ele>
        <time>2012-07-08T11:47:15.000Z</time>
      </trkpt>
      <trkpt lon="-3.0393347740173300" lat="43.2713317871094034">
        <ele>341.0</ele>
        <time>2012-07-08T11:47:18.000Z</time>
      </trkpt>
      <trkpt lon="-3.0393855571746800" lat="43.2713356018065980">
        <ele>342.0</ele>
        <time>2012-07-08T11:47:22.000Z</time>
      </trkpt>
      <trkpt lon="-3.0394246578216602" lat="43.2713394165038991">
        <ele>343.0</ele>
        <time>2012-07-08T11:47:24.000Z</time>
      </trkpt>
      <trkpt lon="-3.0394544601440399" lat="43.2713470458984020">
        <ele>343.0</ele>
        <time>2012-07-08T11:47:27.000Z</time>
      </trkpt>
      <trkpt lon="-3.0395309925079301" lat="43.2713546752929972">
        <ele>344.0</ele>
        <time>2012-07-08T11:47:30.000Z</time>
      </trkpt>
      <trkpt lon="-3.0395913124084499" lat="43.2713623046875000">
        <ele>346.0</ele>
        <time>2012-07-08T11:47:33.000Z</time>
      </trkpt>
      <trkpt lon="-3.0396363735199001" lat="43.2713699340820028">
        <ele>347.0</ele>
        <time>2012-07-08T11:47:35.000Z</time>
      </trkpt>
      <trkpt lon="-3.0396778583526598" lat="43.2713623046875000">
        <ele>348.0</ele>
        <time>2012-07-08T11:47:37.000Z</time>
      </trkpt>
      <trkpt lon="-3.0397064685821502" lat="43.2713508605957031">
        <ele>349.0</ele>
        <time>2012-07-08T11:47:39.000Z</time>
      </trkpt>
      <trkpt lon="-3.0398180484771702" lat="43.2713012695312003">
        <ele>350.0</ele>
        <time>2012-07-08T11:47:45.000Z</time>
      </trkpt>
      <trkpt lon="-3.0398554801940900" lat="43.2712860107422017">
        <ele>349.0</ele>
        <time>2012-07-08T11:47:48.000Z</time>
      </trkpt>
      <trkpt lon="-3.0399699211120601" lat="43.2712364196776988">
        <ele>348.0</ele>
        <time>2012-07-08T11:47:55.000Z</time>
      </trkpt>
      <trkpt lon="-3.0400283336639400" lat="43.2712287902832031">
        <ele>348.0</ele>
        <time>2012-07-08T11:47:58.000Z</time>
      </trkpt>
      <trkpt lon="-3.0400805473327601" lat="43.2712326049804972">
        <ele>348.0</ele>
        <time>2012-07-08T11:48:01.000Z</time>
      </trkpt>
      <trkpt lon="-3.0401020050048801" lat="43.2712402343750000">
        <ele>348.0</ele>
        <time>2012-07-08T11:48:04.000Z</time>
      </trkpt>
      <trkpt lon="-3.0401296615600599" lat="43.2712402343750000">
        <ele>349.0</ele>
        <time>2012-07-08T11:48:05.000Z</time>
      </trkpt>
      <trkpt lon="-3.0402424335479701" lat="43.2712364196776988">
        <ele>349.0</ele>
        <time>2012-07-08T11:48:10.000Z</time>
      </trkpt>
      <trkpt lon="-3.0403127670288099" lat="43.2712287902832031">
        <ele>350.0</ele>
        <time>2012-07-08T11:48:13.000Z</time>
      </trkpt>
      <trkpt lon="-3.0404989719390900" lat="43.2712287902832031">
        <ele>350.0</ele>
        <time>2012-07-08T11:48:20.000Z</time>
      </trkpt>
      <trkpt lon="-3.0405459403991699" lat="43.2712249755859020">
        <ele>351.0</ele>
        <time>2012-07-08T11:48:22.000Z</time>
      </trkpt>
      <trkpt lon="-3.0407717227935800" lat="43.2712135314940980">
        <ele>352.0</ele>
        <time>2012-07-08T11:48:31.000Z</time>
      </trkpt>
      <trkpt lon="-3.0408282279968302" lat="43.2712135314940980">
        <ele>352.0</ele>
        <time>2012-07-08T11:48:33.000Z</time>
      </trkpt>
      <trkpt lon="-3.0414404869079599" lat="43.2712974548339986">
        <ele>352.0</ele>
        <time>2012-07-08T11:48:50.000Z</time>
      </trkpt>
      <trkpt lon="-3.0415122509002699" lat="43.2713203430175994">
        <ele>353.0</ele>
        <time>2012-07-08T11:48:52.000Z</time>
      </trkpt>
      <trkpt lon="-3.0415847301483199" lat="43.2713394165038991">
        <ele>354.0</ele>
        <time>2012-07-08T11:48:54.000Z</time>
      </trkpt>
      <trkpt lon="-3.0416803359985298" lat="43.2713737487792969">
        <ele>355.0</ele>
        <time>2012-07-08T11:48:57.000Z</time>
      </trkpt>
      <trkpt lon="-3.0417408943176301" lat="43.2713966369628977">
        <ele>356.0</ele>
        <time>2012-07-08T11:48:59.000Z</time>
      </trkpt>
      <trkpt lon="-3.0418214797973602" lat="43.2714233398437003">
        <ele>357.0</ele>
        <time>2012-07-08T11:49:02.000Z</time>
      </trkpt>
      <trkpt lon="-3.0419480800628702" lat="43.2714614868163991">
        <ele>358.0</ele>
        <time>2012-07-08T11:49:07.000Z</time>
      </trkpt>
      <trkpt lon="-3.0420944690704301" lat="43.2715187072753977">
        <ele>359.0</ele>
        <time>2012-07-08T11:49:13.000Z</time>
      </trkpt>
      <trkpt lon="-3.0421280860900901" lat="43.2715377807616974">
        <ele>359.0</ele>
        <time>2012-07-08T11:49:16.000Z</time>
      </trkpt>
      <trkpt lon="-3.0421955585479701" lat="43.2715606689452983">
        <ele>360.0</ele>
        <time>2012-07-08T11:49:18.000Z</time>
      </trkpt>
      <trkpt lon="-3.0422928333282502" lat="43.2715911865234020">
        <ele>361.0</ele>
        <time>2012-07-08T11:49:22.000Z</time>
      </trkpt>
      <trkpt lon="-3.0424923896789502" lat="43.2716484069824006">
        <ele>362.0</ele>
        <time>2012-07-08T11:49:30.000Z</time>
      </trkpt>
      <trkpt lon="-3.0427701473236102" lat="43.2717323303223012">
        <ele>363.0</ele>
        <time>2012-07-08T11:49:38.000Z</time>
      </trkpt>
      <trkpt lon="-3.0429604053497301" lat="43.2718009948729971">
        <ele>364.0</ele>
        <time>2012-07-08T11:49:46.000Z</time>
      </trkpt>
      <trkpt lon="-3.0429947376251198" lat="43.2718200683594034">
        <ele>364.0</ele>
        <time>2012-07-08T11:49:48.000Z</time>
      </trkpt>
      <trkpt lon="-3.0431101322174099" lat="43.2718734741211009">
        <ele>365.0</ele>
        <time>2012-07-08T11:49:55.000Z</time>
      </trkpt>
      <trkpt lon="-3.0431699752807599" lat="43.2718925476074006">
        <ele>365.0</ele>
        <time>2012-07-08T11:49:57.000Z</time>
      </trkpt>
      <trkpt lon="-3.0432481765747101" lat="43.2719192504883026">
        <ele>366.0</ele>
        <time>2012-07-08T11:50:02.000Z</time>
      </trkpt>
      <trkpt lon="-3.0435078144073500" lat="43.2720298767089986">
        <ele>367.0</ele>
        <time>2012-07-08T11:50:32.000Z</time>
      </trkpt>
      <trkpt lon="-3.0435285568237300" lat="43.2720489501952983">
        <ele>367.0</ele>
        <time>2012-07-08T11:50:34.000Z</time>
      </trkpt>
      <trkpt lon="-3.0435435771942099" lat="43.2720642089844034">
        <ele>368.0</ele>
        <time>2012-07-08T11:50:35.000Z</time>
      </trkpt>
      <trkpt lon="-3.0435719490051301" lat="43.2720909118651988">
        <ele>369.0</ele>
        <time>2012-07-08T11:50:37.000Z</time>
      </trkpt>
      <trkpt lon="-3.0436155796050999" lat="43.2721633911133026">
        <ele>370.0</ele>
        <time>2012-07-08T11:50:44.000Z</time>
      </trkpt>
      <trkpt lon="-3.0436215400695801" lat="43.2721939086913991">
        <ele>371.0</ele>
        <time>2012-07-08T11:50:45.000Z</time>
      </trkpt>
      <trkpt lon="-3.0436272621154798" lat="43.2722358703612997">
        <ele>373.0</ele>
        <time>2012-07-08T11:50:47.000Z</time>
      </trkpt>
      <trkpt lon="-3.0436263084411599" lat="43.2722930908202983">
        <ele>374.0</ele>
        <time>2012-07-08T11:50:51.000Z</time>
      </trkpt>
      <trkpt lon="-3.0436213016510001" lat="43.2723464965820028">
        <ele>376.0</ele>
        <time>2012-07-08T11:50:54.000Z</time>
      </trkpt>
      <trkpt lon="-3.0436110496521001" lat="43.2723808288574006">
        <ele>378.0</ele>
        <time>2012-07-08T11:50:56.000Z</time>
      </trkpt>
      <trkpt lon="-3.0436151027679399" lat="43.2724189758300994">
        <ele>380.0</ele>
        <time>2012-07-08T11:50:58.000Z</time>
      </trkpt>
      <trkpt lon="-3.0436301231384300" lat="43.2724494934082031">
        <ele>381.0</ele>
        <time>2012-07-08T11:50:59.000Z</time>
      </trkpt>
      <trkpt lon="-3.0436439514160201" lat="43.2724952697753977">
        <ele>383.0</ele>
        <time>2012-07-08T11:51:02.000Z</time>
      </trkpt>
      <trkpt lon="-3.0436453819274898" lat="43.2725486755371023">
        <ele>384.0</ele>
        <time>2012-07-08T11:51:05.000Z</time>
      </trkpt>
      <trkpt lon="-3.0436532497406001" lat="43.2725868225098012">
        <ele>385.0</ele>
        <time>2012-07-08T11:51:07.000Z</time>
      </trkpt>
      <trkpt lon="-3.0436625480651900" lat="43.2726249694824006">
        <ele>387.0</ele>
        <time>2012-07-08T11:51:09.000Z</time>
      </trkpt>
      <trkpt lon="-3.0436718463897701" lat="43.2726631164550994">
        <ele>388.0</ele>
        <time>2012-07-08T11:51:11.000Z</time>
      </trkpt>
      <trkpt lon="-3.0436723232269300" lat="43.2726974487304972">
        <ele>389.0</ele>
        <time>2012-07-08T11:51:13.000Z</time>
      </trkpt>
      <trkpt lon="-3.0436654090881299" lat="43.2727317810059020">
        <ele>390.0</ele>
        <time>2012-07-08T11:51:16.000Z</time>
      </trkpt>
      <trkpt lon="-3.0436494350433301" lat="43.2727813720702983">
        <ele>391.0</ele>
        <time>2012-07-08T11:51:18.000Z</time>
      </trkpt>
      <trkpt lon="-3.0436222553253200" lat="43.2728347778320028">
        <ele>392.0</ele>
        <time>2012-07-08T11:51:21.000Z</time>
      </trkpt>
      <trkpt lon="-3.0436024665832502" lat="43.2728691101074006">
        <ele>393.0</ele>
        <time>2012-07-08T11:51:23.000Z</time>
      </trkpt>
      <trkpt lon="-3.0435667037963898" lat="43.2729034423827983">
        <ele>394.0</ele>
        <time>2012-07-08T11:51:25.000Z</time>
      </trkpt>
      <trkpt lon="-3.0434994697570801" lat="43.2729492187500000">
        <ele>396.0</ele>
        <time>2012-07-08T11:51:28.000Z</time>
      </trkpt>
      <trkpt lon="-3.0434734821319598" lat="43.2729797363280966">
        <ele>397.0</ele>
        <time>2012-07-08T11:51:30.000Z</time>
      </trkpt>
      <trkpt lon="-3.0434777736663801" lat="43.2730407714844034">
        <ele>399.0</ele>
        <time>2012-07-08T11:51:33.000Z</time>
      </trkpt>
      <trkpt lon="-3.0434904098510702" lat="43.2730827331542969">
        <ele>400.0</ele>
        <time>2012-07-08T11:51:36.000Z</time>
      </trkpt>
      <trkpt lon="-3.0435359477996800" lat="43.2731208801269034">
        <ele>402.0</ele>
        <time>2012-07-08T11:51:39.000Z</time>
      </trkpt>
      <trkpt lon="-3.0436158180236799" lat="43.2731857299804972">
        <ele>403.0</ele>
        <time>2012-07-08T11:51:43.000Z</time>
      </trkpt>
      <trkpt lon="-3.0436613559722900" lat="43.2732276916503977">
        <ele>404.0</ele>
        <time>2012-07-08T11:51:46.000Z</time>
      </trkpt>
      <trkpt lon="-3.0438418388366699" lat="43.2733993530273011">
        <ele>405.0</ele>
        <time>2012-07-08T11:51:59.000Z</time>
      </trkpt>
      <trkpt lon="-3.0439009666442902" lat="43.2734298706054972">
        <ele>405.0</ele>
        <time>2012-07-08T11:52:02.000Z</time>
      </trkpt>
      <trkpt lon="-3.0439438819885298" lat="43.2734794616699006">
        <ele>406.0</ele>
        <time>2012-07-08T11:52:06.000Z</time>
      </trkpt>
      <trkpt lon="-3.0439643859863299" lat="43.2735099792479971">
        <ele>406.0</ele>
        <time>2012-07-08T11:52:08.000Z</time>
      </trkpt>
      <trkpt lon="-3.0440075397491499" lat="43.2735557556151988">
        <ele>407.0</ele>
        <time>2012-07-08T11:52:10.000Z</time>
      </trkpt>
      <trkpt lon="-3.0440499782562300" lat="43.2736015319824006">
        <ele>408.0</ele>
        <time>2012-07-08T11:52:13.000Z</time>
      </trkpt>
      <trkpt lon="-3.0440847873687700" lat="43.2736358642577983">
        <ele>409.0</ele>
        <time>2012-07-08T11:52:16.000Z</time>
      </trkpt>
      <trkpt lon="-3.0441534519195601" lat="43.2737236022949006">
        <ele>410.0</ele>
        <time>2012-07-08T11:52:20.000Z</time>
      </trkpt>
      <trkpt lon="-3.0441734790802002" lat="43.2737464904785014">
        <ele>411.0</ele>
        <time>2012-07-08T11:52:22.000Z</time>
      </trkpt>
      <trkpt lon="-3.0442514419555700" lat="43.2737846374512003">
        <ele>412.0</ele>
        <time>2012-07-08T11:52:25.000Z</time>
      </trkpt>
      <trkpt lon="-3.0442972183227499" lat="43.2737922668457031">
        <ele>413.0</ele>
        <time>2012-07-08T11:52:28.000Z</time>
      </trkpt>
      <trkpt lon="-3.0443689823150599" lat="43.2737846374512003">
        <ele>414.0</ele>
        <time>2012-07-08T11:52:31.000Z</time>
      </trkpt>
      <trkpt lon="-3.0444452762603800" lat="43.2737846374512003">
        <ele>414.0</ele>
        <time>2012-07-08T11:52:35.000Z</time>
      </trkpt>
      <trkpt lon="-3.0446856021881099" lat="43.2738037109375000">
        <ele>415.0</ele>
        <time>2012-07-08T11:52:42.000Z</time>
      </trkpt>
      <trkpt lon="-3.0449366569518999" lat="43.2738533020019034">
        <ele>416.0</ele>
        <time>2012-07-08T11:52:51.000Z</time>
      </trkpt>
      <trkpt lon="-3.0449838638305700" lat="43.2738723754883026">
        <ele>416.0</ele>
        <time>2012-07-08T11:52:53.000Z</time>
      </trkpt>
      <trkpt lon="-3.0450725555419900" lat="43.2738990783690980">
        <ele>417.0</ele>
        <time>2012-07-08T11:52:56.000Z</time>
      </trkpt>
      <trkpt lon="-3.0451526641845699" lat="43.2739257812500000">
        <ele>418.0</ele>
        <time>2012-07-08T11:53:00.000Z</time>
      </trkpt>
      <trkpt lon="-3.0452034473419198" lat="43.2739562988280966">
        <ele>418.0</ele>
        <time>2012-07-08T11:53:03.000Z</time>
      </trkpt>
      <trkpt lon="-3.0452535152435298" lat="43.2739868164062003">
        <ele>419.0</ele>
        <time>2012-07-08T11:53:06.000Z</time>
      </trkpt>
      <trkpt lon="-3.0452990531921400" lat="43.2740097045898011">
        <ele>420.0</ele>
        <time>2012-07-08T11:53:08.000Z</time>
      </trkpt>
      <trkpt lon="-3.0453357696533199" lat="43.2740592956542969">
        <ele>421.0</ele>
        <time>2012-07-08T11:53:11.000Z</time>
      </trkpt>
      <trkpt lon="-3.0453774929046600" lat="43.2740821838378977">
        <ele>421.0</ele>
        <time>2012-07-08T11:53:14.000Z</time>
      </trkpt>
      <trkpt lon="-3.0454115867614702" lat="43.2740936279297017">
        <ele>422.0</ele>
        <time>2012-07-08T11:53:16.000Z</time>
      </trkpt>
      <trkpt lon="-3.0454535484314000" lat="43.2741355895996023">
        <ele>423.0</ele>
        <time>2012-07-08T11:53:19.000Z</time>
      </trkpt>
      <trkpt lon="-3.0455052852630602" lat="43.2741661071776988">
        <ele>423.0</ele>
        <time>2012-07-08T11:53:22.000Z</time>
      </trkpt>
      <trkpt lon="-3.0455386638641402" lat="43.2742118835449006">
        <ele>424.0</ele>
        <time>2012-07-08T11:53:25.000Z</time>
      </trkpt>
      <trkpt lon="-3.0455679893493701" lat="43.2742309570312003">
        <ele>425.0</ele>
        <time>2012-07-08T11:53:28.000Z</time>
      </trkpt>
      <trkpt lon="-3.0456178188324001" lat="43.2742462158202983">
        <ele>426.0</ele>
        <time>2012-07-08T11:53:30.000Z</time>
      </trkpt>
      <trkpt lon="-3.0457324981689502" lat="43.2742996215820028">
        <ele>427.0</ele>
        <time>2012-07-08T11:53:36.000Z</time>
      </trkpt>
      <trkpt lon="-3.0457601547241202" lat="43.2743301391601989">
        <ele>428.0</ele>
        <time>2012-07-08T11:53:39.000Z</time>
      </trkpt>
      <trkpt lon="-3.0457866191864000" lat="43.2743530273437003">
        <ele>428.0</ele>
        <time>2012-07-08T11:53:40.000Z</time>
      </trkpt>
      <trkpt lon="-3.0458230972289999" lat="43.2743644714354971">
        <ele>429.0</ele>
        <time>2012-07-08T11:53:42.000Z</time>
      </trkpt>
      <trkpt lon="-3.0459313392639200" lat="43.2743988037109020">
        <ele>430.0</ele>
        <time>2012-07-08T11:53:48.000Z</time>
      </trkpt>
      <trkpt lon="-3.0461070537567099" lat="43.2744827270508026">
        <ele>431.0</ele>
        <time>2012-07-08T11:53:59.000Z</time>
      </trkpt>
      <trkpt lon="-3.0461304187774698" lat="43.2745018005371023">
        <ele>431.0</ele>
        <time>2012-07-08T11:54:00.000Z</time>
      </trkpt>
      <trkpt lon="-3.0461483001709002" lat="43.2745437622070028">
        <ele>431.0</ele>
        <time>2012-07-08T11:54:03.000Z</time>
      </trkpt>
      <trkpt lon="-3.0461826324462900" lat="43.2746009826660014">
        <ele>432.0</ele>
        <time>2012-07-08T11:54:06.000Z</time>
      </trkpt>
      <trkpt lon="-3.0462217330932599" lat="43.2746467590332031">
        <ele>433.0</ele>
        <time>2012-07-08T11:54:09.000Z</time>
      </trkpt>
      <trkpt lon="-3.0463147163391100" lat="43.2747611999512003">
        <ele>434.0</ele>
        <time>2012-07-08T11:54:15.000Z</time>
      </trkpt>
      <trkpt lon="-3.0463461875915501" lat="43.2748107910155966">
        <ele>435.0</ele>
        <time>2012-07-08T11:54:18.000Z</time>
      </trkpt>
      <trkpt lon="-3.0463554859161399" lat="43.2748489379883026">
        <ele>436.0</ele>
        <time>2012-07-08T11:54:21.000Z</time>
      </trkpt>
      <trkpt lon="-3.0463688373565700" lat="43.2749061584473012">
        <ele>437.0</ele>
        <time>2012-07-08T11:54:23.000Z</time>
      </trkpt>
      <trkpt lon="-3.0463910102844198" lat="43.2749595642089986">
        <ele>438.0</ele>
        <time>2012-07-08T11:54:26.000Z</time>
      </trkpt>
      <trkpt lon="-3.0464148521423300" lat="43.2749938964844034">
        <ele>439.0</ele>
        <time>2012-07-08T11:54:30.000Z</time>
      </trkpt>
      <trkpt lon="-3.0464370250701900" lat="43.2750320434570028">
        <ele>440.0</ele>
        <time>2012-07-08T11:54:31.000Z</time>
      </trkpt>
      <trkpt lon="-3.0464725494384801" lat="43.2751007080077983">
        <ele>441.0</ele>
        <time>2012-07-08T11:54:35.000Z</time>
      </trkpt>
      <trkpt lon="-3.0465025901794398" lat="43.2751731872559020">
        <ele>442.0</ele>
        <time>2012-07-08T11:54:39.000Z</time>
      </trkpt>
      <trkpt lon="-3.0465574264526398" lat="43.2752685546875000">
        <ele>443.0</ele>
        <time>2012-07-08T11:54:42.000Z</time>
      </trkpt>
      <trkpt lon="-3.0466523170471200" lat="43.2754096984862997">
        <ele>444.0</ele>
        <time>2012-07-08T11:54:47.000Z</time>
      </trkpt>
      <trkpt lon="-3.0467157363891602" lat="43.2755165100098012">
        <ele>445.0</ele>
        <time>2012-07-08T11:54:50.000Z</time>
      </trkpt>
      <trkpt lon="-3.0468075275421098" lat="43.2756614685059020">
        <ele>446.0</ele>
        <time>2012-07-08T11:54:55.000Z</time>
      </trkpt>
      <trkpt lon="-3.0468688011169398" lat="43.2757034301758026">
        <ele>447.0</ele>
        <time>2012-07-08T11:54:57.000Z</time>
      </trkpt>
      <trkpt lon="-3.0469617843627899" lat="43.2757492065429972">
        <ele>447.0</ele>
        <time>2012-07-08T11:55:00.000Z</time>
      </trkpt>
      <trkpt lon="-3.0470223426818799" lat="43.2757606506348012">
        <ele>447.0</ele>
        <time>2012-07-08T11:55:02.000Z</time>
      </trkpt>
      <trkpt lon="-3.0472733974456800" lat="43.2758178710937003">
        <ele>446.0</ele>
        <time>2012-07-08T11:55:10.000Z</time>
      </trkpt>
      <trkpt lon="-3.0474052429199201" lat="43.2758598327637003">
        <ele>445.0</ele>
        <time>2012-07-08T11:55:15.000Z</time>
      </trkpt>
      <trkpt lon="-3.0474696159362802" lat="43.2758903503417969">
        <ele>445.0</ele>
        <time>2012-07-08T11:55:19.000Z</time>
      </trkpt>
      <trkpt lon="-3.0476984977722199" lat="43.2760391235351989">
        <ele>445.0</ele>
        <time>2012-07-08T11:55:29.000Z</time>
      </trkpt>
      <trkpt lon="-3.0477354526519802" lat="43.2760696411133026">
        <ele>446.0</ele>
        <time>2012-07-08T11:55:32.000Z</time>
      </trkpt>
      <trkpt lon="-3.0479052066803001" lat="43.2762031555175994">
        <ele>447.0</ele>
        <time>2012-07-08T11:55:39.000Z</time>
      </trkpt>
      <trkpt lon="-3.0479779243469198" lat="43.2762985229491974">
        <ele>447.0</ele>
        <time>2012-07-08T11:55:45.000Z</time>
      </trkpt>
      <trkpt lon="-3.0480241775512700" lat="43.2763671875000000">
        <ele>448.0</ele>
        <time>2012-07-08T11:55:48.000Z</time>
      </trkpt>
      <trkpt lon="-3.0480501651763898" lat="43.2764167785644034">
        <ele>448.0</ele>
        <time>2012-07-08T11:55:49.000Z</time>
      </trkpt>
      <trkpt lon="-3.0480833053588898" lat="43.2764892578125000">
        <ele>449.0</ele>
        <time>2012-07-08T11:55:52.000Z</time>
      </trkpt>
      <trkpt lon="-3.0480978488922101" lat="43.2765350341797017">
        <ele>449.0</ele>
        <time>2012-07-08T11:55:54.000Z</time>
      </trkpt>
      <trkpt lon="-3.0481097698211701" lat="43.2766075134276988">
        <ele>450.0</ele>
        <time>2012-07-08T11:55:57.000Z</time>
      </trkpt>
      <trkpt lon="-3.0481114387512198" lat="43.2766609191894034">
        <ele>451.0</ele>
        <time>2012-07-08T11:55:59.000Z</time>
      </trkpt>
      <trkpt lon="-3.0481004714965798" lat="43.2768287658690980">
        <ele>452.0</ele>
        <time>2012-07-08T11:56:05.000Z</time>
      </trkpt>
      <trkpt lon="-3.0480799674987802" lat="43.2768821716309020">
        <ele>452.0</ele>
        <time>2012-07-08T11:56:07.000Z</time>
      </trkpt>
      <trkpt lon="-3.0480549335479701" lat="43.2771186828612997">
        <ele>453.0</ele>
        <time>2012-07-08T11:56:13.000Z</time>
      </trkpt>
      <trkpt lon="-3.0481314659118701" lat="43.2772636413574006">
        <ele>453.0</ele>
        <time>2012-07-08T11:56:16.000Z</time>
      </trkpt>
      <trkpt lon="-3.0481939315795898" lat="43.2773628234862997">
        <ele>452.0</ele>
        <time>2012-07-08T11:56:19.000Z</time>
      </trkpt>
      <trkpt lon="-3.0482907295227002" lat="43.2775039672851989">
        <ele>451.0</ele>
        <time>2012-07-08T11:56:21.000Z</time>
      </trkpt>
      <trkpt lon="-3.0483677387237500" lat="43.2776260375976989">
        <ele>450.0</ele>
        <time>2012-07-08T11:56:24.000Z</time>
      </trkpt>
      <trkpt lon="-3.0484263896942099" lat="43.2776985168457031">
        <ele>448.0</ele>
        <time>2012-07-08T11:56:26.000Z</time>
      </trkpt>
      <trkpt lon="-3.0485267639160201" lat="43.2778205871582031">
        <ele>447.0</ele>
        <time>2012-07-08T11:56:29.000Z</time>
      </trkpt>
      <trkpt lon="-3.0485961437225302" lat="43.2779617309570028">
        <ele>445.0</ele>
        <time>2012-07-08T11:56:32.000Z</time>
      </trkpt>
      <trkpt lon="-3.0485823154449498" lat="43.2780494689940980">
        <ele>445.0</ele>
        <time>2012-07-08T11:56:35.000Z</time>
      </trkpt>
      <trkpt lon="-3.0484640598297101" lat="43.2781181335449006">
        <ele>445.0</ele>
        <time>2012-07-08T11:56:38.000Z</time>
      </trkpt>
      <trkpt lon="-3.0483736991882302" lat="43.2780990600586009">
        <ele>445.0</ele>
        <time>2012-07-08T11:56:40.000Z</time>
      </trkpt>
      <trkpt lon="-3.0482864379882799" lat="43.2780685424804972">
        <ele>446.0</ele>
        <time>2012-07-08T11:56:43.000Z</time>
      </trkpt>
      <trkpt lon="-3.0482308864593501" lat="43.2780532836913991">
        <ele>448.0</ele>
        <time>2012-07-08T11:56:45.000Z</time>
      </trkpt>
      <trkpt lon="-3.0481505393981898" lat="43.2780189514160014">
        <ele>449.0</ele>
        <time>2012-07-08T11:56:48.000Z</time>
      </trkpt>
      <trkpt lon="-3.0480866432189901" lat="43.2779693603515980">
        <ele>450.0</ele>
        <time>2012-07-08T11:56:51.000Z</time>
      </trkpt>
      <trkpt lon="-3.0480377674102801" lat="43.2779388427734020">
        <ele>451.0</ele>
        <time>2012-07-08T11:56:53.000Z</time>
      </trkpt>
      <trkpt lon="-3.0479867458343501" lat="43.2779006958008026">
        <ele>452.0</ele>
        <time>2012-07-08T11:56:55.000Z</time>
      </trkpt>
      <trkpt lon="-3.0479245185852002" lat="43.2778358459473012">
        <ele>453.0</ele>
        <time>2012-07-08T11:56:58.000Z</time>
      </trkpt>
      <trkpt lon="-3.0478818416595499" lat="43.2777900695800994">
        <ele>454.0</ele>
        <time>2012-07-08T11:57:00.000Z</time>
      </trkpt>
      <trkpt lon="-3.0478155612945601" lat="43.2777328491211009">
        <ele>455.0</ele>
        <time>2012-07-08T11:57:03.000Z</time>
      </trkpt>
      <trkpt lon="-3.0477724075317401" lat="43.2776908874512003">
        <ele>456.0</ele>
        <time>2012-07-08T11:57:05.000Z</time>
      </trkpt>
      <trkpt lon="-3.0477018356323202" lat="43.2776298522949006">
        <ele>458.0</ele>
        <time>2012-07-08T11:57:09.000Z</time>
      </trkpt>
      <trkpt lon="-3.0476558208465598" lat="43.2775878906250000">
        <ele>459.0</ele>
        <time>2012-07-08T11:57:11.000Z</time>
      </trkpt>
      <trkpt lon="-3.0476040840148899" lat="43.2775497436523011">
        <ele>460.0</ele>
        <time>2012-07-08T11:57:14.000Z</time>
      </trkpt>
      <trkpt lon="-3.0475492477417001" lat="43.2775154113769034">
        <ele>462.0</ele>
        <time>2012-07-08T11:57:14.000Z</time>
      </trkpt>
      <trkpt lon="-3.0474736690521200" lat="43.2774581909179972">
        <ele>463.0</ele>
        <time>2012-07-08T11:57:17.000Z</time>
      </trkpt>
      <trkpt lon="-3.0473847389221200" lat="43.2774047851562003">
        <ele>464.0</ele>
        <time>2012-07-08T11:57:20.000Z</time>
      </trkpt>
      <trkpt lon="-3.0473306179046600" lat="43.2773666381836009">
        <ele>465.0</ele>
        <time>2012-07-08T11:57:22.000Z</time>
      </trkpt>
      <trkpt lon="-3.0472638607025102" lat="43.2773094177246023">
        <ele>466.0</ele>
        <time>2012-07-08T11:57:25.000Z</time>
      </trkpt>
      <trkpt lon="-3.0471904277801500" lat="43.2772674560547017">
        <ele>467.0</ele>
        <time>2012-07-08T11:57:28.000Z</time>
      </trkpt>
      <trkpt lon="-3.0471549034118701" lat="43.2772331237792969">
        <ele>467.0</ele>
        <time>2012-07-08T11:57:31.000Z</time>
      </trkpt>
      <trkpt lon="-3.0470440387725799" lat="43.2771606445312003">
        <ele>467.0</ele>
        <time>2012-07-08T11:57:35.000Z</time>
      </trkpt>
      <trkpt lon="-3.0469834804534899" lat="43.2771186828612997">
        <ele>468.0</ele>
        <time>2012-07-08T11:57:39.000Z</time>
      </trkpt>
      <trkpt lon="-3.0469124317169198" lat="43.2770843505859020">
        <ele>468.0</ele>
        <time>2012-07-08T11:57:42.000Z</time>
      </trkpt>
      <trkpt lon="-3.0468666553497301" lat="43.2770538330077983">
        <ele>469.0</ele>
        <time>2012-07-08T11:57:44.000Z</time>
      </trkpt>
      <trkpt lon="-3.0467185974121098" lat="43.2769889831542969">
        <ele>470.0</ele>
        <time>2012-07-08T11:57:49.000Z</time>
      </trkpt>
      <trkpt lon="-3.0466699600219700" lat="43.2769737243651988">
        <ele>471.0</ele>
        <time>2012-07-08T11:57:51.000Z</time>
      </trkpt>
      <trkpt lon="-3.0466055870056201" lat="43.2769737243651988">
        <ele>471.0</ele>
        <time>2012-07-08T11:57:54.000Z</time>
      </trkpt>
      <trkpt lon="-3.0465385913848899" lat="43.2769775390625000">
        <ele>472.0</ele>
        <time>2012-07-08T11:57:57.000Z</time>
      </trkpt>
      <trkpt lon="-3.0464868545532200" lat="43.2769851684570028">
        <ele>473.0</ele>
        <time>2012-07-08T11:58:00.000Z</time>
      </trkpt>
      <trkpt lon="-3.0464229583740199" lat="43.2770271301269034">
        <ele>473.0</ele>
        <time>2012-07-08T11:58:03.000Z</time>
      </trkpt>
      <trkpt lon="-3.0464007854461701" lat="43.2770652770996023">
        <ele>473.0</ele>
        <time>2012-07-08T11:58:04.000Z</time>
      </trkpt>
      <trkpt lon="-3.0463860034942600" lat="43.2771034240723012">
        <ele>473.0</ele>
        <time>2012-07-08T11:58:06.000Z</time>
      </trkpt>
      <trkpt lon="-3.0463533401489298" lat="43.2771568298339986">
        <ele>473.0</ele>
        <time>2012-07-08T11:58:09.000Z</time>
      </trkpt>
      <trkpt lon="-3.0462896823883101" lat="43.2771987915038991">
        <ele>474.0</ele>
        <time>2012-07-08T11:58:12.000Z</time>
      </trkpt>
      <trkpt lon="-3.0462186336517298" lat="43.2771987915038991">
        <ele>474.0</ele>
        <time>2012-07-08T11:58:15.000Z</time>
      </trkpt>
      <trkpt lon="-3.0461645126342800" lat="43.2771720886229971">
        <ele>474.0</ele>
        <time>2012-07-08T11:58:16.000Z</time>
      </trkpt>
      <trkpt lon="-3.0461351871490501" lat="43.2771186828612997">
        <ele>474.0</ele>
        <time>2012-07-08T11:58:20.000Z</time>
      </trkpt>
      <trkpt lon="-3.0460920333862300" lat="43.2770729064940980">
        <ele>474.0</ele>
        <time>2012-07-08T11:58:22.000Z</time>
      </trkpt>
      <trkpt lon="-3.0460414886474600" lat="43.2770233154297017">
        <ele>475.0</ele>
        <time>2012-07-08T11:58:26.000Z</time>
      </trkpt>
      <trkpt lon="-3.0459861755371098" lat="43.2769813537598012">
        <ele>475.0</ele>
        <time>2012-07-08T11:58:29.000Z</time>
      </trkpt>
      <trkpt lon="-3.0459549427032502" lat="43.2769546508788991">
        <ele>476.0</ele>
        <time>2012-07-08T11:58:30.000Z</time>
      </trkpt>
      <trkpt lon="-3.0458226203918501" lat="43.2768325805663991">
        <ele>477.0</ele>
        <time>2012-07-08T11:58:38.000Z</time>
      </trkpt>
      <trkpt lon="-3.0456635951995801" lat="43.2767333984375000">
        <ele>478.0</ele>
        <time>2012-07-08T11:58:44.000Z</time>
      </trkpt>
      <trkpt lon="-3.0454852581024201" lat="43.2766342163086009">
        <ele>479.0</ele>
        <time>2012-07-08T11:58:49.000Z</time>
      </trkpt>
      <trkpt lon="-3.0454185009002699" lat="43.2765884399413991">
        <ele>480.0</ele>
        <time>2012-07-08T11:58:51.000Z</time>
      </trkpt>
      <trkpt lon="-3.0452146530151398" lat="43.2764434814452983">
        <ele>481.0</ele>
        <time>2012-07-08T11:58:58.000Z</time>
      </trkpt>
      <trkpt lon="-3.0450441837310800" lat="43.2763214111327983">
        <ele>482.0</ele>
        <time>2012-07-08T11:59:02.000Z</time>
      </trkpt>
      <trkpt lon="-3.0449681282043501" lat="43.2762870788574006">
        <ele>482.0</ele>
        <time>2012-07-08T11:59:05.000Z</time>
      </trkpt>
      <trkpt lon="-3.0448665618896502" lat="43.2762451171875000">
        <ele>483.0</ele>
        <time>2012-07-08T11:59:07.000Z</time>
      </trkpt>
      <trkpt lon="-3.0447413921356201" lat="43.2762031555175994">
        <ele>484.0</ele>
        <time>2012-07-08T11:59:11.000Z</time>
      </trkpt>
      <trkpt lon="-3.0446200370788601" lat="43.2761650085449006">
        <ele>485.0</ele>
        <time>2012-07-08T11:59:16.000Z</time>
      </trkpt>
      <trkpt lon="-3.0444788932800302" lat="43.2761268615723012">
        <ele>486.0</ele>
        <time>2012-07-08T11:59:21.000Z</time>
      </trkpt>
      <trkpt lon="-3.0443081855773899" lat="43.2761077880859020">
        <ele>486.0</ele>
        <time>2012-07-08T11:59:25.000Z</time>
      </trkpt>
      <trkpt lon="-3.0442311763763401" lat="43.2761039733887003">
        <ele>487.0</ele>
        <time>2012-07-08T11:59:27.000Z</time>
      </trkpt>
      <trkpt lon="-3.0441265106201199" lat="43.2760887145996023">
        <ele>488.0</ele>
        <time>2012-07-08T11:59:30.000Z</time>
      </trkpt>
      <trkpt lon="-3.0440235137939502" lat="43.2760620117187003">
        <ele>488.0</ele>
        <time>2012-07-08T11:59:34.000Z</time>
      </trkpt>
      <trkpt lon="-3.0439364910125701" lat="43.2760047912598012">
        <ele>489.0</ele>
        <time>2012-07-08T11:59:36.000Z</time>
      </trkpt>
      <trkpt lon="-3.0438799858093302" lat="43.2759666442871023">
        <ele>490.0</ele>
        <time>2012-07-08T11:59:38.000Z</time>
      </trkpt>
      <trkpt lon="-3.0438055992126500" lat="43.2759132385253977">
        <ele>491.0</ele>
        <time>2012-07-08T11:59:41.000Z</time>
      </trkpt>
      <trkpt lon="-3.0437433719635001" lat="43.2758560180663991">
        <ele>491.0</ele>
        <time>2012-07-08T11:59:44.000Z</time>
      </trkpt>
      <trkpt lon="-3.0435621738433798" lat="43.2757263183594034">
        <ele>492.0</ele>
        <time>2012-07-08T11:59:52.000Z</time>
      </trkpt>
      <trkpt lon="-3.0434913635253902" lat="43.2756919860839986">
        <ele>491.0</ele>
        <time>2012-07-08T11:59:56.000Z</time>
      </trkpt>
      <trkpt lon="-3.0431952476501500" lat="43.2755889892577983">
        <ele>491.0</ele>
        <time>2012-07-08T12:00:08.000Z</time>
      </trkpt>
      <trkpt lon="-3.0431208610534699" lat="43.2755737304687003">
        <ele>491.0</ele>
        <time>2012-07-08T12:00:11.000Z</time>
      </trkpt>
      <trkpt lon="-3.0429801940918000" lat="43.2755393981934020">
        <ele>492.0</ele>
        <time>2012-07-08T12:00:15.000Z</time>
      </trkpt>
      <trkpt lon="-3.0429224967956499" lat="43.2755317687987997">
        <ele>492.0</ele>
        <time>2012-07-08T12:00:17.000Z</time>
      </trkpt>
      <trkpt lon="-3.0427787303924601" lat="43.2755279541015980">
        <ele>492.0</ele>
        <time>2012-07-08T12:00:23.000Z</time>
      </trkpt>
      <trkpt lon="-3.0426928997039799" lat="43.2755432128905966">
        <ele>493.0</ele>
        <time>2012-07-08T12:00:26.000Z</time>
      </trkpt>
      <trkpt lon="-3.0425355434417698" lat="43.2756004333496023">
        <ele>494.0</ele>
        <time>2012-07-08T12:00:30.000Z</time>
      </trkpt>
      <trkpt lon="-3.0424504280090301" lat="43.2756500244140980">
        <ele>495.0</ele>
        <time>2012-07-08T12:00:33.000Z</time>
      </trkpt>
      <trkpt lon="-3.0423567295074498" lat="43.2757148742675994">
        <ele>496.0</ele>
        <time>2012-07-08T12:00:36.000Z</time>
      </trkpt>
      <trkpt lon="-3.0421183109283398" lat="43.2758369445800994">
        <ele>497.0</ele>
        <time>2012-07-08T12:00:42.000Z</time>
      </trkpt>
      <trkpt lon="-3.0419569015502899" lat="43.2759323120116974">
        <ele>498.0</ele>
        <time>2012-07-08T12:00:46.000Z</time>
      </trkpt>
      <trkpt lon="-3.0418479442596400" lat="43.2760162353515980">
        <ele>498.0</ele>
        <time>2012-07-08T12:00:49.000Z</time>
      </trkpt>
      <trkpt lon="-3.0417468547821001" lat="43.2760620117187003">
        <ele>498.0</ele>
        <time>2012-07-08T12:00:51.000Z</time>
      </trkpt>
      <trkpt lon="-3.0415618419647199" lat="43.2761688232422017">
        <ele>497.0</ele>
        <time>2012-07-08T12:00:55.000Z</time>
      </trkpt>
      <trkpt lon="-3.0413656234741202" lat="43.2763214111327983">
        <ele>497.0</ele>
        <time>2012-07-08T12:00:58.000Z</time>
      </trkpt>
      <trkpt lon="-3.0411763191223100" lat="43.2765159606934020">
        <ele>496.0</ele>
        <time>2012-07-08T12:01:01.000Z</time>
      </trkpt>
      <trkpt lon="-3.0410201549529998" lat="43.2766304016112997">
        <ele>495.0</ele>
        <time>2012-07-08T12:01:02.000Z</time>
      </trkpt>
      <trkpt lon="-3.0408911705017099" lat="43.2767906188964986">
        <ele>493.0</ele>
        <time>2012-07-08T12:01:06.000Z</time>
      </trkpt>
      <trkpt lon="-3.0408077239990199" lat="43.2769584655762003">
        <ele>492.0</ele>
        <time>2012-07-08T12:01:09.000Z</time>
      </trkpt>
      <trkpt lon="-3.0407352447509801" lat="43.2771034240723012">
        <ele>491.0</ele>
        <time>2012-07-08T12:01:12.000Z</time>
      </trkpt>
      <trkpt lon="-3.0406110286712602" lat="43.2772598266601989">
        <ele>491.0</ele>
        <time>2012-07-08T12:01:15.000Z</time>
      </trkpt>
      <trkpt lon="-3.0403826236724898" lat="43.2774620056151988">
        <ele>492.0</ele>
        <time>2012-07-08T12:01:21.000Z</time>
      </trkpt>
      <trkpt lon="-3.0402159690856898" lat="43.2774810791015980">
        <ele>494.0</ele>
        <time>2012-07-08T12:01:24.000Z</time>
      </trkpt>
      <trkpt lon="-3.0401325225830100" lat="43.2774772644042969">
        <ele>495.0</ele>
        <time>2012-07-08T12:01:26.000Z</time>
      </trkpt>
      <trkpt lon="-3.0400629043579102" lat="43.2774658203125000">
        <ele>497.0</ele>
        <time>2012-07-08T12:01:29.000Z</time>
      </trkpt>
      <trkpt lon="-3.0400056838989298" lat="43.2774581909179972">
        <ele>498.0</ele>
        <time>2012-07-08T12:01:30.000Z</time>
      </trkpt>
      <trkpt lon="-3.0399563312530500" lat="43.2774391174315980">
        <ele>499.0</ele>
        <time>2012-07-08T12:01:32.000Z</time>
      </trkpt>
      <trkpt lon="-3.0398747920989999" lat="43.2774276733398011">
        <ele>499.0</ele>
        <time>2012-07-08T12:01:35.000Z</time>
      </trkpt>
      <trkpt lon="-3.0398225784301798" lat="43.2774162292479971">
        <ele>500.0</ele>
        <time>2012-07-08T12:01:38.000Z</time>
      </trkpt>
      <trkpt lon="-3.0397114753723100" lat="43.2773857116699006">
        <ele>499.0</ele>
        <time>2012-07-08T12:01:42.000Z</time>
      </trkpt>
      <trkpt lon="-3.0396711826324498" lat="43.2773666381836009">
        <ele>499.0</ele>
        <time>2012-07-08T12:01:46.000Z</time>
      </trkpt>
      <trkpt lon="-3.0396120548248300" lat="43.2773551940917969">
        <ele>499.0</ele>
        <time>2012-07-08T12:01:48.000Z</time>
      </trkpt>
      <trkpt lon="-3.0394659042358398" lat="43.2773323059082031">
        <ele>498.0</ele>
        <time>2012-07-08T12:01:56.000Z</time>
      </trkpt>
      <trkpt lon="-3.0394241809845002" lat="43.2773361206054972">
        <ele>498.0</ele>
        <time>2012-07-08T12:01:58.000Z</time>
      </trkpt>
      <trkpt lon="-3.0393581390380899" lat="43.2773513793945028">
        <ele>498.0</ele>
        <time>2012-07-08T12:02:00.000Z</time>
      </trkpt>
      <trkpt lon="-3.0393264293670699" lat="43.2773628234862997">
        <ele>499.0</ele>
        <time>2012-07-08T12:02:03.000Z</time>
      </trkpt>
      <trkpt lon="-3.0392861366271999" lat="43.2773895263672017">
        <ele>499.0</ele>
        <time>2012-07-08T12:02:06.000Z</time>
      </trkpt>
      <trkpt lon="-3.0392501354217498" lat="43.2774085998535014">
        <ele>500.0</ele>
        <time>2012-07-08T12:02:08.000Z</time>
      </trkpt>
      <trkpt lon="-3.0392084121704102" lat="43.2774429321288991">
        <ele>502.0</ele>
        <time>2012-07-08T12:02:10.000Z</time>
      </trkpt>
      <trkpt lon="-3.0391671657562300" lat="43.2774658203125000">
        <ele>503.0</ele>
        <time>2012-07-08T12:02:13.000Z</time>
      </trkpt>
      <trkpt lon="-3.0391128063201900" lat="43.2774848937987997">
        <ele>504.0</ele>
        <time>2012-07-08T12:02:16.000Z</time>
      </trkpt>
      <trkpt lon="-3.0390632152557400" lat="43.2774925231934020">
        <ele>506.0</ele>
        <time>2012-07-08T12:02:17.000Z</time>
      </trkpt>
      <trkpt lon="-3.0390183925628702" lat="43.2775039672851989">
        <ele>507.0</ele>
        <time>2012-07-08T12:02:20.000Z</time>
      </trkpt>
      <trkpt lon="-3.0389926433563201" lat="43.2775115966797017">
        <ele>508.0</ele>
        <time>2012-07-08T12:02:22.000Z</time>
      </trkpt>
      <trkpt lon="-3.0389344692230198" lat="43.2775154113769034">
        <ele>508.0</ele>
        <time>2012-07-08T12:02:26.000Z</time>
      </trkpt>
      <trkpt lon="-3.0389080047607400" lat="43.2775268554687003">
        <ele>509.0</ele>
        <time>2012-07-08T12:02:28.000Z</time>
      </trkpt>
      <trkpt lon="-3.0388417243957502" lat="43.2775459289550994">
        <ele>509.0</ele>
        <time>2012-07-08T12:02:32.000Z</time>
      </trkpt>
      <trkpt lon="-3.0387520790100102" lat="43.2775611877440980">
        <ele>509.0</ele>
        <time>2012-07-08T12:02:37.000Z</time>
      </trkpt>
      <trkpt lon="-3.0386724472045898" lat="43.2775955200195028">
        <ele>509.0</ele>
        <time>2012-07-08T12:02:41.000Z</time>
      </trkpt>
      <trkpt lon="-3.0386352539062500" lat="43.2776222229003977">
        <ele>509.0</ele>
        <time>2012-07-08T12:02:44.000Z</time>
      </trkpt>
      <trkpt lon="-3.0386281013488801" lat="43.2776336669922017">
        <ele>510.0</ele>
        <time>2012-07-08T12:02:46.000Z</time>
      </trkpt>
      <trkpt lon="-3.0384178161621098" lat="43.2778892517089986">
        <ele>510.0</ele>
        <time>2012-07-08T12:03:06.000Z</time>
      </trkpt>
      <trkpt lon="-3.0383501052856401" lat="43.2779350280762003">
        <ele>511.0</ele>
        <time>2012-07-08T12:03:09.000Z</time>
      </trkpt>
      <trkpt lon="-3.0383176803588898" lat="43.2779655456542969">
        <ele>511.0</ele>
        <time>2012-07-08T12:03:11.000Z</time>
      </trkpt>
      <trkpt lon="-3.0382642745971702" lat="43.2780036926269034">
        <ele>511.0</ele>
        <time>2012-07-08T12:03:14.000Z</time>
      </trkpt>
      <trkpt lon="-3.0381734371185298" lat="43.2780494689940980">
        <ele>512.0</ele>
        <time>2012-07-08T12:03:17.000Z</time>
      </trkpt>
      <trkpt lon="-3.0380780696868901" lat="43.2780685424804972">
        <ele>513.0</ele>
        <time>2012-07-08T12:03:20.000Z</time>
      </trkpt>
      <trkpt lon="-3.0379936695098899" lat="43.2780838012695028">
        <ele>514.0</ele>
        <time>2012-07-08T12:03:21.000Z</time>
      </trkpt>
      <trkpt lon="-3.0379366874694802" lat="43.2780952453612997">
        <ele>515.0</ele>
        <time>2012-07-08T12:03:24.000Z</time>
      </trkpt>
      <trkpt lon="-3.0378062725067099" lat="43.2781181335449006">
        <ele>517.0</ele>
        <time>2012-07-08T12:03:26.000Z</time>
      </trkpt>
      <trkpt lon="-3.0377018451690700" lat="43.2781295776366974">
        <ele>518.0</ele>
        <time>2012-07-08T12:03:29.000Z</time>
      </trkpt>
      <trkpt lon="-3.0376584529876700" lat="43.2781295776366974">
        <ele>519.0</ele>
        <time>2012-07-08T12:03:31.000Z</time>
      </trkpt>
      <trkpt lon="-3.0375981330871600" lat="43.2781219482422017">
        <ele>520.0</ele>
        <time>2012-07-08T12:03:35.000Z</time>
      </trkpt>
      <trkpt lon="-3.0375311374664302" lat="43.2781181335449006">
        <ele>521.0</ele>
        <time>2012-07-08T12:03:38.000Z</time>
      </trkpt>
      <trkpt lon="-3.0374679565429701" lat="43.2781181335449006">
        <ele>522.0</ele>
        <time>2012-07-08T12:03:41.000Z</time>
      </trkpt>
      <trkpt lon="-3.0374169349670401" lat="43.2781181335449006">
        <ele>523.0</ele>
        <time>2012-07-08T12:03:42.000Z</time>
      </trkpt>
      <trkpt lon="-3.0373730659484899" lat="43.2781219482422017">
        <ele>524.0</ele>
        <time>2012-07-08T12:03:44.000Z</time>
      </trkpt>
      <trkpt lon="-3.0373024940490700" lat="43.2781524658202983">
        <ele>524.0</ele>
        <time>2012-07-08T12:03:48.000Z</time>
      </trkpt>
      <trkpt lon="-3.0372512340545699" lat="43.2781600952148011">
        <ele>525.0</ele>
        <time>2012-07-08T12:03:49.000Z</time>
      </trkpt>
      <trkpt lon="-3.0371973514556898" lat="43.2781715393065980">
        <ele>526.0</ele>
        <time>2012-07-08T12:03:51.000Z</time>
      </trkpt>
      <trkpt lon="-3.0370392799377401" lat="43.2782249450684020">
        <ele>527.0</ele>
        <time>2012-07-08T12:03:57.000Z</time>
      </trkpt>
      <trkpt lon="-3.0369889736175502" lat="43.2782440185547017">
        <ele>528.0</ele>
        <time>2012-07-08T12:03:59.000Z</time>
      </trkpt>
      <trkpt lon="-3.0369253158569300" lat="43.2782516479491974">
        <ele>528.0</ele>
        <time>2012-07-08T12:04:01.000Z</time>
      </trkpt>
      <trkpt lon="-3.0368244647979701" lat="43.2782516479491974">
        <ele>529.0</ele>
        <time>2012-07-08T12:04:04.000Z</time>
      </trkpt>
      <trkpt lon="-3.0367376804351802" lat="43.2782478332519034">
        <ele>530.0</ele>
        <time>2012-07-08T12:04:07.000Z</time>
      </trkpt>
      <trkpt lon="-3.0366172790527299" lat="43.2782478332519034">
        <ele>531.0</ele>
        <time>2012-07-08T12:04:10.000Z</time>
      </trkpt>
      <trkpt lon="-3.0365583896636998" lat="43.2782402038574006">
        <ele>532.0</ele>
        <time>2012-07-08T12:04:11.000Z</time>
      </trkpt>
      <trkpt lon="-3.0364999771118200" lat="43.2782211303711009">
        <ele>533.0</ele>
        <time>2012-07-08T12:04:13.000Z</time>
      </trkpt>
      <trkpt lon="-3.0364406108856201" lat="43.2781982421875000">
        <ele>534.0</ele>
        <time>2012-07-08T12:04:15.000Z</time>
      </trkpt>
      <trkpt lon="-3.0363907814025901" lat="43.2781791687012003">
        <ele>535.0</ele>
        <time>2012-07-08T12:04:18.000Z</time>
      </trkpt>
      <trkpt lon="-3.0363245010375999" lat="43.2781448364258026">
        <ele>535.0</ele>
        <time>2012-07-08T12:04:20.000Z</time>
      </trkpt>
      <trkpt lon="-3.0362713336944598" lat="43.2781105041503977">
        <ele>536.0</ele>
        <time>2012-07-08T12:04:23.000Z</time>
      </trkpt>
      <trkpt lon="-3.0362231731414799" lat="43.2780952453612997">
        <ele>537.0</ele>
        <time>2012-07-08T12:04:26.000Z</time>
      </trkpt>
      <trkpt lon="-3.0360836982727002" lat="43.2780532836913991">
        <ele>538.0</ele>
        <time>2012-07-08T12:04:32.000Z</time>
      </trkpt>
      <trkpt lon="-3.0360281467437700" lat="43.2780189514160014">
        <ele>539.0</ele>
        <time>2012-07-08T12:04:35.000Z</time>
      </trkpt>
      <trkpt lon="-3.0358760356903098" lat="43.2779273986815980">
        <ele>540.0</ele>
        <time>2012-07-08T12:04:42.000Z</time>
      </trkpt>
      <trkpt lon="-3.0357136726379399" lat="43.2778434753417969">
        <ele>541.0</ele>
        <time>2012-07-08T12:04:49.000Z</time>
      </trkpt>
      <trkpt lon="-3.0351343154907200" lat="43.2775955200195028">
        <ele>541.0</ele>
        <time>2012-07-08T12:05:03.000Z</time>
      </trkpt>
      <trkpt lon="-3.0350580215454102" lat="43.2775993347167969">
        <ele>541.0</ele>
        <time>2012-07-08T12:05:06.000Z</time>
      </trkpt>
      <trkpt lon="-3.0348229408264200" lat="43.2776374816894034">
        <ele>541.0</ele>
        <time>2012-07-08T12:05:10.000Z</time>
      </trkpt>
      <trkpt lon="-3.0346813201904301" lat="43.2776298522949006">
        <ele>541.0</ele>
        <time>2012-07-08T12:05:14.000Z</time>
      </trkpt>
      <trkpt lon="-3.0343160629272501" lat="43.2775573730469034">
        <ele>541.0</ele>
        <time>2012-07-08T12:05:20.000Z</time>
      </trkpt>
      <trkpt lon="-3.0341799259185800" lat="43.2774848937987997">
        <ele>541.0</ele>
        <time>2012-07-08T12:05:23.000Z</time>
      </trkpt>
      <trkpt lon="-3.0340511798858598" lat="43.2773780822753977">
        <ele>540.0</ele>
        <time>2012-07-08T12:05:29.000Z</time>
      </trkpt>
      <trkpt lon="-3.0339415073394802" lat="43.2772712707519034">
        <ele>539.0</ele>
        <time>2012-07-08T12:05:34.000Z</time>
      </trkpt>
      <trkpt lon="-3.0338535308837900" lat="43.2772331237792969">
        <ele>538.0</ele>
        <time>2012-07-08T12:05:36.000Z</time>
      </trkpt>
      <trkpt lon="-3.0336942672729501" lat="43.2771606445312003">
        <ele>537.0</ele>
        <time>2012-07-08T12:05:42.000Z</time>
      </trkpt>
      <trkpt lon="-3.0333137512207000" lat="43.2770233154297017">
        <ele>537.0</ele>
        <time>2012-07-08T12:06:22.000Z</time>
      </trkpt>
      <trkpt lon="-3.0332596302032502" lat="43.2770118713378977">
        <ele>537.0</ele>
        <time>2012-07-08T12:06:24.000Z</time>
      </trkpt>
      <trkpt lon="-3.0331692695617698" lat="43.2769813537598012">
        <ele>537.0</ele>
        <time>2012-07-08T12:06:27.000Z</time>
      </trkpt>
      <trkpt lon="-3.0328152179718000" lat="43.2768135070800994">
        <ele>537.0</ele>
        <time>2012-07-08T12:06:37.000Z</time>
      </trkpt>
      <trkpt lon="-3.0326194763183598" lat="43.2766914367675994">
        <ele>536.0</ele>
        <time>2012-07-08T12:06:39.000Z</time>
      </trkpt>
      <trkpt lon="-3.0323553085327100" lat="43.2765960693359020">
        <ele>536.0</ele>
        <time>2012-07-08T12:06:43.000Z</time>
      </trkpt>
      <trkpt lon="-3.0320420265197798" lat="43.2765350341797017">
        <ele>534.0</ele>
        <time>2012-07-08T12:06:45.000Z</time>
      </trkpt>
      <trkpt lon="-3.0316700935363801" lat="43.2764663696288991">
        <ele>531.0</ele>
        <time>2012-07-08T12:06:48.000Z</time>
      </trkpt>
      <trkpt lon="-3.0313866138458199" lat="43.2764053344726989">
        <ele>529.0</ele>
        <time>2012-07-08T12:06:51.000Z</time>
      </trkpt>
      <trkpt lon="-3.0309534072875999" lat="43.2763442993163991">
        <ele>525.0</ele>
        <time>2012-07-08T12:06:54.000Z</time>
      </trkpt>
      <trkpt lon="-3.0306608676910400" lat="43.2763214111327983">
        <ele>522.0</ele>
        <time>2012-07-08T12:06:56.000Z</time>
      </trkpt>
      <trkpt lon="-3.0301818847656201" lat="43.2762832641601989">
        <ele>518.0</ele>
        <time>2012-07-08T12:06:59.000Z</time>
      </trkpt>
      <trkpt lon="-3.0298817157745401" lat="43.2762641906737997">
        <ele>516.0</ele>
        <time>2012-07-08T12:07:01.000Z</time>
      </trkpt>
      <trkpt lon="-3.0294332504272501" lat="43.2761917114258026">
        <ele>513.0</ele>
        <time>2012-07-08T12:07:04.000Z</time>
      </trkpt>
      <trkpt lon="-3.0291583538055402" lat="43.2761306762695028">
        <ele>510.0</ele>
        <time>2012-07-08T12:07:06.000Z</time>
      </trkpt>
      <trkpt lon="-3.0288925170898402" lat="43.2760581970214986">
        <ele>507.0</ele>
        <time>2012-07-08T12:07:08.000Z</time>
      </trkpt>
      <trkpt lon="-3.0285346508026101" lat="43.2759590148925994">
        <ele>505.0</ele>
        <time>2012-07-08T12:07:11.000Z</time>
      </trkpt>
      <trkpt lon="-3.0281431674957302" lat="43.2758598327637003">
        <ele>503.0</ele>
        <time>2012-07-08T12:07:14.000Z</time>
      </trkpt>
      <trkpt lon="-3.0278627872467001" lat="43.2757759094237997">
        <ele>501.0</ele>
        <time>2012-07-08T12:07:16.000Z</time>
      </trkpt>
      <trkpt lon="-3.0274622440338099" lat="43.2756881713866974">
        <ele>499.0</ele>
        <time>2012-07-08T12:07:19.000Z</time>
      </trkpt>
      <trkpt lon="-3.0270421504974401" lat="43.2756118774413991">
        <ele>497.0</ele>
        <time>2012-07-08T12:07:22.000Z</time>
      </trkpt>
      <trkpt lon="-3.0267207622528098" lat="43.2755355834961009">
        <ele>494.0</ele>
        <time>2012-07-08T12:07:25.000Z</time>
      </trkpt>
      <trkpt lon="-3.0263097286224401" lat="43.2754898071288991">
        <ele>491.0</ele>
        <time>2012-07-08T12:07:28.000Z</time>
      </trkpt>
      <trkpt lon="-3.0259118080139200" lat="43.2753562927246023">
        <ele>489.0</ele>
        <time>2012-07-08T12:07:31.000Z</time>
      </trkpt>
      <trkpt lon="-3.0254762172699001" lat="43.2752532958984020">
        <ele>486.0</ele>
        <time>2012-07-08T12:07:34.000Z</time>
      </trkpt>
      <trkpt lon="-3.0252249240875200" lat="43.2752647399901988">
        <ele>484.0</ele>
        <time>2012-07-08T12:07:36.000Z</time>
      </trkpt>
      <trkpt lon="-3.0248484611511199" lat="43.2753028869628977">
        <ele>482.0</ele>
        <time>2012-07-08T12:07:38.000Z</time>
      </trkpt>
      <trkpt lon="-3.0244839191436799" lat="43.2753067016601989">
        <ele>480.0</ele>
        <time>2012-07-08T12:07:41.000Z</time>
      </trkpt>
      <trkpt lon="-3.0241110324859601" lat="43.2753028869628977">
        <ele>478.0</ele>
        <time>2012-07-08T12:07:45.000Z</time>
      </trkpt>
      <trkpt lon="-3.0238785743713401" lat="43.2752723693848012">
        <ele>476.0</ele>
        <time>2012-07-08T12:07:46.000Z</time>
      </trkpt>
      <trkpt lon="-3.0235033035278298" lat="43.2752113342285014">
        <ele>472.0</ele>
        <time>2012-07-08T12:07:50.000Z</time>
      </trkpt>
      <trkpt lon="-3.0232443809509300" lat="43.2751617431640980">
        <ele>469.0</ele>
        <time>2012-07-08T12:07:52.000Z</time>
      </trkpt>
      <trkpt lon="-3.0229563713073699" lat="43.2750816345214986">
        <ele>465.0</ele>
        <time>2012-07-08T12:07:56.000Z</time>
      </trkpt>
      <trkpt lon="-3.0228116512298602" lat="43.2750091552734020">
        <ele>461.0</ele>
        <time>2012-07-08T12:07:59.000Z</time>
      </trkpt>
      <trkpt lon="-3.0225627422332799" lat="43.2748870849609020">
        <ele>458.0</ele>
        <time>2012-07-08T12:08:00.000Z</time>
      </trkpt>
      <trkpt lon="-3.0223412513732901" lat="43.2748413085937003">
        <ele>455.0</ele>
        <time>2012-07-08T12:08:01.000Z</time>
      </trkpt>
      <trkpt lon="-3.0220806598663299" lat="43.2748146057128977">
        <ele>451.0</ele>
        <time>2012-07-08T12:08:04.000Z</time>
      </trkpt>
      <trkpt lon="-3.0217189788818399" lat="43.2747192382812003">
        <ele>446.0</ele>
        <time>2012-07-08T12:08:07.000Z</time>
      </trkpt>
      <trkpt lon="-3.0214676856994598" lat="43.2745437622070028">
        <ele>443.0</ele>
        <time>2012-07-08T12:08:09.000Z</time>
      </trkpt>
      <trkpt lon="-3.0212306976318399" lat="43.2744178771973012">
        <ele>441.0</ele>
        <time>2012-07-08T12:08:13.000Z</time>
      </trkpt>
      <trkpt lon="-3.0210576057434100" lat="43.2744102478026988">
        <ele>439.0</ele>
        <time>2012-07-08T12:08:15.000Z</time>
      </trkpt>
      <trkpt lon="-3.0208265781402601" lat="43.2744293212890980">
        <ele>437.0</ele>
        <time>2012-07-08T12:08:17.000Z</time>
      </trkpt>
      <trkpt lon="-3.0205650329589799" lat="43.2744483947753977">
        <ele>436.0</ele>
        <time>2012-07-08T12:08:18.000Z</time>
      </trkpt>
      <trkpt lon="-3.0202827453613299" lat="43.2744483947753977">
        <ele>433.0</ele>
        <time>2012-07-08T12:08:20.000Z</time>
      </trkpt>
      <trkpt lon="-3.0198619365692099" lat="43.2743911743163991">
        <ele>428.0</ele>
        <time>2012-07-08T12:08:23.000Z</time>
      </trkpt>
      <trkpt lon="-3.0193653106689502" lat="43.2743301391601989">
        <ele>424.0</ele>
        <time>2012-07-08T12:08:27.000Z</time>
      </trkpt>
      <trkpt lon="-3.0190351009368901" lat="43.2743072509765980">
        <ele>420.0</ele>
        <time>2012-07-08T12:08:28.000Z</time>
      </trkpt>
      <trkpt lon="-3.0186369419097900" lat="43.2742614746094034">
        <ele>417.0</ele>
        <time>2012-07-08T12:08:32.000Z</time>
      </trkpt>
      <trkpt lon="-3.0183186531066899" lat="43.2742118835449006">
        <ele>414.0</ele>
        <time>2012-07-08T12:08:34.000Z</time>
      </trkpt>
      <trkpt lon="-3.0180783271789502" lat="43.2741661071776988">
        <ele>411.0</ele>
        <time>2012-07-08T12:08:37.000Z</time>
      </trkpt>
      <trkpt lon="-3.0176863670349099" lat="43.2740402221679972">
        <ele>409.0</ele>
        <time>2012-07-08T12:08:40.000Z</time>
      </trkpt>
      <trkpt lon="-3.0174055099487300" lat="43.2738685607910014">
        <ele>406.0</ele>
        <time>2012-07-08T12:08:43.000Z</time>
      </trkpt>
      <trkpt lon="-3.0173447132110600" lat="43.2736930847167969">
        <ele>404.0</ele>
        <time>2012-07-08T12:08:45.000Z</time>
      </trkpt>
      <trkpt lon="-3.0174400806427002" lat="43.2734794616699006">
        <ele>402.0</ele>
        <time>2012-07-08T12:08:48.000Z</time>
      </trkpt>
      <trkpt lon="-3.0176742076873802" lat="43.2733154296875000">
        <ele>401.0</ele>
        <time>2012-07-08T12:08:50.000Z</time>
      </trkpt>
      <trkpt lon="-3.0178959369659402" lat="43.2732505798339986">
        <ele>401.0</ele>
        <time>2012-07-08T12:08:53.000Z</time>
      </trkpt>
      <trkpt lon="-3.0182516574859601" lat="43.2731628417969034">
        <ele>402.0</ele>
        <time>2012-07-08T12:08:56.000Z</time>
      </trkpt>
      <trkpt lon="-3.0183186531066899" lat="43.2730865478515980">
        <ele>404.0</ele>
        <time>2012-07-08T12:08:59.000Z</time>
      </trkpt>
      <trkpt lon="-3.0181770324707000" lat="43.2730865478515980">
        <ele>404.0</ele>
        <time>2012-07-08T12:09:01.000Z</time>
      </trkpt>
      <trkpt lon="-3.0180296897888201" lat="43.2731132507324006">
        <ele>404.0</ele>
        <time>2012-07-08T12:09:03.000Z</time>
      </trkpt>
      <trkpt lon="-3.0178563594818102" lat="43.2731437683104971">
        <ele>403.0</ele>
        <time>2012-07-08T12:09:06.000Z</time>
      </trkpt>
      <trkpt lon="-3.0175571441650400" lat="43.2731704711913991">
        <ele>401.0</ele>
        <time>2012-07-08T12:09:09.000Z</time>
      </trkpt>
      <trkpt lon="-3.0173513889312700" lat="43.2732048034667969">
        <ele>399.0</ele>
        <time>2012-07-08T12:09:11.000Z</time>
      </trkpt>
      <trkpt lon="-3.0171597003936799" lat="43.2732543945312003">
        <ele>397.0</ele>
        <time>2012-07-08T12:09:12.000Z</time>
      </trkpt>
      <trkpt lon="-3.0169129371643102" lat="43.2733802795410014">
        <ele>394.0</ele>
        <time>2012-07-08T12:09:16.000Z</time>
      </trkpt>
      <trkpt lon="-3.0167381763458199" lat="43.2734947204589986">
        <ele>391.0</ele>
        <time>2012-07-08T12:09:18.000Z</time>
      </trkpt>
      <trkpt lon="-3.0165193080902100" lat="43.2736892700195028">
        <ele>388.0</ele>
        <time>2012-07-08T12:09:20.000Z</time>
      </trkpt>
      <trkpt lon="-3.0164434909820601" lat="43.2739372253417969">
        <ele>385.0</ele>
        <time>2012-07-08T12:09:24.000Z</time>
      </trkpt>
      <trkpt lon="-3.0165021419525102" lat="43.2740669250487997">
        <ele>383.0</ele>
        <time>2012-07-08T12:09:25.000Z</time>
      </trkpt>
      <trkpt lon="-3.0165877342224099" lat="43.2742042541503977">
        <ele>382.0</ele>
        <time>2012-07-08T12:09:28.000Z</time>
      </trkpt>
      <trkpt lon="-3.0167696475982702" lat="43.2744369506836009">
        <ele>381.0</ele>
        <time>2012-07-08T12:09:30.000Z</time>
      </trkpt>
      <trkpt lon="-3.0170333385467498" lat="43.2747001647949006">
        <ele>382.0</ele>
        <time>2012-07-08T12:09:33.000Z</time>
      </trkpt>
      <trkpt lon="-3.0173323154449498" lat="43.2748832702637003">
        <ele>382.0</ele>
        <time>2012-07-08T12:09:36.000Z</time>
      </trkpt>
      <trkpt lon="-3.0176773071289098" lat="43.2750320434570028">
        <ele>382.0</ele>
        <time>2012-07-08T12:09:40.000Z</time>
      </trkpt>
      <trkpt lon="-3.0180244445800799" lat="43.2751274108887003">
        <ele>381.0</ele>
        <time>2012-07-08T12:09:43.000Z</time>
      </trkpt>
      <trkpt lon="-3.0182690620422399" lat="43.2751426696776988">
        <ele>380.0</ele>
        <time>2012-07-08T12:09:45.000Z</time>
      </trkpt>
      <trkpt lon="-3.0185034275054901" lat="43.2751617431640980">
        <ele>379.0</ele>
        <time>2012-07-08T12:09:47.000Z</time>
      </trkpt>
      <trkpt lon="-3.0187876224517800" lat="43.2752952575684020">
        <ele>376.0</ele>
        <time>2012-07-08T12:09:50.000Z</time>
      </trkpt>
      <trkpt lon="-3.0190742015838601" lat="43.2754096984862997">
        <ele>374.0</ele>
        <time>2012-07-08T12:09:53.000Z</time>
      </trkpt>
      <trkpt lon="-3.0192751884460400" lat="43.2754592895508026">
        <ele>372.0</ele>
        <time>2012-07-08T12:09:55.000Z</time>
      </trkpt>
      <trkpt lon="-3.0198438167571999" lat="43.2755813598633026">
        <ele>371.0</ele>
        <time>2012-07-08T12:10:00.000Z</time>
      </trkpt>
      <trkpt lon="-3.0199084281921400" lat="43.2756195068359020">
        <ele>372.0</ele>
        <time>2012-07-08T12:10:04.000Z</time>
      </trkpt>
      <trkpt lon="-3.0198848247528098" lat="43.2756805419922017">
        <ele>374.0</ele>
        <time>2012-07-08T12:10:05.000Z</time>
      </trkpt>
      <trkpt lon="-3.0198056697845499" lat="43.2758102416991974">
        <ele>373.0</ele>
        <time>2012-07-08T12:10:08.000Z</time>
      </trkpt>
      <trkpt lon="-3.0197050571441602" lat="43.2759094238280966">
        <ele>372.0</ele>
        <time>2012-07-08T12:10:11.000Z</time>
      </trkpt>
      <trkpt lon="-3.0195767879486102" lat="43.2760581970214986">
        <ele>370.0</ele>
        <time>2012-07-08T12:10:14.000Z</time>
      </trkpt>
      <trkpt lon="-3.0194907188415501" lat="43.2761726379394034">
        <ele>367.0</ele>
        <time>2012-07-08T12:10:16.000Z</time>
      </trkpt>
      <trkpt lon="-3.0193812847137398" lat="43.2763366699219034">
        <ele>364.0</ele>
        <time>2012-07-08T12:10:18.000Z</time>
      </trkpt>
      <trkpt lon="-3.0193135738372798" lat="43.2764930725098012">
        <ele>362.0</ele>
        <time>2012-07-08T12:10:21.000Z</time>
      </trkpt>
      <trkpt lon="-3.0193524360656698" lat="43.2766265869140980">
        <ele>360.0</ele>
        <time>2012-07-08T12:10:22.000Z</time>
      </trkpt>
      <trkpt lon="-3.0194694995880100" lat="43.2766990661621023">
        <ele>360.0</ele>
        <time>2012-07-08T12:10:24.000Z</time>
      </trkpt>
      <trkpt lon="-3.0196943283081099" lat="43.2768821716309020">
        <ele>360.0</ele>
        <time>2012-07-08T12:10:30.000Z</time>
      </trkpt>
      <trkpt lon="-3.0195746421814000" lat="43.2768745422362997">
        <ele>359.0</ele>
        <time>2012-07-08T12:10:33.000Z</time>
      </trkpt>
      <trkpt lon="-3.0193459987640399" lat="43.2768554687500000">
        <ele>358.0</ele>
        <time>2012-07-08T12:10:36.000Z</time>
      </trkpt>
      <trkpt lon="-3.0191404819488499" lat="43.2768554687500000">
        <ele>355.0</ele>
        <time>2012-07-08T12:10:38.000Z</time>
      </trkpt>
      <trkpt lon="-3.0188491344451900" lat="43.2767944335937003">
        <ele>351.0</ele>
        <time>2012-07-08T12:10:41.000Z</time>
      </trkpt>
      <trkpt lon="-3.0186579227447501" lat="43.2767448425292969">
        <ele>347.0</ele>
        <time>2012-07-08T12:10:43.000Z</time>
      </trkpt>
      <trkpt lon="-3.0186164379119900" lat="43.2767639160155966">
        <ele>343.0</ele>
        <time>2012-07-08T12:10:45.000Z</time>
      </trkpt>
      <trkpt lon="-3.0186703205108598" lat="43.2767944335937003">
        <ele>340.0</ele>
        <time>2012-07-08T12:10:47.000Z</time>
      </trkpt>
      <trkpt lon="-3.0188598632812500" lat="43.2769050598144034">
        <ele>338.0</ele>
        <time>2012-07-08T12:10:50.000Z</time>
      </trkpt>
      <trkpt lon="-3.0191619396209699" lat="43.2770385742187003">
        <ele>338.0</ele>
        <time>2012-07-08T12:10:54.000Z</time>
      </trkpt>
      <trkpt lon="-3.0193755626678498" lat="43.2771224975586009">
        <ele>339.0</ele>
        <time>2012-07-08T12:10:56.000Z</time>
      </trkpt>
      <trkpt lon="-3.0196731090545699" lat="43.2772827148437003">
        <ele>341.0</ele>
        <time>2012-07-08T12:10:58.000Z</time>
      </trkpt>
      <trkpt lon="-3.0198874473571800" lat="43.2775306701660014">
        <ele>342.0</ele>
        <time>2012-07-08T12:11:01.000Z</time>
      </trkpt>
      <trkpt lon="-3.0201606750488299" lat="43.2778053283690980">
        <ele>341.0</ele>
        <time>2012-07-08T12:11:05.000Z</time>
      </trkpt>
      <trkpt lon="-3.0203077793121298" lat="43.2779693603515980">
        <ele>340.0</ele>
        <time>2012-07-08T12:11:07.000Z</time>
      </trkpt>
      <trkpt lon="-3.0203590393066402" lat="43.2781410217285014">
        <ele>337.0</ele>
        <time>2012-07-08T12:11:09.000Z</time>
      </trkpt>
      <trkpt lon="-3.0202784538268999" lat="43.2782135009765980">
        <ele>333.0</ele>
        <time>2012-07-08T12:11:11.000Z</time>
      </trkpt>
      <trkpt lon="-3.0201158523559601" lat="43.2783317565917969">
        <ele>328.0</ele>
        <time>2012-07-08T12:11:15.000Z</time>
      </trkpt>
      <trkpt lon="-3.0200359821319598" lat="43.2784233093262003">
        <ele>324.0</ele>
        <time>2012-07-08T12:11:16.000Z</time>
      </trkpt>
      <trkpt lon="-3.0199120044708199" lat="43.2786369323729971">
        <ele>319.0</ele>
        <time>2012-07-08T12:11:19.000Z</time>
      </trkpt>
      <trkpt lon="-3.0198535919189502" lat="43.2787971496582031">
        <ele>314.0</ele>
        <time>2012-07-08T12:11:21.000Z</time>
      </trkpt>
      <trkpt lon="-3.0199878215789799" lat="43.2788963317871023">
        <ele>310.0</ele>
        <time>2012-07-08T12:11:24.000Z</time>
      </trkpt>
      <trkpt lon="-3.0201449394226101" lat="43.2788848876952983">
        <ele>307.0</ele>
        <time>2012-07-08T12:11:26.000Z</time>
      </trkpt>
      <trkpt lon="-3.0203046798706099" lat="43.2788619995116974">
        <ele>305.0</ele>
        <time>2012-07-08T12:11:28.000Z</time>
      </trkpt>
      <trkpt lon="-3.0205647945404102" lat="43.2788200378417969">
        <ele>304.0</ele>
        <time>2012-07-08T12:11:32.000Z</time>
      </trkpt>
      <trkpt lon="-3.0208392143249498" lat="43.2787971496582031">
        <ele>305.0</ele>
        <time>2012-07-08T12:11:35.000Z</time>
      </trkpt>
      <trkpt lon="-3.0211217403411901" lat="43.2787513732910014">
        <ele>306.0</ele>
        <time>2012-07-08T12:11:38.000Z</time>
      </trkpt>
      <trkpt lon="-3.0213172435760498" lat="43.2786979675292969">
        <ele>307.0</ele>
        <time>2012-07-08T12:11:39.000Z</time>
      </trkpt>
      <trkpt lon="-3.0216197967529301" lat="43.2786102294922017">
        <ele>310.0</ele>
        <time>2012-07-08T12:11:42.000Z</time>
      </trkpt>
      <trkpt lon="-3.0219008922576900" lat="43.2785186767577983">
        <ele>313.0</ele>
        <time>2012-07-08T12:11:46.000Z</time>
      </trkpt>
      <trkpt lon="-3.0221648216247599" lat="43.2784729003905966">
        <ele>317.0</ele>
        <time>2012-07-08T12:11:48.000Z</time>
      </trkpt>
      <trkpt lon="-3.0223457813262899" lat="43.2785034179687003">
        <ele>320.0</ele>
        <time>2012-07-08T12:11:50.000Z</time>
      </trkpt>
      <trkpt lon="-3.0225372314453098" lat="43.2786865234375000">
        <ele>322.0</ele>
        <time>2012-07-08T12:11:53.000Z</time>
      </trkpt>
      <trkpt lon="-3.0226526260375999" lat="43.2787933349609020">
        <ele>323.0</ele>
        <time>2012-07-08T12:11:55.000Z</time>
      </trkpt>
      <trkpt lon="-3.0228765010833700" lat="43.2788848876952983">
        <ele>323.0</ele>
        <time>2012-07-08T12:11:58.000Z</time>
      </trkpt>
      <trkpt lon="-3.0230641365051301" lat="43.2789497375487997">
        <ele>324.0</ele>
        <time>2012-07-08T12:12:02.000Z</time>
      </trkpt>
      <trkpt lon="-3.0230500698089600" lat="43.2790565490723012">
        <ele>324.0</ele>
        <time>2012-07-08T12:12:05.000Z</time>
      </trkpt>
      <trkpt lon="-3.0229115486145002" lat="43.2791938781737997">
        <ele>324.0</ele>
        <time>2012-07-08T12:12:07.000Z</time>
      </trkpt>
      <trkpt lon="-3.0227267742157000" lat="43.2793769836425994">
        <ele>322.0</ele>
        <time>2012-07-08T12:12:11.000Z</time>
      </trkpt>
      <trkpt lon="-3.0226082801818799" lat="43.2795066833496023">
        <ele>318.0</ele>
        <time>2012-07-08T12:12:13.000Z</time>
      </trkpt>
      <trkpt lon="-3.0224213600158700" lat="43.2797012329101989">
        <ele>313.0</ele>
        <time>2012-07-08T12:12:16.000Z</time>
      </trkpt>
      <trkpt lon="-3.0222470760345499" lat="43.2798881530762003">
        <ele>306.0</ele>
        <time>2012-07-08T12:12:18.000Z</time>
      </trkpt>
      <trkpt lon="-3.0222718715667698" lat="43.2800750732422017">
        <ele>301.0</ele>
        <time>2012-07-08T12:12:21.000Z</time>
      </trkpt>
      <trkpt lon="-3.0223937034606898" lat="43.2802848815917969">
        <ele>297.0</ele>
        <time>2012-07-08T12:12:25.000Z</time>
      </trkpt>
      <trkpt lon="-3.0225534439086901" lat="43.2804794311523011">
        <ele>294.0</ele>
        <time>2012-07-08T12:12:27.000Z</time>
      </trkpt>
      <trkpt lon="-3.0226359367370601" lat="43.2806129455565980">
        <ele>291.0</ele>
        <time>2012-07-08T12:12:30.000Z</time>
      </trkpt>
      <trkpt lon="-3.0226302146911599" lat="43.2807350158690980">
        <ele>289.0</ele>
        <time>2012-07-08T12:12:34.000Z</time>
      </trkpt>
      <trkpt lon="-3.0225386619567902" lat="43.2808990478515980">
        <ele>287.0</ele>
        <time>2012-07-08T12:12:36.000Z</time>
      </trkpt>
      <trkpt lon="-3.0224709510803200" lat="43.2810287475586009">
        <ele>284.0</ele>
        <time>2012-07-08T12:12:38.000Z</time>
      </trkpt>
      <trkpt lon="-3.0223889350891100" lat="43.2811546325684020">
        <ele>280.0</ele>
        <time>2012-07-08T12:12:41.000Z</time>
      </trkpt>
      <trkpt lon="-3.0222477912902801" lat="43.2813110351562003">
        <ele>276.0</ele>
        <time>2012-07-08T12:12:44.000Z</time>
      </trkpt>
      <trkpt lon="-3.0221428871154798" lat="43.2814216613769034">
        <ele>271.0</ele>
        <time>2012-07-08T12:12:46.000Z</time>
      </trkpt>
      <trkpt lon="-3.0220191478729199" lat="43.2815704345702983">
        <ele>267.0</ele>
        <time>2012-07-08T12:12:47.000Z</time>
      </trkpt>
      <trkpt lon="-3.0218636989593501" lat="43.2817535400390980">
        <ele>263.0</ele>
        <time>2012-07-08T12:12:51.000Z</time>
      </trkpt>
      <trkpt lon="-3.0216865539550799" lat="43.2819519042969034">
        <ele>259.0</ele>
        <time>2012-07-08T12:12:54.000Z</time>
      </trkpt>
      <trkpt lon="-3.0215404033660902" lat="43.2820777893065980">
        <ele>255.0</ele>
        <time>2012-07-08T12:12:55.000Z</time>
      </trkpt>
      <trkpt lon="-3.0213351249694802" lat="43.2822799682616974">
        <ele>251.0</ele>
        <time>2012-07-08T12:12:58.000Z</time>
      </trkpt>
      <trkpt lon="-3.0211715698242201" lat="43.2824020385741974">
        <ele>248.0</ele>
        <time>2012-07-08T12:13:01.000Z</time>
      </trkpt>
      <trkpt lon="-3.0210292339324898" lat="43.2824935913086009">
        <ele>245.0</ele>
        <time>2012-07-08T12:13:03.000Z</time>
      </trkpt>
      <trkpt lon="-3.0208871364593501" lat="43.2825775146484020">
        <ele>243.0</ele>
        <time>2012-07-08T12:13:05.000Z</time>
      </trkpt>
      <trkpt lon="-3.0206859111785902" lat="43.2826843261719034">
        <ele>240.0</ele>
        <time>2012-07-08T12:13:08.000Z</time>
      </trkpt>
      <trkpt lon="-3.0205760002136199" lat="43.2827529907226989">
        <ele>238.0</ele>
        <time>2012-07-08T12:13:10.000Z</time>
      </trkpt>
      <trkpt lon="-3.0203809738159202" lat="43.2828521728515980">
        <ele>235.0</ele>
        <time>2012-07-08T12:13:13.000Z</time>
      </trkpt>
      <trkpt lon="-3.0202338695526101" lat="43.2829208374023011">
        <ele>233.0</ele>
        <time>2012-07-08T12:13:15.000Z</time>
      </trkpt>
      <trkpt lon="-3.0200214385986301" lat="43.2830200195312003">
        <ele>230.0</ele>
        <time>2012-07-08T12:13:19.000Z</time>
      </trkpt>
      <trkpt lon="-3.0197672843933101" lat="43.2831611633300994">
        <ele>227.0</ele>
        <time>2012-07-08T12:13:22.000Z</time>
      </trkpt>
      <trkpt lon="-3.0196244716644300" lat="43.2832565307616974">
        <ele>224.0</ele>
        <time>2012-07-08T12:13:24.000Z</time>
      </trkpt>
      <trkpt lon="-3.0195529460907000" lat="43.2833061218262003">
        <ele>222.0</ele>
        <time>2012-07-08T12:13:27.000Z</time>
      </trkpt>
      <trkpt lon="-3.0193924903869598" lat="43.2833862304687003">
        <ele>220.0</ele>
        <time>2012-07-08T12:13:29.000Z</time>
      </trkpt>
      <trkpt lon="-3.0192818641662602" lat="43.2834472656250000">
        <ele>218.0</ele>
        <time>2012-07-08T12:13:32.000Z</time>
      </trkpt>
      <trkpt lon="-3.0191705226898198" lat="43.2835273742675994">
        <ele>216.0</ele>
        <time>2012-07-08T12:13:33.000Z</time>
      </trkpt>
      <trkpt lon="-3.0189979076385498" lat="43.2836608886719034">
        <ele>213.0</ele>
        <time>2012-07-08T12:13:36.000Z</time>
      </trkpt>
      <trkpt lon="-3.0188596248626700" lat="43.2837409973144034">
        <ele>210.0</ele>
        <time>2012-07-08T12:13:40.000Z</time>
      </trkpt>
      <trkpt lon="-3.0187633037567099" lat="43.2838020324707031">
        <ele>207.0</ele>
        <time>2012-07-08T12:13:42.000Z</time>
      </trkpt>
      <trkpt lon="-3.0186088085174601" lat="43.2838935852050994">
        <ele>205.0</ele>
        <time>2012-07-08T12:13:45.000Z</time>
      </trkpt>
      <trkpt lon="-3.0184741020202601" lat="43.2839546203612997">
        <ele>202.0</ele>
        <time>2012-07-08T12:13:47.000Z</time>
      </trkpt>
      <trkpt lon="-3.0182902812957799" lat="43.2840156555175994">
        <ele>200.0</ele>
        <time>2012-07-08T12:13:49.000Z</time>
      </trkpt>
      <trkpt lon="-3.0181567668914799" lat="43.2840194702148011">
        <ele>198.0</ele>
        <time>2012-07-08T12:13:51.000Z</time>
      </trkpt>
      <trkpt lon="-3.0180158615112300" lat="43.2839775085449006">
        <ele>196.0</ele>
        <time>2012-07-08T12:13:54.000Z</time>
      </trkpt>
      <trkpt lon="-3.0179226398468000" lat="43.2839813232422017">
        <ele>194.0</ele>
        <time>2012-07-08T12:13:56.000Z</time>
      </trkpt>
      <trkpt lon="-3.0178422927856401" lat="43.2839775085449006">
        <ele>192.0</ele>
        <time>2012-07-08T12:13:58.000Z</time>
      </trkpt>
      <trkpt lon="-3.0176897048950200" lat="43.2839851379394034">
        <ele>190.0</ele>
        <time>2012-07-08T12:14:01.000Z</time>
      </trkpt>
      <trkpt lon="-3.0175795555114702" lat="43.2839927673339986">
        <ele>188.0</ele>
        <time>2012-07-08T12:14:03.000Z</time>
      </trkpt>
      <trkpt lon="-3.0175445079803498" lat="43.2840080261229971">
        <ele>187.0</ele>
        <time>2012-07-08T12:14:06.000Z</time>
      </trkpt>
      <trkpt lon="-3.0173783302307098" lat="43.2840614318848012">
        <ele>185.0</ele>
        <time>2012-07-08T12:14:08.000Z</time>
      </trkpt>
      <trkpt lon="-3.0172519683837900" lat="43.2840919494628977">
        <ele>183.0</ele>
        <time>2012-07-08T12:14:11.000Z</time>
      </trkpt>
      <trkpt lon="-3.0170125961303702" lat="43.2841529846190980">
        <ele>181.0</ele>
        <time>2012-07-08T12:14:13.000Z</time>
      </trkpt>
      <trkpt lon="-3.0169055461883501" lat="43.2841911315917969">
        <ele>179.0</ele>
        <time>2012-07-08T12:14:15.000Z</time>
      </trkpt>
      <trkpt lon="-3.0168044567108199" lat="43.2842369079589986">
        <ele>177.0</ele>
        <time>2012-07-08T12:14:18.000Z</time>
      </trkpt>
      <trkpt lon="-3.0166726112365700" lat="43.2843399047851989">
        <ele>174.0</ele>
        <time>2012-07-08T12:14:21.000Z</time>
      </trkpt>
      <trkpt lon="-3.0166332721710201" lat="43.2845039367675994">
        <ele>171.0</ele>
        <time>2012-07-08T12:14:23.000Z</time>
      </trkpt>
      <trkpt lon="-3.0167415142059300" lat="43.2846260070800994">
        <ele>168.0</ele>
        <time>2012-07-08T12:14:26.000Z</time>
      </trkpt>
      <trkpt lon="-3.0170433521270699" lat="43.2847709655762003">
        <ele>165.0</ele>
        <time>2012-07-08T12:14:29.000Z</time>
      </trkpt>
      <trkpt lon="-3.0172312259674099" lat="43.2848548889160014">
        <ele>163.0</ele>
        <time>2012-07-08T12:14:31.000Z</time>
      </trkpt>
      <trkpt lon="-3.0172955989837602" lat="43.2849845886229971">
        <ele>162.0</ele>
        <time>2012-07-08T12:14:33.000Z</time>
      </trkpt>
      <trkpt lon="-3.0171518325805700" lat="43.2850418090820028">
        <ele>161.0</ele>
        <time>2012-07-08T12:14:36.000Z</time>
      </trkpt>
      <trkpt lon="-3.0168278217315700" lat="43.2851295471190980">
        <ele>159.0</ele>
        <time>2012-07-08T12:14:38.000Z</time>
      </trkpt>
      <trkpt lon="-3.0165562629699698" lat="43.2851867675780966">
        <ele>155.0</ele>
        <time>2012-07-08T12:14:41.000Z</time>
      </trkpt>
      <trkpt lon="-3.0160539150238002" lat="43.2852363586425994">
        <ele>151.0</ele>
        <time>2012-07-08T12:14:43.000Z</time>
      </trkpt>
      <trkpt lon="-3.0157616138458199" lat="43.2851982116699006">
        <ele>146.0</ele>
        <time>2012-07-08T12:14:46.000Z</time>
      </trkpt>
      <trkpt lon="-3.0154304504394500" lat="43.2851219177246023">
        <ele>142.0</ele>
        <time>2012-07-08T12:14:48.000Z</time>
      </trkpt>
      <trkpt lon="-3.0150582790374800" lat="43.2849464416503977">
        <ele>138.0</ele>
        <time>2012-07-08T12:14:51.000Z</time>
      </trkpt>
      <trkpt lon="-3.0148475170135498" lat="43.2847290039062003">
        <ele>135.0</ele>
        <time>2012-07-08T12:14:53.000Z</time>
      </trkpt>
      <trkpt lon="-3.0147733688354501" lat="43.2846717834473012">
        <ele>132.0</ele>
        <time>2012-07-08T12:14:57.000Z</time>
      </trkpt>
      <trkpt lon="-3.0148272514343302" lat="43.2847785949707031">
        <ele>131.0</ele>
        <time>2012-07-08T12:15:00.000Z</time>
      </trkpt>
      <trkpt lon="-3.0148565769195601" lat="43.2849388122559020">
        <ele>130.0</ele>
        <time>2012-07-08T12:15:02.000Z</time>
      </trkpt>
      <trkpt lon="-3.0148749351501500" lat="43.2850761413574006">
        <ele>129.0</ele>
        <time>2012-07-08T12:15:05.000Z</time>
      </trkpt>
      <trkpt lon="-3.0148489475250200" lat="43.2853050231934020">
        <ele>127.0</ele>
        <time>2012-07-08T12:15:08.000Z</time>
      </trkpt>
      <trkpt lon="-3.0147697925567600" lat="43.2855339050292969">
        <ele>124.0</ele>
        <time>2012-07-08T12:15:11.000Z</time>
      </trkpt>
      <trkpt lon="-3.0148019790649401" lat="43.2856941223144034">
        <ele>121.0</ele>
        <time>2012-07-08T12:15:13.000Z</time>
      </trkpt>
      <trkpt lon="-3.0148496627807599" lat="43.2859306335449006">
        <ele>117.0</ele>
        <time>2012-07-08T12:15:16.000Z</time>
      </trkpt>
      <trkpt lon="-3.0147304534912100" lat="43.2861328125000000">
        <ele>111.0</ele>
        <time>2012-07-08T12:15:18.000Z</time>
      </trkpt>
      <trkpt lon="-3.0145955085754399" lat="43.2862396240234020">
        <ele>106.0</ele>
        <time>2012-07-08T12:15:20.000Z</time>
      </trkpt>
      <trkpt lon="-3.0144109725952100" lat="43.2863578796387003">
        <ele>100.0</ele>
        <time>2012-07-08T12:15:23.000Z</time>
      </trkpt>
      <trkpt lon="-3.0140945911407502" lat="43.2864761352538991">
        <ele>94.0</ele>
        <time>2012-07-08T12:15:26.000Z</time>
      </trkpt>
      <trkpt lon="-3.0137553215026900" lat="43.2864341735839986">
        <ele>89.0</ele>
        <time>2012-07-08T12:15:28.000Z</time>
      </trkpt>
      <trkpt lon="-3.0135314464569101" lat="43.2864303588866974">
        <ele>85.0</ele>
        <time>2012-07-08T12:15:31.000Z</time>
      </trkpt>
      <trkpt lon="-3.0131342411041300" lat="43.2865028381348012">
        <ele>81.0</ele>
        <time>2012-07-08T12:15:34.000Z</time>
      </trkpt>
      <trkpt lon="-3.0128738880157502" lat="43.2865524291991974">
        <ele>78.0</ele>
        <time>2012-07-08T12:15:36.000Z</time>
      </trkpt>
      <trkpt lon="-3.0125057697296098" lat="43.2865943908690980">
        <ele>77.0</ele>
        <time>2012-07-08T12:15:39.000Z</time>
      </trkpt>
      <trkpt lon="-3.0123026371002202" lat="43.2864952087401988">
        <ele>75.0</ele>
        <time>2012-07-08T12:15:41.000Z</time>
      </trkpt>
      <trkpt lon="-3.0121669769287100" lat="43.2863998413086009">
        <ele>73.0</ele>
        <time>2012-07-08T12:15:44.000Z</time>
      </trkpt>
      <trkpt lon="-3.0118784904479998" lat="43.2863655090332031">
        <ele>72.0</ele>
        <time>2012-07-08T12:15:47.000Z</time>
      </trkpt>
      <trkpt lon="-3.0115342140197798" lat="43.2864036560059020">
        <ele>69.0</ele>
        <time>2012-07-08T12:15:50.000Z</time>
      </trkpt>
      <trkpt lon="-3.0112667083740199" lat="43.2863578796387003">
        <ele>64.0</ele>
        <time>2012-07-08T12:15:52.000Z</time>
      </trkpt>
      <trkpt lon="-3.0109894275665301" lat="43.2863121032714986">
        <ele>59.0</ele>
        <time>2012-07-08T12:15:54.000Z</time>
      </trkpt>
      <trkpt lon="-3.0108869075775102" lat="43.2863845825195028">
        <ele>54.0</ele>
        <time>2012-07-08T12:15:57.000Z</time>
      </trkpt>
      <trkpt lon="-3.0107452869415301" lat="43.2864456176758026">
        <ele>49.0</ele>
        <time>2012-07-08T12:15:59.000Z</time>
      </trkpt>
      <trkpt lon="-3.0104920864105198" lat="43.2864265441894034">
        <ele>44.0</ele>
        <time>2012-07-08T12:16:02.000Z</time>
      </trkpt>
      <trkpt lon="-3.0103161334991499" lat="43.2864723205565980">
        <ele>40.0</ele>
        <time>2012-07-08T12:16:05.000Z</time>
      </trkpt>
      <trkpt lon="-3.0101733207702601" lat="43.2865371704101989">
        <ele>38.0</ele>
        <time>2012-07-08T12:16:07.000Z</time>
      </trkpt>
      <trkpt lon="-3.0100383758544900" lat="43.2865409851074006">
        <ele>35.0</ele>
        <time>2012-07-08T12:16:10.000Z</time>
      </trkpt>
      <trkpt lon="-3.0100371837615998" lat="43.2863922119140980">
        <ele>33.0</ele>
        <time>2012-07-08T12:16:13.000Z</time>
      </trkpt>
      <trkpt lon="-3.0100169181823699" lat="43.2862854003905966">
        <ele>31.0</ele>
        <time>2012-07-08T12:16:15.000Z</time>
      </trkpt>
      <trkpt lon="-3.0098981857299800" lat="43.2861175537109020">
        <ele>30.0</ele>
        <time>2012-07-08T12:16:17.000Z</time>
      </trkpt>
      <trkpt lon="-3.0097351074218701" lat="43.2859230041503977">
        <ele>29.0</ele>
        <time>2012-07-08T12:16:21.000Z</time>
      </trkpt>
      <trkpt lon="-3.0095427036285400" lat="43.2857666015625000">
        <ele>29.0</ele>
        <time>2012-07-08T12:16:24.000Z</time>
      </trkpt>
      <trkpt lon="-3.0093252658843999" lat="43.2856369018554972">
        <ele>28.0</ele>
        <time>2012-07-08T12:16:27.000Z</time>
      </trkpt>
      <trkpt lon="-3.0090596675872798" lat="43.2855529785155966">
        <ele>28.0</ele>
        <time>2012-07-08T12:16:29.000Z</time>
      </trkpt>
      <trkpt lon="-3.0088758468627899" lat="43.2855110168457031">
        <ele>29.0</ele>
        <time>2012-07-08T12:16:31.000Z</time>
      </trkpt>
      <trkpt lon="-3.0084514617919900" lat="43.2854614257812003">
        <ele>30.0</ele>
        <time>2012-07-08T12:16:35.000Z</time>
      </trkpt>
      <trkpt lon="-3.0080475807189901" lat="43.2854576110839986">
        <ele>30.0</ele>
        <time>2012-07-08T12:16:40.000Z</time>
      </trkpt>
      <trkpt lon="-3.0075387954711901" lat="43.2854499816894034">
        <ele>29.0</ele>
        <time>2012-07-08T12:16:44.000Z</time>
      </trkpt>
      <trkpt lon="-3.0072546005249001" lat="43.2853736877440980">
        <ele>28.0</ele>
        <time>2012-07-08T12:16:47.000Z</time>
      </trkpt>
      <trkpt lon="-3.0070765018463099" lat="43.2852935791015980">
        <ele>27.0</ele>
        <time>2012-07-08T12:16:50.000Z</time>
      </trkpt>
      <trkpt lon="-3.0069117546081499" lat="43.2851905822753977">
        <ele>27.0</ele>
        <time>2012-07-08T12:16:52.000Z</time>
      </trkpt>
      <trkpt lon="-3.0065295696258501" lat="43.2849044799804972">
        <ele>28.0</ele>
        <time>2012-07-08T12:16:57.000Z</time>
      </trkpt>
      <trkpt lon="-3.0060200691223100" lat="43.2845268249512003">
        <ele>27.0</ele>
        <time>2012-07-08T12:17:02.000Z</time>
      </trkpt>
      <trkpt lon="-3.0057942867279102" lat="43.2844238281250000">
        <ele>25.0</ele>
        <time>2012-07-08T12:17:05.000Z</time>
      </trkpt>
      <trkpt lon="-3.0054383277893102" lat="43.2843132019042969">
        <ele>24.0</ele>
        <time>2012-07-08T12:17:08.000Z</time>
      </trkpt>
      <trkpt lon="-3.0051858425140399" lat="43.2842750549315980">
        <ele>22.0</ele>
        <time>2012-07-08T12:17:10.000Z</time>
      </trkpt>
      <trkpt lon="-3.0049316883087198" lat="43.2842712402344034">
        <ele>22.0</ele>
        <time>2012-07-08T12:17:12.000Z</time>
      </trkpt>
      <trkpt lon="-3.0045547485351598" lat="43.2843322753905966">
        <ele>22.0</ele>
        <time>2012-07-08T12:17:14.000Z</time>
      </trkpt>
      <trkpt lon="-3.0042889118194598" lat="43.2843627929687003">
        <ele>24.0</ele>
        <time>2012-07-08T12:17:17.000Z</time>
      </trkpt>
      <trkpt lon="-3.0038874149322501" lat="43.2843780517577983">
        <ele>25.0</ele>
        <time>2012-07-08T12:17:20.000Z</time>
      </trkpt>
      <trkpt lon="-3.0034935474395699" lat="43.2842979431151988">
        <ele>26.0</ele>
        <time>2012-07-08T12:17:22.000Z</time>
      </trkpt>
      <trkpt lon="-3.0032734870910600" lat="43.2841835021973012">
        <ele>26.0</ele>
        <time>2012-07-08T12:17:25.000Z</time>
      </trkpt>
      <trkpt lon="-3.0029389858245801" lat="43.2840118408202983">
        <ele>27.0</ele>
        <time>2012-07-08T12:17:27.000Z</time>
      </trkpt>
      <trkpt lon="-3.0023627281189000" lat="43.2837448120116974">
        <ele>29.0</ele>
        <time>2012-07-08T12:17:32.000Z</time>
      </trkpt>
      <trkpt lon="-3.0020022392272900" lat="43.2836151123047017">
        <ele>30.0</ele>
        <time>2012-07-08T12:17:36.000Z</time>
      </trkpt>
      <trkpt lon="-3.0017592906951900" lat="43.2835388183594034">
        <ele>31.0</ele>
        <time>2012-07-08T12:17:38.000Z</time>
      </trkpt>
      <trkpt lon="-3.0011353492736799" lat="43.2833824157714986">
        <ele>30.0</ele>
        <time>2012-07-08T12:17:43.000Z</time>
      </trkpt>
      <trkpt lon="-3.0008964538574201" lat="43.2833251953125000">
        <ele>28.0</ele>
        <time>2012-07-08T12:17:45.000Z</time>
      </trkpt>
      <trkpt lon="-3.0005214214324898" lat="43.2832221984862997">
        <ele>26.0</ele>
        <time>2012-07-08T12:17:48.000Z</time>
      </trkpt>
      <trkpt lon="-3.0001962184906001" lat="43.2831459045410014">
        <ele>24.0</ele>
        <time>2012-07-08T12:17:51.000Z</time>
      </trkpt>
      <trkpt lon="-2.9999547004699698" lat="43.2830772399901988">
        <ele>22.0</ele>
        <time>2012-07-08T12:17:53.000Z</time>
      </trkpt>
      <trkpt lon="-2.9996168613433798" lat="43.2829627990723012">
        <ele>21.0</ele>
        <time>2012-07-08T12:17:56.000Z</time>
      </trkpt>
      <trkpt lon="-2.9992940425872798" lat="43.2828636169434020">
        <ele>20.0</ele>
        <time>2012-07-08T12:17:58.000Z</time>
      </trkpt>
      <trkpt lon="-2.9989755153656001" lat="43.2827606201172017">
        <ele>19.0</ele>
        <time>2012-07-08T12:18:02.000Z</time>
      </trkpt>
      <trkpt lon="-2.9982347488403298" lat="43.2825088500976989">
        <ele>17.0</ele>
        <time>2012-07-08T12:18:08.000Z</time>
      </trkpt>
      <trkpt lon="-2.9980251789093000" lat="43.2824363708496023">
        <ele>16.0</ele>
        <time>2012-07-08T12:18:11.000Z</time>
      </trkpt>
      <trkpt lon="-2.9977152347564702" lat="43.2823181152344034">
        <ele>15.0</ele>
        <time>2012-07-08T12:18:14.000Z</time>
      </trkpt>
      <trkpt lon="-2.9971959590911901" lat="43.2821121215820028">
        <ele>14.0</ele>
        <time>2012-07-08T12:18:18.000Z</time>
      </trkpt>
      <trkpt lon="-2.9966628551483199" lat="43.2819290161133026">
        <ele>13.0</ele>
        <time>2012-07-08T12:18:23.000Z</time>
      </trkpt>
      <trkpt lon="-2.9964449405670202" lat="43.2818756103515980">
        <ele>11.0</ele>
        <time>2012-07-08T12:18:25.000Z</time>
      </trkpt>
      <trkpt lon="-2.9961154460907000" lat="43.2818565368651988">
        <ele>10.0</ele>
        <time>2012-07-08T12:18:28.000Z</time>
      </trkpt>
      <trkpt lon="-2.9958999156951900" lat="43.2818946838378977">
        <ele>8.0</ele>
        <time>2012-07-08T12:18:30.000Z</time>
      </trkpt>
      <trkpt lon="-2.9956903457641602" lat="43.2819213867187003">
        <ele>7.0</ele>
        <time>2012-07-08T12:18:33.000Z</time>
      </trkpt>
      <trkpt lon="-2.9954769611358598" lat="43.2819442749023011">
        <ele>6.0</ele>
        <time>2012-07-08T12:18:35.000Z</time>
      </trkpt>
      <trkpt lon="-2.9949145317077601" lat="43.2820281982422017">
        <ele>5.0</ele>
        <time>2012-07-08T12:18:39.000Z</time>
      </trkpt>
      <trkpt lon="-2.9945821762085001" lat="43.2821197509765980">
        <ele>4.0</ele>
        <time>2012-07-08T12:18:44.000Z</time>
      </trkpt>
      <trkpt lon="-2.9943130016326900" lat="43.2821807861327983">
        <ele>5.0</ele>
        <time>2012-07-08T12:18:49.000Z</time>
      </trkpt>
      <trkpt lon="-2.9939985275268599" lat="43.2822914123535014">
        <ele>6.0</ele>
        <time>2012-07-08T12:18:55.000Z</time>
      </trkpt>
      <trkpt lon="-2.9937670230865501" lat="43.2823753356934020">
        <ele>7.0</ele>
        <time>2012-07-08T12:19:00.000Z</time>
      </trkpt>
      <trkpt lon="-2.9937031269073500" lat="43.2823905944824006">
        <ele>8.0</ele>
        <time>2012-07-08T12:19:04.000Z</time>
      </trkpt>
      <trkpt lon="-2.9936597347259499" lat="43.2827110290526988">
        <ele>8.0</ele>
        <time>2012-07-08T12:19:08.000Z</time>
      </trkpt>
      <trkpt lon="-2.9938466548919700" lat="43.2828254699707031">
        <ele>8.0</ele>
        <time>2012-07-08T12:19:11.000Z</time>
      </trkpt>
      <trkpt lon="-2.9939994812011701" lat="43.2828636169434020">
        <ele>8.0</ele>
        <time>2012-07-08T12:19:14.000Z</time>
      </trkpt>
      <trkpt lon="-2.9943735599517800" lat="43.2829627990723012">
        <ele>7.0</ele>
        <time>2012-07-08T12:19:18.000Z</time>
      </trkpt>
      <trkpt lon="-2.9951481819152801" lat="43.2831916809082031">
        <ele>6.0</ele>
        <time>2012-07-08T12:19:25.000Z</time>
      </trkpt>
      <trkpt lon="-2.9952187538146999" lat="43.2833747863769034">
        <ele>7.0</ele>
        <time>2012-07-08T12:19:27.000Z</time>
      </trkpt>
      <trkpt lon="-2.9951832294464098" lat="43.2835350036621023">
        <ele>7.0</ele>
        <time>2012-07-08T12:19:30.000Z</time>
      </trkpt>
      <trkpt lon="-2.9950783252716100" lat="43.2838897705077983">
        <ele>8.0</ele>
        <time>2012-07-08T12:19:38.000Z</time>
      </trkpt>
      <trkpt lon="-2.9950437545776398" lat="43.2839469909667969">
        <ele>8.0</ele>
        <time>2012-07-08T12:19:40.000Z</time>
      </trkpt>
      <trkpt lon="-2.9947640895843501" lat="43.2844200134276988">
        <ele>8.0</ele>
        <time>2012-07-08T12:19:49.000Z</time>
      </trkpt>
      <trkpt lon="-2.9946720600128200" lat="43.2845840454101989">
        <ele>7.0</ele>
        <time>2012-07-08T12:19:51.000Z</time>
      </trkpt>
      <trkpt lon="-2.9944148063659699" lat="43.2850532531737997">
        <ele>6.0</ele>
        <time>2012-07-08T12:19:58.000Z</time>
      </trkpt>
      <trkpt lon="-2.9943354129791300" lat="43.2851676940917969">
        <ele>6.0</ele>
        <time>2012-07-08T12:20:01.000Z</time>
      </trkpt>
      <trkpt lon="-2.9941618442535400" lat="43.2852973937987997">
        <ele>6.0</ele>
        <time>2012-07-08T12:20:03.000Z</time>
      </trkpt>
      <trkpt lon="-2.9940602779388401" lat="43.2854003906250000">
        <ele>6.0</ele>
        <time>2012-07-08T12:20:05.000Z</time>
      </trkpt>
      <trkpt lon="-2.9939820766449001" lat="43.2855758666991974">
        <ele>5.0</ele>
        <time>2012-07-08T12:20:09.000Z</time>
      </trkpt>
      <trkpt lon="-2.9939713478088401" lat="43.2857627868651988">
        <ele>5.0</ele>
        <time>2012-07-08T12:20:12.000Z</time>
      </trkpt>
      <trkpt lon="-2.9938981533050502" lat="43.2860717773437003">
        <ele>5.0</ele>
        <time>2012-07-08T12:20:16.000Z</time>
      </trkpt>
      <trkpt lon="-2.9938480854034402" lat="43.2861976623535014">
        <ele>4.0</ele>
        <time>2012-07-08T12:20:19.000Z</time>
      </trkpt>
      <trkpt lon="-2.9935951232910201" lat="43.2867622375487997">
        <ele>3.0</ele>
        <time>2012-07-08T12:20:27.000Z</time>
      </trkpt>
      <trkpt lon="-2.9935207366943399" lat="43.2869911193848012">
        <ele>3.0</ele>
        <time>2012-07-08T12:20:31.000Z</time>
      </trkpt>
      <trkpt lon="-2.9934234619140598" lat="43.2871971130371023">
        <ele>3.0</ele>
        <time>2012-07-08T12:20:34.000Z</time>
      </trkpt>
      <trkpt lon="-2.9931831359863299" lat="43.2878570556640980">
        <ele>4.0</ele>
        <time>2012-07-08T12:20:41.000Z</time>
      </trkpt>
      <trkpt lon="-2.9930524826049800" lat="43.2880783081054972">
        <ele>4.0</ele>
        <time>2012-07-08T12:20:44.000Z</time>
      </trkpt>
      <trkpt lon="-2.9930019378662100" lat="43.2882156372070028">
        <ele>4.0</ele>
        <time>2012-07-08T12:20:46.000Z</time>
      </trkpt>
      <trkpt lon="-2.9929656982421902" lat="43.2883529663086009">
        <ele>5.0</ele>
        <time>2012-07-08T12:20:48.000Z</time>
      </trkpt>
      <trkpt lon="-2.9929070472717298" lat="43.2884979248047017">
        <ele>5.0</ele>
        <time>2012-07-08T12:20:50.000Z</time>
      </trkpt>
      <trkpt lon="-2.9926624298095699" lat="43.2889823913574006">
        <ele>5.0</ele>
        <time>2012-07-08T12:20:58.000Z</time>
      </trkpt>
      <trkpt lon="-2.9924254417419398" lat="43.2894744873047017">
        <ele>5.0</ele>
        <time>2012-07-08T12:21:05.000Z</time>
      </trkpt>
      <trkpt lon="-2.9923615455627401" lat="43.2896308898925994">
        <ele>4.0</ele>
        <time>2012-07-08T12:21:09.000Z</time>
      </trkpt>
      <trkpt lon="-2.9922459125518799" lat="43.2899169921875000">
        <ele>3.0</ele>
        <time>2012-07-08T12:21:13.000Z</time>
      </trkpt>
      <trkpt lon="-2.9920794963836701" lat="43.2902565002440980">
        <ele>2.0</ele>
        <time>2012-07-08T12:21:19.000Z</time>
      </trkpt>
      <trkpt lon="-2.9919710159301798" lat="43.2905616760253977">
        <ele>2.0</ele>
        <time>2012-07-08T12:21:24.000Z</time>
      </trkpt>
      <trkpt lon="-2.9919435977935800" lat="43.2906036376952983">
        <ele>2.0</ele>
        <time>2012-07-08T12:21:27.000Z</time>
      </trkpt>
      <trkpt lon="-2.9918673038482702" lat="43.2906455993651988">
        <ele>2.0</ele>
        <time>2012-07-08T12:21:30.000Z</time>
      </trkpt>
      <trkpt lon="-2.9918501377105700" lat="43.2906494140625000">
        <ele>2.0</ele>
        <time>2012-07-08T12:21:33.000Z</time>
      </trkpt>
      <trkpt lon="-2.9918177127838099" lat="43.2909584045410014">
        <ele>2.0</ele>
        <time>2012-07-08T12:21:37.000Z</time>
      </trkpt>
      <trkpt lon="-2.9917783737182599" lat="43.2910881042479971">
        <ele>2.0</ele>
        <time>2012-07-08T12:21:41.000Z</time>
      </trkpt>
      <trkpt lon="-2.9916949272155802" lat="43.2913093566894034">
        <ele>3.0</ele>
        <time>2012-07-08T12:21:46.000Z</time>
      </trkpt>
      <trkpt lon="-2.9915304183960001" lat="43.2916107177734020">
        <ele>4.0</ele>
        <time>2012-07-08T12:21:52.000Z</time>
      </trkpt>
      <trkpt lon="-2.9914288520813002" lat="43.2918968200684020">
        <ele>4.0</ele>
        <time>2012-07-08T12:22:00.000Z</time>
      </trkpt>
      <trkpt lon="-2.9913637638092001" lat="43.2920074462890980">
        <ele>5.0</ele>
        <time>2012-07-08T12:22:02.000Z</time>
      </trkpt>
      <trkpt lon="-2.9913241863250701" lat="43.2920570373535014">
        <ele>5.0</ele>
        <time>2012-07-08T12:22:06.000Z</time>
      </trkpt>
      <trkpt lon="-2.9912281036377002" lat="43.2922592163086009">
        <ele>5.0</ele>
        <time>2012-07-08T12:22:09.000Z</time>
      </trkpt>
      <trkpt lon="-2.9912066459655802" lat="43.2923316955565980">
        <ele>6.0</ele>
        <time>2012-07-08T12:22:11.000Z</time>
      </trkpt>
      <trkpt lon="-2.9911301136016801" lat="43.2925605773925994">
        <ele>7.0</ele>
        <time>2012-07-08T12:22:18.000Z</time>
      </trkpt>
      <trkpt lon="-2.9910855293273899" lat="43.2926559448241974">
        <ele>7.0</ele>
        <time>2012-07-08T12:22:20.000Z</time>
      </trkpt>
      <trkpt lon="-2.9910116195678702" lat="43.2927436828612997">
        <ele>8.0</ele>
        <time>2012-07-08T12:22:23.000Z</time>
      </trkpt>
      <trkpt lon="-2.9909939765930198" lat="43.2928543090820028">
        <ele>9.0</ele>
        <time>2012-07-08T12:22:25.000Z</time>
      </trkpt>
      <trkpt lon="-2.9910047054290798" lat="43.2929878234862997">
        <ele>9.0</ele>
        <time>2012-07-08T12:22:28.000Z</time>
      </trkpt>
      <trkpt lon="-2.9910039901733398" lat="43.2930564880371023">
        <ele>10.0</ele>
        <time>2012-07-08T12:22:30.000Z</time>
      </trkpt>
      <trkpt lon="-2.9909758567810099" lat="43.2931480407714986">
        <ele>11.0</ele>
        <time>2012-07-08T12:22:33.000Z</time>
      </trkpt>
      <trkpt lon="-2.9909174442291300" lat="43.2932090759276988">
        <ele>12.0</ele>
        <time>2012-07-08T12:22:35.000Z</time>
      </trkpt>
      <trkpt lon="-2.9908504486084002" lat="43.2933082580565980">
        <ele>13.0</ele>
        <time>2012-07-08T12:22:39.000Z</time>
      </trkpt>
      <trkpt lon="-2.9908428192138699" lat="43.2933692932128977">
        <ele>13.0</ele>
        <time>2012-07-08T12:22:42.000Z</time>
      </trkpt>
      <trkpt lon="-2.9907994270324698" lat="43.2934570312500000">
        <ele>14.0</ele>
        <time>2012-07-08T12:22:45.000Z</time>
      </trkpt>
      <trkpt lon="-2.9907994270324698" lat="43.2934570312500000">
        <ele>14.0</ele>
        <time>2012-07-08T12:22:56.000Z</time>
      </trkpt>
      <trkpt lon="-2.9909737110137899" lat="43.2934341430663991">
        <ele>15.0</ele>
        <time>2012-07-08T12:22:56.000Z</time>
      </trkpt>
      <trkpt lon="-2.9909737110137899" lat="43.2934341430663991">
        <ele>15.0</ele>
        <time>2012-07-08T12:23:07.000Z</time>
      </trkpt>
      <trkpt lon="-2.9910132884979199" lat="43.2935295104979971">
        <ele>15.0</ele>
        <time>2012-07-08T12:23:07.000Z</time>
      </trkpt>
      <trkpt lon="-2.9910125732421902" lat="43.2936286926269034">
        <ele>16.0</ele>
        <time>2012-07-08T12:23:10.000Z</time>
      </trkpt>
      <trkpt lon="-2.9909482002258301" lat="43.2936515808104971">
        <ele>17.0</ele>
        <time>2012-07-08T12:23:13.000Z</time>
      </trkpt>
      <trkpt lon="-2.9908895492553702" lat="43.2936744689940980">
        <ele>18.0</ele>
        <time>2012-07-08T12:23:15.000Z</time>
      </trkpt>
      <trkpt lon="-2.9908380508422798" lat="43.2936515808104971">
        <ele>18.0</ele>
        <time>2012-07-08T12:23:20.000Z</time>
      </trkpt>
      <trkpt lon="-2.9909605979919398" lat="43.2936401367187003">
        <ele>19.0</ele>
        <time>2012-07-08T12:23:22.000Z</time>
      </trkpt>
      <trkpt lon="-2.9910154342651398" lat="43.2936706542969034">
        <ele>19.0</ele>
        <time>2012-07-08T12:23:24.000Z</time>
      </trkpt>
      <trkpt lon="-2.9909644126892099" lat="43.2937126159667969">
        <ele>19.0</ele>
        <time>2012-07-08T12:23:27.000Z</time>
      </trkpt>
      <trkpt lon="-2.9909248352050799" lat="43.2937660217285014">
        <ele>19.0</ele>
        <time>2012-07-08T12:23:30.000Z</time>
      </trkpt>
      <trkpt lon="-2.9908967018127401" lat="43.2937812805175994">
        <ele>20.0</ele>
        <time>2012-07-08T12:23:33.000Z</time>
      </trkpt>
      <trkpt lon="-2.9908196926116899" lat="43.2937774658202983">
        <ele>20.0</ele>
        <time>2012-07-08T12:23:34.000Z</time>
      </trkpt>
      <trkpt lon="-2.9908907413482702" lat="43.2937698364258026">
        <ele>20.0</ele>
        <time>2012-07-08T12:23:36.000Z</time>
      </trkpt>
      <trkpt lon="-2.9909605979919398" lat="43.2937583923339986">
        <ele>21.0</ele>
        <time>2012-07-08T12:23:39.000Z</time>
      </trkpt>
      <trkpt lon="-2.9910297393798801" lat="43.2937812805175994">
        <ele>21.0</ele>
        <time>2012-07-08T12:23:41.000Z</time>
      </trkpt>
      <trkpt lon="-2.9912300109863299" lat="43.2939376831054972">
        <ele>22.0</ele>
        <time>2012-07-08T12:23:51.000Z</time>
      </trkpt>
      <trkpt lon="-2.9912526607513401" lat="43.2940216064452983">
        <ele>23.0</ele>
        <time>2012-07-08T12:23:53.000Z</time>
      </trkpt>
      <trkpt lon="-2.9912633895874001" lat="43.2940711975098012">
        <ele>25.0</ele>
        <time>2012-07-08T12:23:56.000Z</time>
      </trkpt>
      <trkpt lon="-2.9912760257720898" lat="43.2941360473633026">
        <ele>26.0</ele>
        <time>2012-07-08T12:23:57.000Z</time>
      </trkpt>
      <trkpt lon="-2.9913272857665998" lat="43.2941741943359020">
        <ele>27.0</ele>
        <time>2012-07-08T12:24:00.000Z</time>
      </trkpt>
      <trkpt lon="-2.9914090633392298" lat="43.2942123413086009">
        <ele>28.0</ele>
        <time>2012-07-08T12:24:02.000Z</time>
      </trkpt>
      <trkpt lon="-2.9913949966430700" lat="43.2942848205565980">
        <ele>29.0</ele>
        <time>2012-07-08T12:24:06.000Z</time>
      </trkpt>
      <trkpt lon="-2.9913718700408900" lat="43.2943611145019034">
        <ele>30.0</ele>
        <time>2012-07-08T12:24:09.000Z</time>
      </trkpt>
      <trkpt lon="-2.9913768768310498" lat="43.2944450378417969">
        <ele>30.0</ele>
        <time>2012-07-08T12:24:13.000Z</time>
      </trkpt>
      <trkpt lon="-2.9913768768310498" lat="43.2944450378417969">
        <ele>30.0</ele>
        <time>2012-07-08T12:24:15.000Z</time>
      </trkpt>
    </trkseg>
  </trk>
</gpx>
